GFSSW_500_temp_000.txt.gz
Temp
-2 -1 -0 -1 -1 -0 -1 -1 -1 -1 -1 -1 -1 -1 -1 -2 -2 -3 -4 -4 -5 -5 -5 -5 -6 -7 -7 -8 -7 -8 -8 -8 -9 -8 -7 -7 -7 -7 -7 -8 -8 -8 -8 -8 -9
-2 -1 -1 -1 -1 -1 -0 -1 -1 -1 -1 -1 -1 -1 -1 -1 -2 -3 -4 -4 -4 -5 -5 -5 -6 -7 -7 -8 -8 -8 -8 -8 -7 -7 -7 -7 -7 -7 -7 -7 -7 -7 -7 -8 -8
-3 -2 -1 -1 -1 -1 -0 -0 -1 -1 -1 -1 -1 -1 -1 -1 -2 -2 -3 -4 -4 -5 -5 -5 -5 -6 -7 -8 -8 -8 -8 -7 -7 -7 -7 -7 -7 -6 -6 -7 -7 -7 -7 -8 -9
-4 -3 -2 -1 -0 -1 -1 -1 -1 -1 -1 -1 -1 -1 -1 -1 -2 -2 -3 -3 -4 -4 -5 -5 -5 -6 -7 -8 -7 -8 -8 -7 -6 -6 -7 -7 -7 -6 -6 -6 -6 -7 -7 -8 -8
-4 -4 -2 -2 -1 -1 -1 -1 -1 -1 -1 -1 -1 -1 -2 -1 -1 -2 -2 -3 -3 -4 -5 -5 -5 -6 -7 -8 -8 -8 -8 -7 -7 -6 -7 -7 -6 -6 -6 -6 -6 -6 -7 -7 -8
-4 -4 -4 -2 -2 -1 -1 -1 -1 -1 -1 -1 -1 -1 -2 -2 -2 -1 -2 -2 -3 -4 -5 -5 -5 -6 -7 -8 -9 -8 -8 -7 -6 -6 -7 -6 -6 -5 -5 -5 -6 -6 -6 -7 -8
-5 -4 -4 -4 -2 -2 -1 -1 -1 -1 -1 -1 -1 -1 -2 -2 -2 -1 -2 -3 -3 -4 -5 -5 -5 -6 -7 -8 -8 -8 -8 -7 -7 -7 -7 -7 -6 -5 -5 -6 -6 -6 -6 -6 -7
-7 -5 -4 -4 -4 -2 -2 -1 -1 -1 -1 -1 -1 -1 -2 -2 -2 -2 -1 -2 -3 -4 -4 -5 -5 -5 -6 -7 -8 -9 -8 -8 -8 -7 -7 -7 -7 -6 -6 -6 -6 -6 -6 -6 -7
-8 -7 -5 -4 -5 -4 -2 -2 -2 -1 -1 -1 -1 -1 -2 -2 -2 -2 -2 -2 -3 -4 -4 -5 -5 -5 -6 -7 -8 -8 -8 -8 -8 -7 -7 -8 -7 -7 -7 -7 -6 -6 -6 -6 -7
-8 -8 -6 -4 -4 -5 -4 -2 -3 -2 -1 -1 -2 -2 -2 -2 -2 -2 -2 -2 -3 -4 -4 -4 -5 -5 -6 -7 -8 -9 -8 -9 -8 -8 -8 -9 -8 -7 -8 -8 -7 -6 -6 -6 -7
-9 -8 -7 -6 -5 -5 -6 -4 -3 -2 -2 -2 -2 -2 -2 -2 -2 -2 -2 -2 -3 -4 -4 -5 -5 -5 -5 -7 -8 -8 -8 -8 -8 -8 -8 -9 -9 -8 -8 -8 -8 -7 -7 -7 -7
-10 -9 -8 -8 -7 -6 -6 -5 -5 -4 -3 -2 -2 -2 -2 -2 -2 -2 -2 -2 -2 -4 -4 -5 -5 -5 -6 -7 -7 -7 -8 -8 -8 -8 -8 -8 -9 -9 -8 -8 -8 -8 -7 -7 -7
-10 -10 -9 -8 -8 -7 -6 -6 -5 -5 -4 -3 -3 -3 -2 -3 -3 -2 -2 -2 -3 -3 -4 -5 -5 -6 -6 -7 -8 -8 -8 -8 -8 -8 -8 -8 -8 -9 -9 -8 -8 -8 -8 -7 -7
-10 -10 -9 -8 -9 -8 -7 -6 -6 -6 -5 -5 -4 -4 -3 -3 -3 -3 -3 -3 -3 -4 -5 -6 -6 -7 -7 -8 -8 -8 -8 -8 -8 -8 -8 -8 -8 -8 -8 -9 -8 -8 -8 -7 -6
-11 -10 -10 -9 -9 -9 -8 -7 -7 -6 -7 -6 -5 -4 -4 -3 -3 -3 -3 -3 -3 -4 -4 -5 -7 -8 -8 -9 -8 -8 -8 -8 -8 -8 -9 -8 -9 -8 -8 -8 -8 -8 -8 -7 -7
-11 -11 -10 -10 -9 -10 -9 -8 -7 -7 -7 -6 -6 -5 -5 -4 -4 -4 -3 -3 -4 -5 -7 -7 -8 -8 -9 -8 -8 -8 -8 -8 -8 -9 -9 -8 -8 -8 -8 -7 -7 -7 -7 -8 -7
-11 -11 -11 -11 -10 -10 -10 -9 -8 -8 -7 -7 -7 -6 -6 -5 -5 -4 -4 -3 -4 -5 -7 -8 -8 -9 -8 -8 -8 -8 -9 -9 -9 -9 -8 -8 -8 -8 -9 -8 -8 -8 -8 -8 -8
-11 -11 -11 -11 -10 -10 -11 -10 -9 -8 -8 -8 -7 -7 -7 -7 -6 -5 -5 -5 -5 -7 -8 -8 -8 -8 -9 -9 -9 -8 -9 -8 -8 -8 -8 -8 -8 -8 -8 -8 -8 -8 -8 -8 -8
-11 -11 -11 -11 -11 -11 -11 -11 -10 -9 -9 -8 -8 -8 -8 -7 -7 -7 -6 -6 -6 -7 -8 -8 -8 -9 -9 -9 -9 -9 -9 -9 -9 -9 -9 -8 -8 -8 -8 -8 -8 -8 -8 -8 -8
-11 -11 -12 -12 -11 -11 -11 -11 -10 -10 -9 -9 -8 -8 -8 -8 -8 -7 -7 -7 -7 -7 -7 -9 -9 -8 -8 -9 -9 -9 -9 -9 -9 -9 -9 -8 -9 -9 -8 -8 -8 -8 -7 -8 -8
-11 -11 -12 -12 -11 -11 -10 -10 -11 -11 -10 -9 -9 -8 -9 -9 -8 -8 -8 -8 -8 -7 -8 -9 -9 -9 -8 -9 -9 -9 -9 -9 -9 -9 -8 -8 -8 -9 -9 -8 -8 -8 -7 -7 -7
-12 -11 -11 -12 -11 -11 -11 -11 -11 -11 -11 -10 -9 -9 -9 -9 -8 -9 -9 -8 -8 -8 -8 -7 -8 -9 -9 -9 -9 -9 -9 -9 -9 -9 -9 -9 -9 -9 -9 -8 -8 -8 -8 -7 -7
-12 -12 -11 -12 -11 -11 -11 -10 -11 -11 -11 -10 -10 -9 -9 -9 -9 -9 -9 -9 -8 -8 -9 -8 -8 -9 -9 -9 -9 -9 -9 -9 -9 -9 -9 -9 -9 -10 -9 -8 -8 -8 -8 -8 -8
-12 -12 -12 -11 -11 -11 -11 -11 -11 -11 -11 -11 -10 -10 -9 -10 -9 -9 -9 -9 -9 -9 -9 -9 -9 -8 -8 -9 -9 -9 -9 -9 -9 -9 -9 -9 -10 -10 -9 -9 -8 -8 -8 -8 -8
-12 -12 -12 -11 -12 -12 -12 -11 -11 -11 -11 -11 -11 -10 -10 -10 -10 -10 -10 -9 -9 -9 -9 -9 -9 -9 -9 -9 -9 -9 -9 -10 -10 -9 -9 -9 -10 -9 -9 -8 -8 -8 -8 -8 -8
-12 -12 -12 -12 -12 -12 -12 -12 -11 -11 -11 -12 -11 -11 -10 -10 -10 -10 -10 -10 -10 -9 -9 -9 -9 -9 -9 -9 -9 -10 -10 -10 -10 -10 -10 -10 -10 -9 -9 -8 -8 -8 -8 -8 -8
-13 -12 -12 -12 -12 -12 -12 -12 -12 -12 -11 -12 -12 -11 -11 -11 -10 -10 -10 -10 -10 -10 -10 -9 -9 -9 -10 -9 -10 -10 -10 -9 -10 -10 -10 -10 -10 -10 -9 -8 -8 -8 -8 -8 -8

GFSSW_500_temp_003.txt.gz
Temp
-1 -0 -0 -0 -0 -0 -0 -1 -1 -1 -1 -1 -1 -1 -2 -2 -3 -3 -4 -4 -4 -5 -6 -6 -7 -7 -7 -7 -7 -7 -7 -6 -7 -7 -8 -9 -9 -8 -8 -7 -7 -8 -8 -8 -9
-2 -1 -0 -0 -0 -0 -0 -0 -0 -1 -1 -1 -1 -1 -2 -2 -2 -3 -3 -4 -4 -5 -6 -6 -7 -7 -8 -7 -8 -8 -7 -7 -7 -7 -8 -8 -8 -8 -6 -6 -7 -7 -7 -8 -8
-3 -2 -1 0 -0 -0 -0 -0 -0 -0 -1 -1 -1 -1 -1 -2 -2 -2 -3 -3 -4 -5 -5 -6 -6 -7 -8 -8 -8 -7 -7 -7 -8 -8 -8 -9 -9 -9 -7 -5 -6 -7 -7 -8 -8
-3 -3 -2 -1 -0 -0 -0 -0 -0 -0 -0 -1 -1 -1 -1 -2 -2 -2 -2 -3 -4 -5 -5 -5 -6 -7 -8 -8 -8 -8 -8 -8 -7 -8 -7 -9 -6 -6 -5 -5 -6 -6 -7 -7 -8
-3 -3 -3 -2 -1 -0 -0 -0 -0 -0 -1 -1 -1 -1 -1 -1 -2 -2 -2 -3 -4 -4 -5 -5 -6 -7 -8 -8 -8 -8 -8 -7 -8 -8 -8 -7 -5 -5 -5 -5 -6 -6 -6 -7 -7
-5 -3 -3 -3 -2 -1 -0 -0 -0 -0 -1 -1 -1 -1 -1 -1 -2 -2 -2 -2 -3 -4 -4 -5 -6 -8 -8 -8 -7 -8 -8 -8 -8 -6 -6 -6 -5 -5 -5 -5 -5 -6 -6 -6 -7
-6 -5 -4 -3 -3 -2 -1 -1 -1 -1 -1 -1 -1 -1 -1 -1 -2 -1 -2 -2 -3 -3 -4 -5 -5 -6 -8 -8 -8 -8 -8 -8 -8 -8 -7 -7 -6 -5 -5 -5 -5 -6 -6 -6 -6
-6 -6 -5 -4 -3 -3 -2 -1 -1 -1 -1 -1 -1 -1 -1 -2 -2 -2 -1 -2 -3 -3 -4 -5 -5 -5 -8 -8 -8 -8 -8 -8 -8 -7 -8 -8 -6 -5 -5 -5 -6 -6 -6 -6 -6
-7 -7 -6 -5 -4 -3 -3 -2 -2 -1 -1 -1 -1 -1 -1 -2 -2 -2 -2 -2 -3 -3 -4 -4 -5 -6 -7 -7 -8 -8 -7 -7 -7 -8 -6 -7 -6 -6 -6 -6 -6 -6 -6 -6 -6
-8 -8 -7 -6 -6 -4 -3 -3 -3 -2 -2 -1 -1 -1 -2 -2 -2 -2 -2 -2 -3 -3 -3 -4 -5 -6 -7 -8 -7 -7 -7 -7 -7 -8 -8 -7 -6 -7 -6 -6 -6 -7 -6 -6 -6
-8 -8 -8 -7 -6 -6 -5 -3 -4 -3 -2 -2 -1 -1 -1 -1 -2 -2 -2 -2 -2 -3 -4 -4 -4 -6 -8 -8 -7 -7 -7 -7 -7 -7 -8 -8 -7 -7 -7 -7 -7 -7 -7 -7 -6
-8 -8 -9 -8 -7 -6 -6 -5 -4 -4 -3 -2 -2 -2 -2 -2 -2 -2 -2 -2 -2 -3 -4 -4 -4 -7 -8 -8 -8 -7 -7 -7 -7 -8 -8 -7 -8 -6 -7 -7 -7 -7 -8 -7 -7
-9 -9 -9 -9 -8 -7 -7 -7 -5 -4 -4 -3 -3 -2 -2 -2 -2 -2 -2 -2 -3 -3 -3 -4 -5 -8 -8 -8 -8 -8 -7 -7 -7 -8 -8 -8 -8 -8 -6 -7 -8 -8 -7 -7 -7
-9 -9 -9 -9 -9 -8 -7 -8 -7 -6 -5 -4 -3 -3 -3 -3 -2 -2 -3 -3 -3 -3 -4 -5 -6 -5 -8 -7 -7 -8 -8 -7 -7 -8 -7 -8 -7 -7 -8 -8 -7 -8 -7 -7 -7
-9 -10 -9 -10 -9 -9 -8 -8 -8 -7 -7 -6 -5 -4 -4 -3 -3 -3 -3 -3 -3 -3 -4 -5 -7 -5 -6 -8 -8 -7 -7 -8 -8 -8 -8 -7 -7 -7 -7 -7 -7 -7 -7 -7 -7
-10 -10 -10 -10 -10 -10 -9 -8 -8 -8 -8 -8 -5 -5 -4 -4 -4 -4 -3 -3 -3 -4 -4 -7 -6 -6 -7 -8 -8 -8 -8 -8 -8 -8 -7 -7 -7 -7 -7 -8 -8 -7 -7 -7 -7
-10 -10 -11 -10 -10 -10 -10 -9 -9 -8 -9 -9 -6 -6 -5 -5 -4 -4 -4 -3 -3 -4 -4 -7 -8 -8 -8 -8 -8 -8 -8 -8 -7 -7 -7 -7 -7 -7 -8 -8 -8 -8 -7 -8 -8
-10 -10 -10 -11 -10 -11 -11 -10 -9 -9 -10 -9 -8 -7 -6 -6 -6 -4 -4 -4 -4 -6 -7 -8 -7 -8 -7 -8 -8 -8 -8 -7 -7 -6 -6 -7 -8 -8 -8 -8 -8 -8 -9 -8 -8
-11 -10 -11 -11 -11 -11 -11 -10 -9 -10 -10 -10 -10 -9 -7 -7 -8 -6 -5 -5 -5 -6 -7 -7 -7 -8 -8 -8 -8 -8 -8 -7 -7 -7 -7 -7 -7 -8 -8 -8 -8 -8 -8 -9 -7
-11 -11 -11 -11 -11 -11 -11 -10 -11 -11 -11 -11 -10 -9 -9 -9 -9 -8 -6 -6 -7 -8 -7 -7 -7 -7 -8 -8 -8 -8 -8 -8 -8 -7 -7 -7 -7 -7 -8 -8 -8 -8 -8 -8 -8
-12 -11 -11 -11 -11 -11 -11 -11 -10 -12 -11 -10 -10 -9 -9 -8 -9 -8 -8 -8 -8 -8 -8 -8 -7 -7 -8 -8 -8 -8 -8 -8 -7 -7 -7 -7 -7 -8 -9 -9 -9 -9 -8 -8 -7
-12 -12 -11 -11 -11 -11 -11 -11 -11 -12 -11 -10 -9 -10 -9 -9 -9 -9 -8 -8 -8 -8 -8 -8 -8 -8 -8 -8 -8 -8 -8 -8 -8 -8 -8 -8 -7 -9 -9 -9 -10 -9 -8 -8 -8
-12 -12 -12 -12 -11 -11 -12 -11 -12 -12 -12 -11 -10 -10 -10 -9 -9 -9 -8 -8 -8 -9 -8 -9 -8 -8 -8 -8 -8 -8 -8 -8 -8 -8 -8 -8 -8 -8 -8 -9 -9 -9 -9 -8 -8
-12 -12 -12 -12 -12 -11 -13 -11 -11 -11 -12 -12 -11 -11 -11 -10 -9 -9 -8 -8 -9 -9 -9 -9 -9 -9 -8 -8 -8 -9 -9 -8 -8 -8 -8 -8 -8 -9 -9 -9 -9 -9 -8 -8 -8
-13 -12 -12 -12 -13 -12 -12 -13 -11 -13 -12 -11 -11 -10 -10 -10 -9 -9 -9 -9 -9 -9 -9 -9 -9 -9 -8 -8 -8 -8 -8 -8 -8 -8 -8 -8 -8 -9 -9 -9 -9 -9 -9 -9 -8
-13 -12 -12 -12 -12 -12 -12 -12 -12 -13 -13 -12 -11 -11 -11 -10 -10 -9 -9 -9 -10 -9 -9 -9 -10 -9 -9 -8 -8 -8 -8 -8 -8 -8 -8 -8 -8 -9 -9 -9 -8 -9 -9 -8 -8
-15 -14 -13 -12 -12 -12 -13 -13 -12 -12 -12 -12 -12 -11 -11 -10 -10 -10 -10 -10 -9 -10 -9 -10 -10 -9 -9 -8 -8 -8 -8 -8 -8 -8 -9 -9 -9 -9 -9 -9 -9 -9 -8 -8 -8

GFSSW_500_temp_006.txt.gz
Temp
-2 -1 -0 -0 -0 -0 -0 -0 -1 -1 -1 -1 -1 -1 -2 -2 -3 -3 -4 -4 -5 -5 -6 -6 -7 -7 -6 -7 -7 -7 -6 -7 -6 -7 -7 -8 -6 -7 -5 -5 -5 -5 -5 -6 -7
-2 -2 -1 -0 -0 -0 -0 -0 -0 -1 -1 -1 -1 -1 -2 -2 -2 -3 -3 -4 -4 -5 -5 -6 -7 -7 -6 -7 -7 -7 -7 -7 -5 -7 -6 -6 -7 -7 -7 -5 -5 -6 -6 -6 -6
-2 -2 -1 -1 -0 -0 -0 -0 -0 -0 -1 -1 -1 -1 -1 -2 -2 -2 -3 -4 -4 -5 -5 -5 -6 -7 -7 -8 -7 -7 -7 -7 -6 -7 -7 -7 -6 -6 -6 -6 -6 -6 -6 -6 -6
-3 -2 -2 -1 -0 -0 -0 -0 -0 -0 -0 -1 -1 -1 -1 -1 -2 -2 -2 -4 -4 -4 -4 -5 -6 -6 -8 -7 -7 -7 -7 -7 -6 -7 -6 -7 -7 -5 -6 -5 -6 -6 -6 -6 -6
-4 -4 -3 -2 -2 -0 -0 -0 -0 -0 -0 -1 -1 -1 -1 -1 -1 -2 -2 -3 -4 -4 -5 -5 -6 -6 -7 -7 -7 -7 -7 -7 -6 -7 -7 -5 -5 -5 -6 -5 -6 -5 -5 -5 -6
-5 -4 -4 -3 -2 -2 -1 -0 -0 -0 -0 -0 -1 -1 -1 -1 -2 -2 -2 -2 -4 -4 -4 -4 -5 -7 -7 -7 -7 -7 -7 -8 -7 -6 -6 -5 -5 -5 -5 -5 -5 -5 -5 -6 -6
-5 -5 -5 -4 -3 -2 -2 -1 -1 -1 -0 -0 -1 -1 -1 -1 -1 -2 -2 -2 -3 -4 -4 -5 -4 -8 -7 -7 -7 -7 -8 -8 -8 -8 -6 -5 -5 -5 -5 -5 -5 -5 -5 -5 -6
-6 -5 -5 -5 -4 -3 -2 -2 -1 -1 -1 -1 -1 -1 -1 -1 -1 -2 -2 -2 -2 -4 -4 -5 -4 -6 -7 -7 -8 -8 -7 -8 -8 -6 -7 -7 -5 -5 -5 -5 -5 -5 -5 -6 -6
-6 -6 -5 -5 -5 -4 -4 -2 -1 -1 -1 -1 -1 -1 -1 -1 -2 -2 -2 -2 -3 -3 -4 -3 -5 -4 -7 -7 -7 -7 -7 -6 -7 -6 -6 -6 -6 -5 -5 -5 -5 -5 -6 -6 -6
-7 -6 -6 -6 -6 -5 -4 -4 -2 -1 -1 -1 -1 -1 -1 -2 -2 -2 -2 -2 -3 -3 -4 -4 -4 -5 -7 -7 -7 -6 -6 -7 -6 -6 -6 -5 -6 -6 -5 -5 -5 -5 -6 -6 -6
-7 -7 -6 -6 -6 -6 -5 -5 -4 -2 -1 -1 -1 -1 -1 -1 -2 -2 -2 -2 -2 -3 -3 -4 -4 -4 -7 -7 -7 -6 -6 -6 -6 -7 -6 -6 -6 -5 -6 -6 -5 -5 -5 -6 -6
-8 -8 -7 -7 -7 -7 -6 -6 -5 -4 -3 -2 -1 -2 -1 -1 -2 -2 -2 -2 -2 -2 -3 -4 -4 -5 -7 -7 -7 -6 -6 -6 -7 -7 -6 -6 -6 -6 -6 -6 -5 -6 -6 -6 -6
-9 -8 -8 -7 -7 -7 -7 -7 -6 -5 -4 -3 -2 -2 -2 -2 -2 -2 -2 -2 -2 -3 -3 -3 -4 -6 -7 -7 -7 -6 -6 -6 -6 -7 -7 -7 -7 -6 -8 -7 -6 -6 -6 -6 -6
-9 -9 -9 -8 -7 -8 -8 -8 -7 -6 -4 -4 -3 -3 -2 -2 -2 -2 -2 -2 -2 -2 -3 -4 -5 -7 -7 -7 -7 -7 -7 -6 -6 -7 -7 -7 -6 -7 -6 -6 -6 -7 -6 -6 -6
-10 -10 -9 -9 -8 -8 -8 -9 -8 -7 -6 -6 -5 -4 -4 -3 -3 -2 -3 -3 -3 -2 -4 -4 -7 -7 -7 -7 -7 -7 -7 -7 -6 -7 -7 -7 -7 -7 -6 -6 -7 -6 -6 -6 -6
-10 -10 -10 -9 -9 -9 -9 -9 -9 -8 -7 -8 -6 -5 -4 -4 -3 -3 -3 -3 -3 -4 -4 -6 -6 -7 -7 -7 -7 -7 -7 -7 -7 -7 -7 -6 -7 -7 -7 -7 -7 -8 -7 -7 -6
-10 -10 -10 -10 -10 -9 -10 -10 -9 -8 -8 -8 -9 -7 -6 -5 -5 -4 -3 -3 -3 -3 -4 -5 -7 -7 -7 -7 -7 -7 -7 -7 -7 -7 -6 -6 -7 -6 -7 -6 -7 -7 -6 -8 -7
-10 -10 -10 -11 -10 -10 -10 -10 -9 -8 -8 -9 -9 -9 -7 -6 -6 -5 -4 -4 -3 -3 -5 -6 -7 -7 -7 -7 -7 -7 -7 -7 -6 -6 -6 -6 -7 -6 -7 -8 -8 -7 -7 -8 -7
-11 -10 -11 -11 -11 -11 -10 -10 -9 -9 -8 -9 -8 -9 -9 -9 -7 -8 -5 -4 -4 -3 -7 -7 -7 -7 -7 -7 -7 -7 -7 -7 -6 -6 -5 -6 -7 -7 -6 -7 -7 -8 -7 -8 -7
-11 -11 -11 -11 -11 -11 -11 -10 -10 -9 -10 -10 -9 -8 -8 -9 -8 -9 -7 -5 -5 -5 -7 -7 -7 -7 -7 -7 -7 -7 -7 -7 -7 -6 -6 -5 -6 -6 -7 -7 -7 -7 -7 -8 -8
-12 -11 -12 -11 -11 -10 -10 -10 -10 -10 -11 -11 -10 -9 -8 -8 -8 -8 -8 -6 -5 -5 -7 -6 -6 -6 -7 -7 -7 -7 -7 -7 -7 -6 -6 -6 -6 -7 -8 -8 -8 -8 -7 -8 -8
-12 -12 -12 -12 -11 -11 -10 -10 -11 -11 -11 -11 -10 -10 -9 -8 -8 -8 -8 -8 -7 -7 -7 -7 -7 -6 -7 -7 -7 -7 -7 -7 -7 -7 -7 -7 -7 -8 -7 -7 -7 -7 -8 -7 -8
-13 -13 -12 -12 -12 -11 -11 -11 -11 -12 -12 -11 -10 -9 -9 -9 -8 -8 -8 -8 -8 -8 -8 -7 -7 -7 -7 -7 -7 -7 -7 -7 -7 -7 -7 -7 -7 -7 -7 -8 -8 -8 -8 -9 -8
-13 -14 -13 -12 -12 -12 -12 -12 -11 -12 -12 -11 -11 -10 -10 -10 -9 -8 -8 -8 -8 -8 -8 -8 -7 -8 -7 -7 -7 -7 -8 -7 -7 -7 -7 -8 -7 -8 -8 -9 -8 -8 -7 -8 -8
-14 -15 -14 -12 -13 -13 -12 -13 -13 -13 -12 -12 -11 -11 -11 -10 -9 -9 -8 -8 -8 -7 -8 -8 -8 -8 -8 -7 -7 -7 -8 -8 -7 -7 -8 -7 -7 -8 -8 -8 -8 -7 -8 -8 -8
-14 -14 -13 -13 -12 -12 -13 -13 -11 -12 -12 -12 -11 -12 -11 -10 -10 -9 -8 -8 -8 -8 -8 -8 -8 -9 -8 -8 -8 -7 -7 -8 -8 -8 -7 -7 -8 -8 -9 -9 -8 -7 -8 -8 -8
-15 -14 -15 -15 -13 -13 -13 -14 -12 -11 -12 -12 -12 -12 -11 -11 -10 -9 -9 -9 -8 -9 -8 -8 -8 -9 -9 -9 -8 -8 -7 -7 -7 -8 -8 -8 -8 -8 -8 -8 -7 -7 -7 -7 -8

GFSSW_500_temp_009.txt.gz
Temp
-2 -1 -1 -0 -0 -0 -0 -0 -1 -0 -1 -1 -1 -2 -2 -2 -3 -3 -4 -4 -4 -5 -5 -7 -7 -8 -6 -6 -6 -6 -7 -7 -7 -7 -6 -5 -4 -4 -5 -5 -5 -5 -5 -6 -6
-2 -2 -1 -0 -1 -0 -0 -0 -0 -0 -0 -1 -1 -1 -2 -2 -2 -3 -3 -3 -4 -5 -4 -6 -7 -7 -7 -7 -6 -6 -8 -7 -6 -7 -6 -6 -5 -5 -5 -5 -5 -5 -5 -5 -6
-2 -2 -2 -1 -0 -0 -0 -0 -0 -0 -0 -0 -1 -1 -1 -1 -2 -2 -3 -3 -4 -4 -4 -5 -6 -6 -7 -7 -8 -7 -7 -6 -7 -6 -7 -5 -4 -5 -4 -5 -5 -5 -6 -5 -6
-3 -2 -2 -2 -1 -0 -0 -0 -0 -0 -0 -0 -1 -1 -1 -1 -2 -2 -2 -3 -4 -4 -4 -5 -6 -6 -7 -8 -8 -7 -7 -7 -6 -6 -6 -5 -6 -5 -5 -5 -5 -5 -6 -6 -6
-4 -3 -3 -2 -2 -1 -1 -0 -0 -0 -0 0 -0 -1 -1 -1 -1 -1 -2 -2 -3 -4 -4 -5 -6 -5 -7 -7 -7 -8 -7 -8 -7 -6 -5 -6 -5 -5 -5 -5 -5 -5 -6 -6 -6
-4 -4 -4 -3 -2 -2 -1 -1 -0 -0 -0 -0 -0 -0 -1 -1 -2 -2 -2 -2 -3 -4 -4 -5 -6 -5 -7 -7 -7 -7 -7 -7 -7 -7 -5 -5 -5 -5 -5 -5 -5 -5 -6 -6 -6
-4 -4 -4 -4 -3 -2 -2 -1 -1 -0 -0 -0 -0 -0 -1 -1 -1 -2 -2 -2 -3 -3 -4 -5 -5 -4 -7 -7 -7 -7 -7 -7 -7 -6 -5 -5 -5 -5 -5 -5 -5 -5 -6 -6 -6
-5 -5 -5 -4 -4 -3 -2 -3 -1 -1 -1 -0 -0 -0 -0 -1 -1 -2 -2 -2 -2 -3 -4 -5 -6 -4 -6 -8 -7 -7 -7 -7 -6 -6 -6 -5 -5 -4 -5 -5 -5 -5 -6 -6 -6
-5 -5 -5 -5 -5 -4 -4 -3 -3 -2 -1 -1 -0 -1 -1 -1 -2 -2 -2 -2 -3 -3 -3 -4 -5 -4 -5 -7 -7 -7 -7 -7 -7 -6 -6 -6 -6 -5 -5 -5 -5 -5 -5 -6 -6
-6 -6 -6 -6 -6 -5 -4 -4 -4 -3 -1 -1 -1 -1 -1 -1 -1 -2 -2 -2 -2 -3 -3 -3 -4 -5 -4 -6 -6 -6 -7 -7 -7 -7 -6 -6 -5 -6 -6 -5 -5 -5 -5 -5 -6
-7 -7 -6 -6 -6 -6 -6 -5 -4 -3 -3 -1 -1 -1 -1 -1 -2 -2 -2 -2 -2 -3 -3 -3 -4 -3 -4 -4 -6 -7 -7 -6 -7 -6 -6 -6 -5 -6 -6 -6 -5 -6 -5 -5 -5
-7 -7 -7 -7 -7 -7 -7 -6 -5 -4 -3 -3 -2 -1 -1 -1 -1 -2 -2 -2 -2 -2 -3 -3 -3 -4 -5 -6 -6 -7 -7 -7 -6 -6 -7 -7 -7 -6 -6 -5 -6 -6 -6 -6 -5
-7 -7 -7 -7 -7 -8 -8 -6 -5 -4 -2 -4 -2 -2 -1 -1 -1 -2 -2 -2 -2 -2 -3 -2 -3 -5 -5 -7 -7 -6 -7 -6 -6 -7 -6 -7 -7 -6 -6 -6 -6 -6 -7 -6 -6
-7 -8 -8 -8 -8 -8 -8 -7 -7 -6 -4 -5 -3 -3 -2 -2 -1 -2 -2 -2 -2 -2 -3 -3 -4 -5 -5 -7 -7 -6 -6 -6 -6 -7 -6 -7 -7 -6 -7 -7 -7 -6 -6 -7 -6
-7 -9 -9 -8 -9 -9 -8 -8 -7 -6 -5 -6 -5 -5 -4 -3 -2 -2 -3 -3 -2 -2 -3 -3 -4 -5 -5 -7 -7 -7 -7 -7 -6 -7 -7 -7 -7 -7 -7 -6 -7 -8 -7 -6 -5
-8 -9 -10 -9 -10 -9 -9 -9 -8 -7 -7 -7 -6 -5 -5 -4 -4 -3 -3 -3 -3 -3 -3 -4 -5 -5 -5 -7 -7 -7 -7 -7 -6 -6 -6 -6 -7 -7 -7 -6 -7 -7 -6 -7 -6
-9 -9 -10 -10 -10 -9 -10 -9 -8 -6 -8 -9 -8 -7 -6 -5 -5 -4 -3 -4 -3 -3 -3 -4 -4 -5 -7 -8 -7 -7 -7 -7 -7 -7 -5 -6 -6 -7 -7 -7 -7 -7 -6 -6 -6
-9 -9 -10 -11 -11 -10 -10 -10 -8 -7 -9 -9 -9 -9 -8 -7 -6 -6 -4 -4 -4 -3 -3 -4 -4 -4 -7 -7 -7 -7 -7 -7 -7 -6 -6 -7 -6 -6 -7 -7 -7 -6 -7 -7 -7
-9 -10 -10 -11 -11 -10 -10 -10 -8 -8 -9 -9 -9 -9 -9 -9 -7 -7 -6 -5 -5 -4 -3 -5 -5 -6 -7 -7 -7 -7 -7 -6 -7 -7 -8 -6 -6 -6 -6 -6 -7 -7 -7 -7 -7
-10 -10 -11 -11 -11 -11 -10 -9 -9 -9 -9 -9 -9 -10 -10 -9 -9 -8 -7 -5 -5 -6 -5 -5 -7 -6 -7 -7 -7 -7 -7 -7 -7 -7 -7 -6 -6 -6 -6 -7 -7 -7 -7 -7 -7
-10 -11 -11 -11 -11 -11 -10 -9 -10 -10 -9 -10 -9 -10 -10 -9 -8 -9 -8 -7 -6 -6 -6 -7 -7 -7 -7 -7 -7 -7 -7 -7 -7 -7 -7 -6 -6 -7 -6 -8 -7 -7 -7 -7 -7
-11 -12 -12 -12 -12 -11 -10 -10 -11 -10 -10 -10 -10 -10 -10 -9 -9 -8 -9 -8 -8 -6 -6 -6 -7 -7 -7 -7 -7 -6 -7 -7 -7 -7 -7 -7 -7 -7 -7 -7 -7 -7 -7 -7 -7
-12 -13 -12 -12 -12 -11 -11 -11 -11 -11 -11 -11 -10 -10 -10 -9 -9 -9 -8 -8 -8 -7 -6 -7 -7 -7 -8 -7 -7 -7 -7 -7 -7 -7 -7 -7 -7 -7 -8 -8 -8 -8 -8 -8 -8
-13 -13 -13 -12 -12 -13 -12 -11 -11 -11 -11 -11 -10 -11 -10 -9 -9 -9 -8 -8 -8 -8 -7 -7 -7 -7 -7 -7 -7 -7 -7 -7 -7 -7 -6 -7 -7 -8 -8 -7 -8 -7 -9 -7 -7
-13 -14 -13 -12 -12 -12 -12 -12 -11 -11 -11 -11 -10 -11 -11 -10 -9 -9 -8 -8 -8 -8 -8 -7 -8 -7 -7 -7 -7 -7 -7 -7 -7 -7 -7 -7 -7 -8 -8 -8 -7 -7 -8 -8 -8
-14 -14 -13 -14 -14 -14 -13 -12 -12 -11 -12 -11 -12 -11 -11 -10 -11 -10 -8 -8 -8 -8 -8 -7 -8 -8 -7 -7 -8 -8 -8 -8 -9 -8 -7 -7 -7 -7 -7 -8 -8 -7 -8 -7 -8
-15 -15 -14 -15 -15 -15 -14 -13 -13 -13 -11 -12 -12 -12 -12 -11 -11 -9 -9 -8 -8 -8 -8 -8 -8 -8 -8 -7 -7 -8 -8 -8 -8 -7 -8 -8 -8 -8 -8 -8 -8 -7 -7 -8 -8

GFSSW_500_temp_012.txt.gz
Temp
-2 -1 -1 -1 -1 -1 -1 -1 -0 -1 -1 -1 -2 -2 -2 -2 -3 -4 -4 -5 -5 -6 -6 -7 -7 -7 -7 -7 -7 -7 -7 -7 -7 -6 -5 -6 -6 -5 -5 -5 -5 -6 -6 -6 -6
-2 -2 -1 -0 -0 -0 -1 -1 -0 -0 -0 -1 -1 -2 -2 -2 -2 -3 -3 -4 -4 -5 -6 -6 -7 -6 -6 -7 -7 -7 -7 -7 -7 -6 -5 -6 -6 -6 -5 -5 -5 -5 -5 -6 -6
-3 -2 -2 -1 -0 -0 0 -0 -0 -0 -0 -0 -1 -1 -2 -2 -2 -3 -4 -4 -4 -5 -5 -5 -6 -7 -8 -7 -7 -7 -6 -7 -7 -6 -6 -6 -5 -5 -6 -5 -5 -5 -5 -6 -7
-3 -3 -3 -2 -1 -1 0 0 -0 -0 0 -0 -0 -1 -2 -2 -2 -2 -3 -3 -3 -4 -5 -6 -6 -7 -8 -8 -6 -7 -6 -6 -7 -6 -7 -7 -6 -4 -5 -5 -5 -5 -5 -6 -6
-3 -3 -3 -3 -2 -1 -1 -0 0 -0 0 0 -0 -1 -1 -2 -1 -2 -2 -3 -3 -5 -5 -7 -6 -8 -8 -8 -7 -7 -6 -7 -7 -7 -7 -7 -6 -5 -5 -5 -5 -5 -5 -6 -6
-4 -4 -3 -3 -3 -2 -1 -1 -0 0 -0 0 -0 -0 -1 -1 -2 -1 -2 -3 -4 -5 -6 -6 -6 -7 -8 -8 -6 -8 -7 -8 -7 -7 -7 -6 -6 -5 -5 -5 -5 -5 -5 -6 -6
-4 -4 -4 -3 -3 -3 -3 -1 -1 -0 -0 -0 0 -0 -1 -1 -1 -2 -2 -2 -4 -4 -5 -7 -6 -7 -8 -7 -8 -8 -7 -6 -6 -7 -7 -6 -6 -5 -5 -5 -5 -5 -6 -6 -6
-5 -5 -4 -4 -4 -3 -3 -3 -1 -1 -1 -0 -0 -0 -0 -1 -1 -2 -2 -2 -3 -4 -5 -6 -6 -6 -7 -7 -8 -8 -7 -6 -6 -6 -6 -6 -6 -5 -5 -5 -5 -5 -6 -6 -6
-5 -5 -5 -5 -4 -4 -4 -3 -2 -2 -1 -1 -1 -0 -0 -1 -2 -2 -2 -3 -3 -4 -4 -5 -5 -6 -6 -6 -7 -8 -7 -6 -6 -7 -7 -6 -6 -6 -5 -5 -5 -6 -6 -6 -6
-5 -5 -5 -5 -5 -5 -5 -4 -3 -2 -1 -2 -1 -1 -1 -1 -1 -2 -2 -3 -3 -4 -4 -4 -5 -5 -6 -4 -5 -7 -7 -6 -6 -7 -7 -6 -6 -6 -6 -6 -6 -6 -6 -5 -5
-5 -6 -6 -5 -6 -6 -5 -5 -4 -3 -1 -2 -2 -2 -1 -1 -1 -1 -2 -3 -3 -3 -3 -3 -4 -4 -5 -4 -6 -7 -7 -6 -7 -7 -6 -6 -7 -5 -6 -5 -5 -5 -6 -6 -5
-6 -6 -6 -6 -6 -6 -6 -5 -4 -3 -3 -3 -3 -2 -2 -1 -1 -1 -1 -2 -2 -2 -3 -3 -3 -4 -5 -6 -7 -7 -8 -7 -7 -7 -7 -7 -6 -5 -6 -5 -5 -6 -6 -6 -6
-6 -6 -6 -6 -7 -7 -7 -6 -6 -4 -3 -5 -3 -3 -3 -2 -2 -1 -1 -2 -2 -2 -2 -2 -3 -5 -6 -6 -7 -8 -8 -8 -7 -7 -7 -7 -6 -6 -6 -6 -6 -7 -6 -5 -6
-6 -6 -7 -7 -7 -8 -7 -7 -7 -5 -4 -5 -3 -4 -3 -3 -2 -2 -2 -2 -2 -2 -2 -2 -5 -5 -6 -6 -6 -8 -7 -7 -7 -7 -7 -7 -7 -7 -6 -6 -6 -7 -6 -6 -6
-7 -7 -7 -7 -8 -8 -8 -8 -8 -7 -5 -5 -5 -5 -4 -3 -4 -3 -3 -2 -2 -2 -2 -2 -4 -4 -5 -5 -6 -7 -7 -7 -7 -7 -7 -7 -7 -7 -7 -6 -6 -7 -6 -6 -7
-7 -7 -7 -7 -9 -8 -9 -9 -9 -7 -6 -7 -6 -6 -5 -4 -4 -5 -4 -3 -3 -3 -3 -3 -5 -5 -5 -6 -6 -7 -7 -7 -7 -7 -7 -7 -7 -7 -7 -6 -7 -7 -6 -6 -6
-8 -7 -8 -8 -9 -8 -9 -9 -9 -8 -8 -9 -9 -9 -8 -7 -5 -5 -5 -3 -3 -3 -3 -4 -4 -5 -5 -6 -6 -7 -7 -7 -7 -7 -7 -7 -7 -6 -7 -6 -7 -7 -6 -6 -6
-9 -8 -8 -9 -8 -8 -10 -10 -9 -8 -9 -10 -9 -9 -9 -9 -8 -6 -5 -5 -4 -4 -4 -4 -4 -5 -5 -6 -6 -7 -7 -7 -7 -7 -6 -6 -7 -6 -7 -6 -7 -7 -6 -6 -6
-9 -9 -9 -9 -9 -9 -9 -9 -8 -9 -9 -10 -10 -9 -10 -10 -10 -9 -7 -5 -4 -4 -4 -4 -4 -5 -5 -6 -6 -7 -7 -7 -7 -6 -6 -7 -7 -6 -6 -6 -6 -6 -6 -7 -7
-10 -10 -10 -9 -9 -9 -9 -9 -9 -10 -10 -11 -10 -11 -11 -11 -11 -11 -9 -7 -6 -5 -5 -5 -4 -5 -6 -7 -7 -7 -7 -7 -7 -7 -7 -6 -7 -7 -7 -7 -7 -7 -7 -7 -6
-10 -10 -10 -10 -10 -9 -9 -9 -10 -10 -10 -10 -10 -11 -11 -11 -11 -11 -10 -9 -7 -6 -6 -7 -5 -6 -7 -8 -7 -7 -7 -7 -7 -7 -7 -7 -7 -7 -7 -7 -7 -7 -7 -7 -7
-11 -12 -11 -10 -10 -10 -10 -10 -11 -11 -11 -11 -10 -10 -11 -10 -11 -10 -10 -9 -8 -8 -7 -6 -7 -7 -6 -7 -7 -7 -7 -8 -8 -7 -7 -7 -7 -7 -7 -7 -7 -8 -7 -7 -8
-12 -13 -11 -12 -11 -11 -12 -11 -11 -11 -10 -10 -11 -11 -11 -10 -10 -10 -10 -10 -9 -8 -8 -8 -8 -7 -7 -7 -7 -7 -7 -7 -7 -7 -7 -7 -7 -7 -7 -7 -7 -7 -8 -7 -7
-14 -14 -12 -11 -12 -12 -11 -11 -11 -11 -11 -11 -11 -11 -11 -10 -11 -10 -10 -10 -9 -9 -8 -8 -8 -7 -6 -6 -7 -7 -7 -7 -7 -7 -7 -7 -7 -7 -7 -7 -7 -7 -7 -7 -7
-14 -14 -14 -13 -13 -13 -12 -12 -12 -11 -11 -12 -10 -11 -11 -11 -10 -9 -10 -9 -9 -9 -8 -8 -8 -7 -7 -7 -7 -7 -7 -7 -7 -7 -7 -7 -7 -7 -7 -7 -7 -7 -8 -8 -8
-15 -15 -15 -15 -14 -13 -13 -13 -12 -12 -11 -12 -11 -11 -11 -11 -11 -10 -10 -9 -9 -9 -8 -8 -8 -7 -7 -8 -8 -8 -7 -7 -7 -7 -8 -8 -7 -7 -7 -8 -8 -8 -8 -8 -7
-16 -15 -16 -15 -15 -14 -14 -13 -13 -12 -12 -12 -12 -10 -10 -10 -11 -10 -10 -9 -9 -9 -8 -8 -8 -8 -7 -8 -8 -8 -8 -8 -8 -8 -8 -8 -8 -8 -8 -8 -8 -8 -8 -8 -8

GFSSW_500_temp_015.txt.gz
Temp
-2 -1 -1 -1 -1 -1 -1 -1 -1 -1 -1 -1 -2 -2 -2 -3 -4 -4 -5 -5 -6 -6 -7 -8 -7 -8 -7 -6 -7 -7 -6 -6 -7 -7 -7 -7 -7 -7 -7 -6 -6 -6 -6 -7 -6
-3 -2 -2 -1 -1 -1 -1 -1 -1 -1 -1 -1 -1 -2 -2 -2 -3 -4 -3 -4 -5 -5 -6 -7 -7 -7 -6 -7 -7 -6 -6 -6 -6 -7 -7 -6 -7 -7 -6 -6 -6 -6 -6 -6 -7
-3 -2 -2 -2 -1 -1 -0 -0 -0 -0 -1 -1 -1 -2 -2 -2 -3 -3 -4 -4 -5 -6 -6 -6 -7 -7 -7 -7 -6 -7 -6 -6 -7 -7 -7 -7 -7 -7 -6 -6 -6 -6 -6 -6 -7
-3 -3 -3 -2 -2 -1 -1 -0 -0 -0 -0 -0 -1 -1 -2 -2 -2 -2 -3 -4 -4 -5 -5 -6 -7 -6 -6 -6 -7 -7 -7 -6 -7 -7 -7 -6 -6 -6 -6 -6 -6 -6 -6 -6 -7
-3 -3 -3 -3 -2 -2 -2 -1 -0 -0 0 -0 -0 -1 -2 -2 -2 -2 -2 -3 -3 -5 -6 -6 -6 -5 -7 -6 -7 -7 -8 -6 -7 -6 -6 -6 -6 -6 -5 -6 -6 -6 -6 -7 -7
-4 -4 -3 -3 -3 -3 -2 -2 -1 -1 -0 -0 0 -1 -1 -1 -2 -1 -2 -3 -4 -4 -6 -7 -6 -7 -8 -5 -7 -6 -6 -7 -8 -7 -6 -6 -6 -6 -5 -5 -5 -6 -6 -6 -6
-4 -4 -4 -4 -4 -3 -3 -3 -2 -1 -1 -0 -0 -0 -1 -1 -2 -2 -2 -3 -4 -5 -6 -7 -6 -7 -7 -7 -6 -6 -6 -7 -8 -8 -8 -8 -7 -5 -5 -6 -6 -6 -6 -6 -6
-4 -4 -4 -4 -4 -4 -3 -3 -3 -2 -1 -1 -1 -0 -1 -1 -2 -2 -2 -3 -4 -4 -5 -6 -6 -7 -7 -6 -5 -4 -6 -7 -7 -8 -8 -7 -7 -6 -5 -5 -6 -6 -5 -5 -6
-4 -5 -5 -5 -5 -5 -4 -3 -3 -3 -2 -2 -2 -1 -1 -2 -2 -2 -2 -4 -4 -5 -5 -5 -6 -7 -7 -6 -4 -4 -6 -6 -7 -8 -7 -7 -7 -6 -6 -5 -5 -5 -5 -5 -5
-4 -4 -5 -5 -5 -5 -5 -4 -3 -3 -3 -3 -2 -2 -1 -2 -1 -2 -2 -3 -4 -5 -5 -4 -6 -6 -7 -5 -4 -3 -5 -6 -7 -6 -7 -7 -7 -7 -6 -6 -6 -5 -5 -6 -5
-4 -5 -5 -5 -5 -6 -5 -4 -4 -4 -3 -4 -3 -3 -2 -2 -2 -2 -2 -2 -4 -4 -4 -4 -4 -4 -5 -6 -6 -6 -5 -6 -7 -7 -7 -7 -7 -7 -6 -6 -7 -6 -6 -6 -6
-4 -5 -5 -5 -6 -6 -6 -5 -5 -4 -4 -4 -4 -3 -3 -2 -3 -2 -2 -2 -2 -3 -3 -4 -3 -4 -6 -7 -7 -6 -5 -7 -8 -8 -8 -8 -7 -7 -7 -7 -7 -7 -7 -6 -6
-5 -5 -5 -6 -6 -6 -6 -6 -6 -5 -4 -6 -4 -4 -4 -2 -3 -3 -3 -2 -1 -2 -3 -2 -4 -5 -5 -6 -7 -6 -6 -7 -7 -8 -8 -8 -7 -7 -7 -7 -7 -7 -7 -6 -6
-5 -5 -5 -6 -6 -6 -6 -6 -6 -6 -5 -5 -5 -4 -4 -3 -3 -4 -4 -3 -2 -2 -3 -3 -5 -6 -6 -6 -7 -7 -7 -7 -8 -8 -7 -7 -7 -7 -7 -6 -6 -7 -6 -7 -6
-6 -5 -6 -6 -7 -6 -7 -7 -7 -7 -6 -6 -6 -5 -5 -3 -5 -3 -4 -4 -3 -2 -3 -2 -4 -5 -5 -6 -7 -7 -8 -8 -8 -8 -8 -7 -7 -7 -7 -6 -7 -6 -7 -7 -7
-6 -6 -6 -6 -7 -6 -7 -7 -7 -7 -6 -8 -8 -7 -6 -5 -5 -5 -5 -5 -5 -4 -3 -3 -4 -6 -5 -6 -7 -7 -8 -8 -8 -8 -8 -7 -7 -7 -6 -6 -6 -7 -7 -7 -7
-7 -7 -7 -7 -7 -7 -7 -8 -7 -6 -8 -9 -9 -8 -7 -7 -6 -6 -5 -5 -5 -5 -3 -4 -4 -6 -6 -6 -7 -7 -8 -8 -8 -7 -7 -7 -7 -5 -6 -7 -7 -6 -7 -7 -7
-7 -7 -7 -8 -7 -7 -8 -8 -7 -7 -9 -10 -10 -9 -9 -7 -9 -8 -7 -6 -6 -5 -4 -3 -4 -6 -6 -6 -7 -7 -8 -8 -8 -8 -8 -7 -7 -4 -7 -7 -7 -7 -7 -7 -7
-8 -8 -8 -8 -8 -8 -8 -8 -7 -8 -9 -10 -10 -10 -9 -9 -9 -10 -9 -8 -7 -6 -5 -4 -4 -6 -7 -6 -7 -8 -7 -7 -8 -8 -8 -8 -7 -6 -7 -7 -7 -7 -7 -6 -7
-9 -9 -8 -8 -9 -9 -8 -8 -8 -9 -10 -10 -11 -10 -10 -11 -11 -11 -11 -9 -8 -8 -6 -5 -4 -5 -6 -8 -7 -8 -7 -7 -7 -7 -7 -6 -7 -7 -7 -7 -7 -7 -7 -7 -7
-10 -10 -10 -9 -10 -9 -8 -8 -9 -9 -10 -11 -11 -10 -10 -11 -11 -11 -10 -10 -9 -9 -9 -7 -5 -6 -6 -6 -7 -8 -8 -7 -7 -7 -7 -6 -6 -6 -7 -6 -7 -7 -7 -7 -7
-11 -11 -11 -10 -10 -10 -9 -10 -10 -10 -11 -11 -11 -11 -11 -11 -11 -12 -10 -10 -10 -10 -10 -9 -7 -7 -6 -6 -7 -7 -7 -7 -8 -7 -7 -7 -6 -6 -7 -7 -7 -7 -7 -7 -6
-12 -13 -12 -11 -11 -11 -11 -10 -10 -10 -10 -11 -10 -11 -11 -11 -11 -11 -12 -10 -11 -11 -10 -10 -8 -7 -8 -7 -7 -7 -7 -7 -7 -8 -7 -7 -6 -6 -7 -7 -7 -7 -7 -7 -7
-14 -14 -13 -12 -12 -12 -11 -11 -11 -10 -10 -11 -11 -11 -11 -11 -11 -10 -11 -10 -10 -10 -10 -10 -9 -8 -6 -6 -7 -7 -7 -7 -8 -7 -7 -7 -7 -7 -7 -7 -7 -7 -6 -7 -7
-15 -15 -14 -13 -13 -13 -12 -12 -12 -11 -10 -11 -11 -11 -11 -11 -10 -10 -10 -10 -10 -10 -10 -10 -10 -9 -7 -7 -8 -7 -7 -8 -8 -7 -7 -7 -7 -7 -7 -7 -7 -7 -7 -7 -6
-16 -16 -16 -15 -14 -14 -13 -13 -12 -12 -11 -12 -12 -11 -11 -11 -10 -10 -11 -10 -10 -11 -10 -10 -9 -9 -8 -8 -8 -8 -8 -8 -8 -8 -8 -8 -8 -8 -7 -8 -8 -8 -8 -7 -7
-18 -17 -17 -16 -16 -15 -14 -13 -13 -13 -13 -13 -12 -12 -12 -11 -10 -10 -10 -10 -10 -10 -10 -9 -9 -9 -9 -8 -8 -8 -8 -8 -8 -7 -7 -8 -8 -8 -8 -8 -8 -8 -8 -8 -8

GFSSW_500_temp_018.txt.gz
Temp
-3 -3 -2 -2 -1 -1 -1 -1 -1 -1 -1 -2 -2 -2 -2 -3 -4 -4 -5 -5 -6 -6 -6 -7 -7 -8 -7 -7 -7 -7 -7 -7 -7 -7 -7 -7 -6 -6 -6 -6 -6 -6 -5 -7 -7
-3 -3 -3 -2 -2 -1 -1 -1 -1 -1 -1 -1 -1 -2 -2 -3 -3 -4 -3 -4 -4 -6 -6 -6 -7 -7 -7 -7 -7 -6 -7 -7 -6 -7 -7 -7 -6 -7 -6 -6 -6 -6 -6 -7 -7
-3 -3 -3 -3 -3 -2 -2 -1 -1 -1 -1 -1 -1 -1 -2 -2 -3 -3 -4 -4 -4 -5 -5 -6 -7 -7 -7 -7 -8 -7 -7 -7 -6 -6 -7 -7 -6 -6 -7 -6 -6 -6 -7 -7 -7
-3 -3 -3 -3 -3 -3 -2 -2 -1 -1 -1 -1 -1 -1 -2 -2 -2 -2 -3 -4 -4 -4 -5 -6 -6 -6 -7 -7 -8 -8 -8 -7 -6 -7 -6 -6 -6 -6 -6 -6 -6 -6 -6 -7 -7
-3 -3 -3 -4 -3 -3 -3 -2 -2 -1 -1 -1 -1 -1 -1 -2 -2 -2 -3 -3 -4 -5 -5 -6 -6 -6 -7 -7 -7 -8 -8 -7 -6 -6 -6 -6 -6 -6 -6 -6 -6 -6 -6 -6 -7
-3 -3 -4 -4 -4 -3 -3 -3 -3 -2 -1 -1 -0 -1 -1 -2 -2 -2 -2 -3 -4 -5 -5 -6 -6 -6 -6 -7 -7 -7 -7 -7 -6 -6 -5 -5 -6 -6 -6 -6 -6 -6 -6 -6 -6
-3 -3 -3 -4 -4 -4 -3 -3 -3 -2 -3 -2 -1 -1 -1 -1 -2 -2 -2 -3 -4 -5 -6 -7 -6 -6 -5 -6 -7 -7 -7 -7 -6 -6 -6 -6 -6 -6 -6 -6 -6 -6 -6 -6 -6
-4 -4 -4 -4 -4 -4 -4 -3 -3 -3 -3 -3 -2 -2 -2 -1 -2 -2 -2 -3 -4 -4 -6 -6 -6 -6 -6 -5 -6 -6 -7 -7 -7 -7 -6 -7 -7 -7 -6 -6 -6 -6 -6 -6 -6
-4 -4 -4 -4 -4 -4 -4 -4 -4 -4 -4 -3 -3 -3 -2 -2 -2 -2 -2 -3 -4 -4 -5 -5 -5 -6 -5 -5 -5 -6 -7 -7 -7 -7 -7 -7 -7 -7 -7 -6 -6 -6 -6 -6 -6
-4 -4 -4 -4 -4 -5 -4 -4 -5 -5 -4 -4 -4 -3 -3 -3 -3 -3 -3 -2 -3 -4 -4 -5 -5 -5 -5 -4 -4 -6 -5 -7 -7 -7 -7 -7 -7 -7 -7 -6 -6 -6 -6 -6 -6
-4 -5 -5 -4 -4 -4 -4 -4 -4 -5 -5 -5 -4 -4 -3 -3 -3 -3 -3 -3 -2 -3 -3 -4 -4 -3 -4 -4 -5 -6 -6 -7 -8 -7 -8 -8 -8 -7 -7 -6 -5 -6 -6 -6 -6
-5 -5 -5 -5 -5 -5 -4 -5 -4 -4 -5 -5 -5 -5 -4 -3 -3 -3 -3 -4 -2 -2 -3 -3 -2 -5 -6 -6 -5 -6 -6 -7 -8 -7 -8 -8 -8 -8 -7 -7 -7 -6 -6 -6 -6
-5 -5 -5 -5 -5 -5 -5 -4 -5 -5 -4 -6 -5 -4 -5 -3 -4 -4 -3 -4 -3 -2 -3 -3 -4 -7 -7 -6 -5 -5 -6 -6 -6 -8 -8 -8 -7 -8 -7 -7 -7 -7 -7 -6 -6
-5 -5 -5 -5 -5 -5 -5 -5 -5 -5 -4 -6 -6 -6 -5 -5 -4 -5 -4 -4 -4 -3 -3 -3 -6 -7 -7 -6 -6 -5 -6 -7 -7 -8 -7 -8 -6 -7 -8 -8 -7 -7 -7 -7 -6
-6 -6 -6 -6 -6 -5 -5 -5 -5 -5 -5 -6 -5 -6 -6 -5 -5 -5 -5 -4 -5 -4 -4 -3 -5 -7 -7 -6 -6 -6 -7 -7 -8 -8 -8 -8 -7 -7 -8 -7 -7 -7 -7 -7 -7
-7 -7 -6 -6 -7 -6 -6 -6 -6 -5 -5 -7 -6 -6 -7 -6 -6 -5 -6 -6 -5 -6 -5 -5 -6 -7 -7 -7 -7 -7 -8 -9 -9 -8 -8 -7 -7 -6 -6 -7 -7 -7 -7 -7 -7
-8 -7 -7 -7 -7 -6 -7 -6 -6 -5 -6 -7 -7 -7 -8 -7 -7 -6 -6 -6 -6 -6 -6 -5 -5 -6 -8 -8 -8 -7 -8 -9 -9 -9 -8 -7 -7 -5 -6 -7 -7 -7 -7 -7 -7
-8 -8 -8 -8 -7 -7 -7 -7 -6 -5 -6 -8 -8 -8 -8 -8 -8 -8 -7 -7 -7 -7 -6 -6 -6 -6 -7 -8 -8 -8 -8 -8 -9 -8 -8 -8 -5 -5 -7 -7 -7 -7 -7 -7 -7
-9 -9 -9 -9 -8 -8 -7 -7 -6 -7 -7 -9 -8 -9 -9 -10 -9 -8 -8 -7 -7 -7 -6 -7 -6 -6 -7 -7 -8 -8 -8 -8 -8 -8 -8 -8 -7 -5 -7 -7 -7 -7 -7 -7 -7
-10 -10 -9 -9 -9 -9 -8 -7 -7 -8 -9 -9 -9 -9 -9 -10 -10 -9 -7 -8 -8 -8 -8 -8 -7 -7 -7 -8 -8 -8 -8 -8 -8 -8 -8 -8 -7 -5 -6 -6 -7 -7 -7 -6 -7
-10 -11 -10 -10 -10 -9 -9 -8 -8 -9 -10 -9 -9 -9 -10 -11 -10 -10 -8 -8 -9 -9 -10 -9 -8 -7 -7 -7 -7 -8 -8 -8 -8 -8 -8 -8 -8 -7 -6 -7 -7 -7 -7 -6 -6
-11 -11 -11 -11 -11 -10 -9 -9 -9 -10 -10 -9 -9 -10 -11 -11 -10 -10 -8 -8 -9 -10 -10 -10 -9 -8 -7 -7 -8 -8 -8 -8 -8 -8 -8 -8 -7 -7 -7 -7 -7 -7 -7 -6 -7
-12 -12 -12 -12 -12 -11 -11 -10 -10 -10 -10 -10 -9 -10 -11 -10 -11 -10 -9 -9 -10 -10 -10 -10 -9 -8 -8 -8 -8 -7 -7 -8 -8 -8 -8 -8 -7 -7 -7 -7 -7 -7 -7 -6 -7
-13 -14 -13 -14 -13 -12 -12 -11 -11 -11 -11 -10 -10 -10 -10 -11 -10 -10 -10 -10 -11 -11 -11 -11 -10 -9 -7 -6 -7 -7 -7 -8 -8 -8 -8 -7 -7 -7 -7 -7 -7 -7 -7 -7 -7
-16 -15 -16 -15 -15 -14 -13 -12 -12 -12 -12 -11 -11 -11 -11 -11 -11 -10 -11 -11 -11 -11 -11 -12 -11 -10 -7 -7 -8 -8 -7 -8 -8 -8 -8 -7 -7 -7 -7 -7 -7 -7 -8 -8 -7
-17 -18 -17 -17 -16 -15 -14 -14 -14 -13 -13 -12 -11 -12 -12 -11 -11 -11 -11 -11 -11 -11 -12 -11 -10 -10 -8 -8 -9 -9 -8 -8 -8 -8 -8 -8 -7 -7 -7 -8 -8 -8 -8 -8 -8
-20 -19 -19 -18 -17 -16 -16 -15 -15 -14 -13 -14 -13 -13 -12 -11 -11 -11 -11 -11 -12 -11 -11 -10 -11 -10 -9 -8 -9 -9 -9 -8 -8 -8 -8 -8 -7 -7 -7 -8 -8 -8 -8 -8 -8

GFSSW_500_temp_021.txt.gz
Temp
-3 -3 -3 -3 -2 -2 -2 -1 -1 -1 -2 -2 -2 -2 -3 -3 -3 -4 -5 -5 -5 -6 -6 -6 -7 -7 -7 -7 -8 -7 -7 -7 -7 -7 -6 -6 -6 -6 -6 -6 -7 -6 -6 -7 -8
-3 -3 -3 -3 -3 -2 -2 -2 -1 -1 -1 -1 -2 -2 -2 -3 -3 -3 -3 -4 -4 -5 -5 -6 -7 -7 -7 -6 -7 -8 -7 -7 -7 -6 -6 -6 -6 -6 -6 -6 -6 -6 -7 -7 -8
-3 -3 -3 -3 -3 -3 -3 -2 -2 -1 -1 -1 -1 -2 -2 -3 -2 -2 -3 -4 -4 -4 -5 -5 -6 -7 -6 -6 -8 -7 -7 -7 -7 -6 -6 -6 -6 -6 -6 -6 -7 -6 -7 -7 -8
-3 -3 -3 -3 -3 -3 -3 -3 -3 -2 -2 -1 -1 -1 -2 -2 -2 -2 -3 -4 -4 -4 -4 -5 -6 -6 -6 -7 -7 -8 -8 -7 -7 -6 -6 -6 -6 -6 -6 -6 -7 -7 -6 -7 -8
-3 -3 -3 -3 -3 -3 -3 -3 -3 -3 -3 -2 -1 -1 -2 -2 -2 -3 -3 -3 -4 -4 -4 -5 -6 -6 -7 -7 -7 -7 -8 -7 -7 -6 -6 -6 -6 -6 -6 -6 -6 -7 -7 -6 -7
-4 -4 -3 -3 -3 -3 -3 -3 -3 -3 -3 -3 -2 -2 -2 -2 -2 -2 -2 -3 -3 -4 -4 -5 -5 -6 -6 -7 -7 -7 -7 -7 -6 -6 -5 -5 -6 -6 -6 -6 -6 -7 -7 -6 -6
-4 -4 -4 -4 -4 -4 -3 -3 -4 -4 -3 -3 -3 -2 -2 -2 -2 -2 -2 -3 -3 -4 -5 -6 -6 -6 -6 -7 -7 -7 -6 -6 -6 -5 -5 -5 -6 -6 -6 -6 -6 -6 -6 -6 -6
-4 -4 -4 -4 -4 -3 -3 -3 -4 -4 -4 -4 -3 -3 -3 -2 -2 -2 -2 -2 -3 -4 -5 -6 -6 -6 -7 -6 -7 -6 -6 -6 -6 -6 -5 -6 -6 -6 -6 -6 -6 -6 -6 -6 -6
-4 -4 -4 -4 -4 -4 -4 -4 -4 -4 -4 -4 -4 -4 -3 -3 -3 -2 -3 -2 -3 -4 -4 -5 -5 -6 -6 -6 -6 -6 -6 -6 -6 -6 -6 -7 -7 -6 -6 -6 -6 -6 -6 -6 -6
-4 -4 -4 -4 -4 -4 -4 -4 -4 -4 -4 -4 -4 -4 -4 -3 -3 -3 -3 -3 -3 -4 -4 -4 -4 -4 -5 -6 -5 -6 -6 -6 -7 -7 -7 -7 -7 -7 -6 -6 -6 -6 -6 -6 -6
-4 -4 -4 -4 -4 -4 -4 -4 -4 -4 -4 -4 -4 -5 -4 -4 -3 -3 -3 -3 -3 -3 -3 -3 -3 -3 -4 -5 -6 -7 -7 -7 -8 -7 -7 -7 -7 -6 -6 -6 -6 -6 -6 -6 -6
-5 -5 -5 -4 -4 -4 -4 -4 -4 -4 -4 -4 -4 -4 -4 -4 -4 -4 -4 -3 -3 -4 -3 -3 -2 -5 -6 -6 -6 -7 -7 -8 -7 -7 -7 -7 -7 -7 -7 -6 -7 -6 -6 -6 -6
-5 -5 -5 -5 -5 -5 -4 -4 -4 -4 -4 -5 -4 -4 -4 -4 -4 -4 -4 -4 -4 -4 -3 -3 -3 -6 -6 -5 -6 -6 -7 -7 -7 -7 -7 -7 -7 -7 -7 -7 -7 -7 -7 -7 -6
-5 -5 -5 -5 -5 -5 -5 -5 -5 -4 -4 -5 -5 -5 -4 -4 -5 -5 -4 -5 -4 -4 -4 -4 -4 -5 -6 -6 -5 -6 -6 -7 -8 -7 -6 -7 -7 -7 -8 -7 -7 -7 -7 -7 -6
-6 -6 -6 -6 -6 -5 -5 -5 -5 -5 -5 -5 -5 -5 -5 -5 -5 -5 -5 -5 -5 -5 -4 -4 -4 -5 -6 -5 -5 -5 -7 -7 -8 -8 -7 -7 -7 -7 -7 -7 -7 -7 -7 -8 -7
-6 -6 -7 -7 -7 -7 -6 -6 -5 -5 -5 -6 -6 -5 -5 -5 -5 -6 -5 -5 -5 -6 -5 -6 -5 -6 -6 -7 -7 -7 -7 -7 -7 -8 -8 -7 -7 -7 -6 -6 -7 -7 -7 -8 -8
-6 -6 -7 -8 -8 -7 -7 -7 -6 -5 -6 -6 -6 -6 -6 -6 -5 -6 -6 -6 -5 -5 -6 -6 -6 -6 -6 -8 -8 -8 -8 -8 -8 -8 -7 -7 -6 -5 -7 -7 -7 -7 -7 -8 -8
-7 -6 -7 -7 -8 -8 -7 -7 -6 -5 -6 -7 -7 -7 -7 -7 -6 -6 -6 -6 -6 -6 -7 -6 -6 -6 -6 -7 -8 -7 -8 -8 -8 -8 -6 -6 -4 -6 -7 -7 -7 -7 -7 -8 -7
-8 -8 -7 -8 -9 -9 -8 -7 -6 -7 -6 -7 -9 -8 -8 -7 -7 -7 -7 -6 -6 -6 -6 -7 -7 -7 -8 -8 -8 -8 -8 -8 -9 -9 -8 -7 -5 -6 -7 -7 -7 -7 -7 -7 -7
-8 -8 -8 -9 -9 -10 -9 -8 -8 -8 -7 -7 -9 -9 -8 -8 -7 -8 -8 -7 -6 -7 -8 -7 -7 -8 -8 -9 -9 -8 -8 -8 -9 -9 -9 -8 -7 -5 -6 -6 -7 -7 -7 -7 -7
-9 -10 -10 -10 -10 -10 -9 -9 -9 -9 -8 -8 -9 -9 -9 -9 -8 -8 -8 -8 -7 -8 -8 -8 -8 -8 -9 -8 -9 -9 -9 -9 -9 -9 -9 -9 -7 -6 -6 -6 -6 -7 -7 -7 -7
-10 -11 -11 -12 -12 -11 -11 -10 -10 -9 -9 -9 -9 -10 -9 -9 -9 -8 -8 -9 -9 -8 -9 -8 -9 -8 -8 -9 -9 -9 -9 -9 -8 -8 -8 -8 -8 -7 -7 -7 -6 -6 -6 -6 -6
-12 -12 -13 -13 -13 -12 -12 -11 -11 -10 -10 -10 -10 -10 -10 -9 -10 -9 -9 -10 -10 -9 -9 -10 -10 -9 -8 -8 -8 -9 -9 -9 -9 -9 -9 -9 -8 -7 -8 -7 -7 -8 -7 -6 -7
-14 -14 -14 -14 -14 -13 -13 -12 -12 -11 -11 -11 -11 -11 -10 -10 -10 -10 -9 -11 -11 -10 -11 -11 -10 -10 -8 -7 -7 -8 -8 -9 -9 -9 -9 -8 -8 -7 -8 -8 -7 -7 -7 -7 -7
-17 -16 -16 -15 -15 -14 -14 -13 -13 -12 -11 -11 -12 -11 -11 -10 -10 -10 -10 -11 -11 -12 -11 -11 -10 -10 -9 -8 -9 -8 -8 -8 -8 -8 -8 -8 -7 -7 -8 -8 -8 -8 -8 -8 -7
-20 -19 -20 -19 -18 -17 -16 -15 -14 -13 -13 -13 -12 -13 -12 -10 -11 -11 -11 -12 -12 -12 -12 -11 -10 -10 -9 -9 -9 -9 -8 -8 -8 -8 -8 -7 -7 -7 -7 -8 -8 -8 -8 -8 -8
-22 -21 -21 -20 -21 -20 -19 -17 -16 -15 -14 -15 -14 -13 -12 -12 -11 -11 -12 -11 -12 -12 -12 -11 -11 -11 -10 -11 -10 -10 -9 -9 -8 -7 -7 -7 -6 -7 -7 -7 -8 -8 -8 -8 -8

GFSSW_500_temp_024.txt.gz
Temp
-3 -3 -3 -3 -3 -3 -3 -2 -2 -2 -2 -2 -2 -2 -2 -2 -3 -3 -3 -3 -4 -5 -5 -6 -6 -7 -8 -8 -8 -7 -9 -9 -7 -6 -6 -6 -5 -6 -6 -6 -7 -7 -6 -6 -8
-3 -3 -3 -3 -3 -3 -3 -3 -3 -2 -2 -2 -2 -2 -2 -2 -2 -2 -3 -3 -4 -4 -5 -6 -6 -7 -7 -8 -8 -8 -9 -9 -7 -6 -6 -6 -6 -6 -6 -6 -7 -7 -7 -7 -7
-3 -3 -3 -3 -3 -3 -3 -3 -3 -3 -2 -2 -2 -2 -2 -3 -2 -2 -3 -3 -3 -3 -4 -5 -5 -6 -7 -7 -7 -8 -8 -7 -7 -6 -6 -6 -6 -6 -6 -6 -6 -7 -7 -7 -8
-4 -3 -3 -3 -3 -3 -3 -3 -3 -3 -3 -2 -2 -2 -2 -2 -2 -2 -2 -3 -3 -4 -4 -4 -5 -5 -6 -7 -7 -8 -7 -7 -6 -6 -6 -6 -6 -6 -6 -6 -7 -7 -6 -8 -7
-4 -4 -4 -4 -3 -3 -3 -3 -3 -3 -3 -3 -2 -2 -2 -2 -2 -2 -2 -3 -3 -3 -4 -4 -5 -6 -6 -7 -7 -7 -7 -6 -7 -6 -6 -6 -6 -6 -6 -6 -6 -7 -7 -7 -7
-4 -4 -4 -4 -4 -3 -3 -3 -3 -3 -3 -3 -3 -3 -2 -2 -2 -3 -2 -2 -2 -3 -4 -4 -4 -6 -6 -7 -7 -7 -6 -6 -7 -6 -6 -6 -6 -6 -6 -6 -6 -6 -7 -7 -7
-4 -4 -4 -4 -4 -3 -3 -3 -3 -3 -3 -3 -3 -3 -3 -2 -2 -2 -2 -2 -2 -3 -4 -5 -5 -5 -6 -6 -6 -7 -6 -6 -6 -6 -6 -6 -6 -6 -6 -6 -6 -6 -7 -7 -6
-4 -4 -4 -4 -4 -3 -3 -4 -4 -4 -4 -3 -4 -4 -3 -3 -3 -3 -3 -3 -3 -3 -4 -4 -5 -5 -6 -6 -6 -7 -6 -7 -6 -6 -6 -6 -7 -6 -6 -6 -6 -6 -6 -6 -6
-4 -4 -4 -4 -4 -3 -3 -3 -4 -4 -4 -4 -3 -3 -3 -3 -3 -3 -3 -3 -3 -3 -3 -4 -4 -5 -5 -6 -6 -6 -8 -8 -6 -6 -6 -6 -7 -6 -6 -6 -6 -6 -6 -6 -6
-4 -4 -4 -4 -4 -4 -3 -3 -3 -4 -4 -4 -4 -4 -3 -3 -3 -4 -3 -3 -3 -3 -3 -4 -5 -4 -5 -6 -6 -6 -6 -8 -7 -6 -6 -6 -6 -6 -5 -5 -6 -6 -6 -6 -6
-4 -4 -4 -4 -4 -4 -4 -4 -4 -3 -4 -4 -4 -4 -4 -3 -3 -4 -4 -4 -4 -3 -3 -3 -3 -3 -4 -6 -7 -8 -7 -8 -8 -7 -7 -6 -6 -6 -5 -5 -5 -5 -5 -6 -5
-4 -4 -4 -4 -4 -4 -4 -4 -4 -4 -4 -4 -4 -4 -3 -3 -3 -4 -4 -4 -4 -4 -4 -3 -2 -5 -5 -6 -7 -7 -8 -8 -8 -7 -7 -7 -6 -6 -6 -5 -5 -5 -5 -5 -5
-4 -4 -4 -4 -4 -4 -4 -5 -4 -4 -4 -4 -3 -4 -3 -3 -3 -4 -4 -4 -4 -5 -4 -4 -4 -5 -5 -6 -7 -7 -7 -8 -8 -7 -7 -7 -7 -6 -6 -6 -5 -5 -6 -6 -6
-4 -4 -5 -4 -4 -4 -4 -4 -4 -4 -4 -4 -4 -3 -4 -4 -4 -3 -4 -4 -4 -5 -5 -5 -5 -5 -5 -6 -6 -7 -7 -7 -8 -8 -7 -7 -7 -7 -6 -6 -5 -6 -7 -6 -6
-4 -4 -5 -5 -5 -5 -5 -5 -5 -5 -5 -4 -4 -4 -4 -4 -4 -4 -4 -4 -4 -5 -5 -4 -4 -4 -5 -4 -6 -6 -8 -7 -8 -8 -8 -8 -7 -7 -7 -6 -6 -7 -7 -7 -6
-5 -5 -5 -5 -5 -5 -5 -6 -5 -6 -4 -5 -4 -5 -5 -5 -5 -5 -4 -5 -5 -5 -5 -6 -5 -4 -5 -6 -6 -6 -8 -7 -8 -8 -8 -8 -8 -7 -7 -6 -7 -7 -7 -7 -7
-5 -5 -5 -6 -6 -5 -6 -6 -6 -5 -4 -5 -6 -5 -6 -5 -5 -5 -5 -5 -5 -5 -5 -5 -5 -5 -6 -6 -7 -7 -7 -8 -9 -8 -8 -7 -8 -6 -7 -7 -7 -7 -7 -7 -7
-6 -6 -6 -6 -6 -6 -6 -6 -5 -5 -5 -6 -6 -6 -6 -6 -6 -6 -6 -5 -5 -5 -6 -5 -6 -5 -5 -6 -6 -6 -6 -8 -8 -8 -8 -8 -7 -4 -6 -7 -7 -7 -7 -7 -7
-7 -7 -7 -7 -7 -8 -7 -6 -5 -6 -6 -7 -7 -7 -7 -7 -7 -7 -6 -6 -5 -6 -6 -6 -5 -6 -6 -6 -7 -6 -7 -8 -8 -8 -8 -8 -7 -6 -6 -7 -7 -7 -7 -7 -7
-8 -8 -7 -7 -8 -8 -8 -6 -6 -7 -6 -8 -8 -8 -8 -7 -8 -7 -7 -6 -6 -6 -7 -7 -7 -7 -6 -7 -7 -8 -6 -8 -8 -8 -8 -8 -8 -6 -7 -7 -7 -7 -7 -7 -7
-8 -9 -9 -8 -8 -8 -7 -7 -8 -7 -8 -9 -8 -9 -9 -8 -8 -8 -7 -7 -7 -7 -7 -8 -7 -8 -8 -6 -6 -8 -8 -8 -9 -8 -8 -8 -7 -6 -6 -7 -7 -7 -7 -7 -7
-9 -9 -10 -10 -10 -9 -9 -9 -9 -9 -9 -9 -9 -9 -9 -9 -8 -9 -8 -8 -7 -8 -7 -8 -11 -9 -7 -7 -7 -8 -8 -8 -8 -8 -9 -8 -7 -8 -7 -7 -7 -7 -8 -7 -7
-12 -12 -12 -12 -11 -12 -11 -11 -10 -10 -10 -11 -10 -10 -10 -10 -9 -9 -9 -9 -8 -9 -9 -10 -10 -11 -10 -10 -9 -9 -8 -8 -9 -8 -9 -9 -8 -8 -7 -5 -6 -6 -7 -7 -6
-17 -16 -15 -15 -15 -14 -13 -12 -12 -12 -12 -11 -11 -11 -10 -11 -10 -10 -10 -10 -10 -10 -10 -9 -10 -10 -10 -8 -8 -8 -8 -9 -10 -9 -9 -9 -8 -8 -9 -6 -6 -6 -7 -7 -7
-20 -19 -19 -18 -18 -17 -16 -14 -14 -13 -13 -13 -12 -11 -11 -11 -11 -10 -10 -10 -11 -11 -11 -10 -10 -11 -10 -11 -11 -11 -9 -8 -9 -9 -10 -9 -9 -9 -9 -6 -6 -7 -7 -7 -7
-22 -21 -21 -21 -20 -20 -19 -17 -16 -15 -15 -14 -14 -13 -13 -12 -11 -12 -11 -11 -12 -12 -11 -10 -10 -10 -10 -10 -11 -11 -11 -11 -10 -8 -8 -8 -8 -9 -9 -7 -6 -6 -7 -8 -8
-24 -23 -22 -22 -21 -21 -20 -19 -19 -18 -16 -16 -15 -14 -13 -13 -13 -12 -12 -11 -12 -13 -12 -12 -10 -11 -10 -11 -11 -11 -11 -11 -11 -9 -8 -7 -7 -7 -7 -6 -6 -6 -7 -7 -8

GFSSW_500_temp_027.txt.gz
Temp
-3 -3 -3 -3 -3 -3 -3 -3 -3 -3 -2 -2 -2 -2 -2 -2 -3 -3 -3 -4 -4 -6 -7 -7 -7 -8 -8 -7 -6 -5 -6 -6 -7 -7 -6 -5 -5 -5 -5 -6 -6 -6 -6 -5 -6
-4 -3 -3 -3 -3 -3 -3 -3 -3 -3 -3 -2 -2 -2 -2 -2 -2 -2 -3 -4 -4 -5 -6 -6 -7 -7 -7 -7 -6 -5 -6 -6 -7 -8 -7 -5 -6 -5 -5 -5 -6 -6 -7 -6 -6
-3 -3 -3 -3 -3 -3 -3 -3 -3 -3 -3 -3 -2 -2 -2 -2 -2 -2 -2 -3 -4 -4 -5 -6 -6 -7 -7 -7 -6 -6 -6 -7 -8 -8 -8 -6 -5 -5 -5 -6 -6 -6 -7 -6 -6
-4 -4 -3 -3 -3 -3 -3 -3 -3 -3 -3 -3 -3 -2 -2 -2 -1 -2 -2 -3 -3 -4 -4 -5 -6 -6 -7 -7 -8 -7 -7 -7 -8 -7 -9 -8 -6 -5 -6 -6 -6 -6 -6 -7 -6
-4 -3 -4 -4 -4 -3 -3 -3 -3 -3 -3 -3 -3 -3 -2 -2 -2 -2 -2 -3 -3 -3 -4 -4 -5 -6 -6 -6 -8 -8 -7 -7 -7 -7 -8 -9 -6 -5 -6 -6 -6 -6 -7 -7 -6
-4 -4 -4 -3 -3 -3 -3 -3 -3 -3 -3 -3 -3 -3 -3 -3 -2 -3 -2 -2 -3 -3 -3 -4 -4 -5 -6 -6 -8 -8 -8 -8 -6 -8 -9 -8 -6 -6 -6 -6 -5 -6 -6 -7 -6
-4 -4 -4 -4 -3 -3 -3 -3 -3 -3 -3 -3 -3 -3 -3 -3 -3 -3 -3 -2 -3 -3 -3 -4 -5 -5 -5 -6 -8 -8 -8 -6 -6 -8 -8 -7 -6 -6 -6 -6 -6 -5 -6 -6 -6
-4 -4 -4 -4 -3 -3 -3 -3 -3 -3 -3 -3 -3 -3 -3 -3 -3 -3 -3 -2 -2 -3 -3 -4 -4 -4 -5 -6 -8 -7 -7 -7 -7 -7 -8 -5 -6 -5 -5 -6 -6 -6 -5 -6 -6
-4 -4 -4 -4 -4 -4 -3 -3 -3 -3 -3 -3 -3 -3 -3 -3 -3 -3 -3 -3 -3 -3 -3 -4 -4 -4 -5 -5 -8 -7 -7 -7 -7 -6 -6 -5 -5 -6 -5 -5 -5 -5 -5 -5 -6
-4 -4 -3 -3 -3 -3 -4 -4 -4 -4 -4 -3 -3 -3 -3 -3 -3 -3 -3 -3 -3 -3 -3 -3 -4 -4 -4 -5 -6 -7 -7 -6 -7 -7 -6 -5 -8 -5 -5 -5 -5 -5 -5 -5 -5
-3 -4 -3 -3 -3 -3 -3 -3 -3 -4 -4 -3 -3 -3 -3 -3 -3 -3 -3 -3 -3 -4 -3 -3 -4 -2 -3 -5 -6 -7 -6 -7 -6 -6 -7 -8 -8 -6 -5 -5 -5 -4 -5 -5 -5
-3 -3 -3 -3 -3 -3 -3 -3 -4 -3 -4 -4 -3 -3 -3 -2 -3 -3 -3 -3 -3 -3 -4 -4 -3 -4 -5 -5 -5 -7 -6 -6 -6 -6 -7 -8 -8 -8 -6 -5 -5 -5 -5 -5 -5
-3 -3 -4 -3 -3 -3 -4 -4 -3 -3 -3 -4 -3 -3 -3 -3 -3 -3 -3 -4 -3 -3 -4 -4 -3 -4 -5 -5 -6 -7 -6 -6 -6 -7 -6 -7 -7 -7 -8 -6 -5 -5 -5 -5 -5
-4 -4 -4 -3 -3 -3 -3 -4 -4 -4 -3 -3 -4 -3 -3 -3 -3 -4 -3 -4 -3 -3 -4 -4 -4 -4 -5 -5 -6 -7 -7 -7 -6 -6 -6 -7 -6 -6 -7 -6 -5 -5 -5 -5 -5
-4 -4 -4 -4 -3 -3 -4 -4 -4 -4 -4 -2 -2 -3 -3 -4 -3 -3 -3 -3 -4 -4 -4 -4 -4 -4 -5 -4 -6 -7 -7 -7 -7 -6 -6 -6 -7 -6 -6 -7 -6 -5 -5 -5 -5
-4 -4 -4 -4 -4 -4 -4 -4 -4 -4 -3 -3 -3 -3 -4 -4 -4 -3 -4 -4 -4 -4 -4 -4 -5 -5 -4 -5 -6 -6 -8 -7 -7 -6 -6 -6 -6 -6 -6 -6 -7 -7 -6 -5 -5
-5 -4 -4 -5 -5 -5 -4 -4 -4 -3 -3 -3 -3 -4 -4 -4 -4 -4 -4 -4 -4 -4 -4 -4 -4 -5 -5 -5 -5 -6 -8 -7 -7 -6 -6 -6 -6 -6 -6 -6 -6 -7 -7 -6 -6
-5 -5 -5 -5 -5 -5 -5 -5 -4 -3 -3 -5 -4 -4 -5 -6 -4 -4 -5 -5 -4 -4 -5 -5 -4 -4 -5 -4 -5 -6 -7 -7 -7 -6 -6 -6 -5 -5 -6 -6 -6 -7 -7 -7 -7
-5 -5 -6 -6 -6 -7 -6 -5 -4 -4 -5 -6 -6 -6 -5 -6 -6 -5 -5 -5 -5 -5 -5 -6 -5 -6 -6 -6 -6 -7 -7 -7 -7 -6 -6 -5 -6 -6 -6 -6 -7 -7 -7 -7 -7
-5 -6 -7 -6 -7 -7 -7 -4 -5 -6 -6 -6 -7 -7 -7 -6 -7 -7 -6 -5 -5 -5 -6 -6 -9 -7 -7 -8 -6 -7 -7 -8 -7 -6 -6 -5 -5 -6 -6 -6 -7 -7 -7 -7 -7
-5 -7 -7 -8 -8 -8 -7 -6 -7 -7 -7 -7 -7 -7 -8 -9 -9 -8 -7 -8 -7 -6 -6 -7 -7 -8 -9 -6 -4 -6 -7 -8 -7 -7 -6 -6 -5 -5 -6 -7 -7 -7 -7 -7 -7
-8 -8 -8 -10 -10 -10 -9 -8 -8 -8 -9 -7 -8 -8 -8 -11 -11 -10 -10 -10 -10 -8 -6 -7 -8 -9 -8 -8 -9 -9 -8 -8 -8 -8 -7 -6 -5 -6 -6 -7 -7 -7 -7 -7 -7
-11 -12 -14 -12 -12 -12 -12 -10 -10 -9 -9 -10 -8 -8 -10 -10 -12 -12 -11 -11 -11 -9 -8 -9 -8 -10 -9 -9 -9 -7 -6 -8 -8 -8 -7 -7 -6 -7 -7 -7 -7 -7 -7 -7 -8
-16 -16 -18 -16 -16 -16 -15 -13 -11 -12 -11 -10 -10 -10 -11 -11 -11 -11 -12 -12 -12 -9 -9 -8 -11 -8 -9 -7 -9 -9 -9 -9 -8 -8 -7 -7 -7 -7 -7 -7 -7 -7 -7 -8 -8
-20 -20 -20 -20 -21 -20 -18 -16 -16 -14 -12 -14 -13 -13 -13 -12 -12 -11 -11 -12 -13 -11 -9 -9 -9 -10 -7 -10 -10 -9 -9 -9 -9 -8 -8 -7 -8 -7 -7 -7 -8 -8 -7 -7 -7
-23 -23 -23 -23 -22 -22 -21 -20 -18 -17 -17 -15 -15 -16 -16 -14 -13 -12 -13 -12 -13 -12 -10 -9 -9 -10 -11 -10 -10 -10 -9 -10 -9 -9 -9 -8 -8 -8 -8 -8 -8 -8 -6 -8 -7
-24 -24 -24 -24 -24 -23 -22 -21 -21 -20 -18 -17 -18 -16 -16 -16 -17 -15 -16 -15 -14 -13 -11 -10 -11 -10 -9 -11 -10 -10 -10 -9 -10 -10 -9 -9 -9 -9 -9 -8 -8 -8 -8 -6 -6

GFSSW_500_temp_030.txt.gz
Temp
-3 -3 -3 -3 -3 -3 -3 -3 -3 -3 -3 -2 -2 -2 -2 -2 -2 -3 -3 -3 -4 -5 -5 -6 -6 -6 -5 -5 -6 -4 -5 -6 -6 -7 -5 -5 -5 -5 -7 -5 -4 -5 -5 -6 -5
-4 -4 -3 -3 -3 -3 -3 -3 -3 -3 -3 -3 -2 -2 -2 -2 -2 -2 -3 -4 -4 -4 -5 -5 -6 -5 -5 -5 -6 -5 -5 -6 -6 -7 -5 -5 -5 -5 -5 -5 -5 -4 -5 -5 -6
-3 -3 -4 -4 -3 -3 -3 -3 -3 -2 -2 -3 -3 -2 -2 -2 -1 -2 -3 -3 -3 -4 -4 -5 -5 -5 -5 -6 -6 -6 -6 -5 -6 -6 -5 -6 -5 -5 -5 -5 -5 -5 -5 -6 -6
-3 -3 -3 -3 -4 -4 -4 -3 -3 -3 -3 -2 -2 -2 -2 -2 -1 -2 -2 -3 -3 -4 -4 -4 -4 -4 -5 -6 -6 -6 -6 -6 -6 -7 -8 -7 -5 -5 -6 -5 -5 -5 -5 -6 -6
-3 -3 -3 -4 -3 -3 -4 -4 -3 -3 -3 -3 -3 -2 -2 -2 -2 -2 -2 -3 -3 -3 -4 -4 -4 -4 -4 -5 -7 -7 -6 -7 -7 -7 -8 -8 -7 -5 -6 -5 -5 -5 -6 -6 -6
-3 -3 -3 -3 -3 -3 -3 -3 -3 -3 -3 -3 -3 -3 -3 -2 -2 -2 -2 -3 -3 -3 -4 -4 -5 -5 -5 -5 -6 -8 -6 -6 -7 -8 -7 -8 -7 -6 -6 -6 -5 -5 -5 -6 -6
-4 -3 -3 -3 -3 -3 -3 -3 -3 -3 -3 -3 -3 -3 -3 -3 -2 -3 -2 -2 -3 -3 -4 -4 -5 -5 -5 -4 -5 -7 -7 -7 -7 -7 -7 -8 -6 -7 -6 -6 -5 -5 -5 -5 -5
-3 -3 -3 -3 -3 -3 -3 -3 -3 -3 -3 -3 -3 -3 -3 -3 -3 -3 -3 -2 -3 -3 -3 -4 -5 -5 -5 -5 -5 -7 -7 -6 -7 -7 -8 -6 -7 -7 -5 -6 -5 -5 -5 -5 -5
-3 -3 -3 -3 -3 -3 -3 -3 -3 -3 -3 -3 -2 -3 -3 -3 -3 -3 -3 -2 -2 -3 -3 -3 -3 -4 -5 -4 -5 -6 -7 -7 -6 -7 -7 -6 -6 -6 -5 -6 -5 -5 -4 -4 -5
-3 -3 -3 -3 -3 -3 -3 -3 -3 -3 -3 -3 -3 -3 -2 -3 -3 -3 -3 -3 -3 -3 -3 -3 -3 -4 -4 -4 -4 -6 -7 -7 -6 -6 -7 -6 -4 -5 -5 -5 -5 -5 -4 -4 -4
-4 -3 -3 -3 -3 -3 -3 -3 -3 -3 -3 -3 -3 -3 -2 -3 -3 -3 -3 -3 -3 -3 -3 -3 -3 -2 -4 -4 -4 -7 -7 -6 -7 -6 -7 -7 -6 -6 -4 -6 -5 -5 -4 -4 -4
-4 -4 -3 -3 -3 -3 -3 -3 -3 -3 -3 -3 -3 -3 -3 -2 -3 -3 -3 -3 -3 -3 -3 -3 -2 -3 -4 -4 -5 -5 -7 -6 -6 -6 -6 -7 -6 -6 -6 -6 -5 -5 -4 -4 -4
-3 -3 -3 -3 -3 -3 -3 -3 -3 -3 -2 -3 -3 -3 -3 -3 -3 -3 -3 -3 -3 -3 -3 -3 -3 -4 -4 -4 -5 -5 -6 -6 -6 -6 -6 -7 -7 -7 -7 -6 -5 -5 -5 -4 -4
-4 -3 -3 -3 -3 -3 -2 -3 -3 -2 -2 -2 -2 -2 -2 -3 -2 -3 -3 -3 -3 -3 -3 -3 -3 -4 -4 -4 -4 -5 -5 -7 -6 -6 -6 -5 -6 -6 -6 -5 -4 -5 -4 -4 -4
-4 -4 -4 -3 -3 -3 -3 -3 -3 -3 -2 -2 -1 -2 -3 -2 -3 -3 -3 -3 -3 -3 -3 -3 -4 -3 -3 -3 -4 -4 -5 -7 -7 -7 -6 -6 -6 -6 -6 -6 -6 -3 -4 -4 -4
-4 -4 -4 -4 -4 -3 -3 -3 -3 -3 -2 -3 -2 -2 -2 -3 -3 -3 -3 -3 -4 -3 -3 -3 -4 -4 -3 -4 -5 -5 -6 -7 -7 -6 -7 -6 -6 -6 -6 -5 -6 -6 -5 -4 -4
-4 -4 -3 -4 -4 -4 -4 -4 -4 -3 -3 -3 -3 -2 -2 -3 -4 -3 -3 -3 -3 -3 -3 -3 -3 -4 -4 -5 -6 -6 -8 -7 -7 -6 -6 -6 -6 -5 -6 -6 -5 -6 -6 -6 -5
-4 -4 -4 -4 -5 -4 -4 -4 -3 -2 -3 -4 -5 -3 -2 -3 -4 -4 -3 -3 -3 -3 -4 -4 -4 -4 -4 -4 -6 -6 -7 -7 -7 -6 -6 -5 -6 -6 -5 -5 -5 -5 -5 -6 -6
-3 -3 -4 -4 -5 -5 -5 -4 -2 -3 -4 -5 -6 -6 -5 -3 -4 -4 -4 -4 -4 -4 -4 -4 -4 -4 -5 -6 -6 -6 -8 -6 -7 -6 -6 -5 -5 -5 -5 -5 -6 -6 -6 -5 -5
-3 -4 -5 -5 -6 -6 -6 -4 -4 -5 -5 -7 -6 -7 -7 -9 -7 -8 -5 -4 -4 -4 -5 -5 -6 -6 -6 -6 -4 -5 -6 -6 -7 -7 -6 -5 -5 -5 -5 -5 -6 -5 -6 -6 -5
-5 -5 -8 -6 -7 -7 -5 -5 -6 -6 -6 -6 -6 -5 -5 -10 -10 -9 -8 -7 -6 -6 -5 -5 -6 -7 -8 -5 -5 -6 -6 -7 -7 -7 -6 -6 -5 -5 -5 -6 -6 -6 -6 -7 -7
-6 -7 -10 -9 -9 -9 -8 -8 -8 -7 -7 -7 -7 -7 -6 -8 -10 -10 -9 -9 -9 -9 -7 -6 -6 -6 -7 -8 -7 -6 -5 -5 -6 -7 -7 -6 -6 -5 -5 -5 -6 -5 -6 -6 -5
-11 -11 -15 -15 -10 -11 -12 -10 -10 -9 -8 -10 -10 -8 -10 -10 -9 -9 -10 -9 -10 -9 -10 -9 -7 -7 -6 -8 -8 -8 -8 -8 -7 -7 -7 -7 -6 -5 -6 -6 -6 -7 -7 -6 -6
-18 -18 -19 -19 -18 -17 -16 -13 -12 -11 -11 -13 -12 -12 -11 -11 -11 -9 -10 -10 -10 -10 -10 -10 -9 -7 -6 -6 -8 -8 -7 -8 -8 -8 -7 -7 -7 -5 -6 -7 -7 -7 -7 -7 -6
-22 -22 -22 -21 -21 -22 -21 -18 -15 -14 -14 -14 -14 -13 -13 -12 -11 -11 -11 -10 -10 -11 -11 -10 -10 -9 -8 -8 -9 -8 -8 -9 -9 -7 -8 -6 -7 -7 -5 -7 -7 -8 -7 -7 -6
-24 -23 -23 -23 -23 -23 -23 -21 -20 -19 -20 -18 -17 -15 -14 -13 -15 -11 -11 -11 -11 -11 -12 -11 -10 -10 -8 -10 -9 -9 -9 -8 -8 -9 -7 -8 -7 -7 -7 -6 -8 -7 -8 -7 -7
-24 -24 -24 -23 -23 -23 -23 -22 -21 -20 -21 -20 -18 -17 -16 -15 -14 -11 -12 -11 -11 -12 -12 -12 -11 -10 -9 -9 -10 -9 -8 -9 -8 -9 -8 -8 -7 -7 -7 -7 -7 -8 -8 -8 -8

GFSSW_500_temp_033.txt.gz
Temp
-3 -3 -3 -3 -3 -3 -3 -3 -2 -2 -2 -2 -2 -2 -2 -2 -2 -3 -3 -2 -3 -4 -4 -4 -5 -6 -7 -7 -5 -6 -6 -6 -7 -7 -7 -6 -6 -5 -4 -3 -5 -5 -5 -5 -5
-3 -3 -3 -3 -3 -3 -3 -3 -3 -2 -2 -2 -2 -2 -2 -2 -2 -2 -2 -3 -3 -4 -4 -4 -5 -6 -7 -8 -5 -6 -6 -6 -7 -7 -8 -6 -5 -5 -5 -4 -4 -4 -4 -5 -5
-3 -3 -3 -3 -4 -4 -4 -3 -3 -3 -2 -2 -2 -2 -2 -2 -2 -2 -2 -2 -3 -3 -4 -4 -4 -5 -6 -6 -6 -5 -6 -6 -6 -6 -7 -7 -6 -5 -5 -5 -5 -4 -4 -5 -5
-3 -3 -3 -3 -3 -3 -3 -3 -3 -3 -3 -3 -2 -2 -2 -2 -2 -2 -2 -2 -3 -3 -3 -4 -4 -4 -6 -5 -5 -5 -7 -7 -6 -6 -7 -7 -7 -5 -5 -5 -5 -5 -4 -5 -5
-3 -3 -3 -3 -3 -3 -3 -3 -3 -3 -3 -3 -3 -3 -2 -2 -2 -2 -2 -2 -2 -3 -3 -4 -4 -4 -5 -5 -5 -6 -6 -7 -7 -8 -7 -6 -6 -7 -6 -5 -6 -6 -5 -5 -6
-3 -3 -3 -3 -3 -3 -3 -3 -3 -3 -2 -3 -3 -3 -3 -2 -2 -2 -2 -3 -2 -3 -3 -4 -4 -4 -5 -6 -5 -5 -6 -7 -6 -8 -6 -7 -6 -7 -6 -5 -6 -6 -6 -6 -4
-4 -3 -3 -3 -3 -3 -3 -3 -3 -3 -3 -2 -2 -3 -3 -3 -2 -2 -2 -2 -2 -2 -3 -4 -5 -4 -5 -5 -6 -5 -6 -6 -7 -7 -8 -7 -7 -7 -6 -6 -6 -6 -6 -6 -5
-4 -4 -3 -3 -3 -3 -3 -3 -3 -3 -3 -3 -3 -3 -3 -3 -3 -3 -2 -2 -3 -3 -3 -4 -4 -5 -5 -5 -5 -5 -6 -7 -7 -7 -8 -7 -7 -7 -5 -4 -5 -6 -5 -5 -5
-3 -3 -3 -3 -3 -3 -3 -3 -3 -2 -2 -2 -2 -3 -3 -3 -3 -3 -3 -2 -3 -3 -3 -3 -4 -4 -5 -5 -5 -5 -5 -6 -7 -6 -7 -7 -6 -6 -7 -5 -4 -5 -5 -5 -4
-3 -3 -2 -3 -3 -3 -3 -2 -2 -2 -2 -2 -2 -2 -2 -3 -3 -3 -3 -2 -3 -3 -3 -3 -3 -3 -3 -4 -4 -5 -4 -5 -7 -6 -7 -6 -7 -6 -5 -5 -4 -4 -4 -5 -5
-4 -4 -3 -3 -3 -3 -3 -2 -2 -2 -2 -2 -2 -3 -2 -2 -2 -3 -2 -3 -3 -3 -3 -3 -2 -2 -3 -4 -4 -5 -5 -6 -7 -7 -6 -7 -7 -7 -5 -4 -5 -4 -5 -4 -4
-3 -3 -4 -3 -3 -3 -3 -2 -2 -2 -2 -2 -2 -2 -2 -2 -2 -2 -3 -2 -2 -3 -3 -3 -2 -3 -3 -4 -4 -5 -5 -5 -8 -7 -7 -6 -6 -5 -5 -4 -4 -4 -4 -4 -4
-3 -3 -3 -4 -3 -3 -3 -3 -3 -2 -1 -2 -2 -1 -3 -1 -2 -2 -2 -3 -3 -2 -3 -3 -3 -4 -3 -4 -4 -5 -5 -4 -8 -7 -7 -6 -6 -4 -5 -5 -4 -4 -5 -5 -4
-4 -4 -4 -4 -3 -3 -2 -4 -3 -2 -1 -1 -2 -2 -2 -2 -1 -2 -2 -2 -2 -3 -3 -3 -3 -3 -3 -3 -4 -4 -5 -5 -7 -6 -5 -6 -5 -5 -6 -4 -4 -4 -4 -5 -5
-4 -4 -4 -4 -4 -3 -3 -3 -3 -3 -2 -2 -1 -2 -3 -2 -3 -2 -2 -2 -2 -3 -3 -3 -3 -3 -3 -3 -4 -3 -6 -5 -7 -8 -7 -6 -6 -6 -6 -5 -4 -4 -5 -4 -4
-4 -4 -4 -4 -4 -4 -4 -4 -3 -3 -2 -3 -2 -2 -2 -3 -3 -3 -3 -3 -3 -2 -2 -3 -3 -3 -3 -3 -4 -4 -6 -6 -7 -8 -7 -6 -6 -6 -6 -5 -5 -5 -5 -5 -3
-4 -4 -4 -4 -4 -4 -4 -4 -4 -3 -3 -3 -4 -3 -2 -2 -4 -3 -3 -3 -2 -2 -2 -3 -3 -3 -3 -3 -4 -4 -5 -6 -6 -7 -7 -7 -6 -5 -6 -6 -6 -5 -5 -5 -6
-4 -4 -5 -5 -5 -4 -4 -4 -3 -3 -3 -5 -6 -3 -3 -3 -3 -4 -3 -3 -3 -3 -3 -3 -3 -3 -3 -3 -3 -4 -5 -4 -6 -6 -5 -7 -7 -3 -5 -5 -6 -6 -6 -6 -6
-3 -3 -3 -4 -4 -4 -4 -4 -3 -3 -5 -4 -5 -4 -3 -3 -3 -4 -4 -3 -4 -4 -3 -4 -3 -4 -3 -4 -4 -4 -4 -4 -6 -6 -6 -5 -6 -6 -5 -6 -6 -5 -5 -6 -5
-3 -3 -5 -4 -4 -4 -4 -3 -4 -5 -4 -5 -5 -5 -4 -4 -5 -5 -5 -4 -3 -4 -5 -4 -4 -4 -4 -4 -4 -4 -5 -6 -6 -6 -6 -5 -5 -5 -5 -6 -5 -5 -5 -5 -6
-4 -3 -7 -7 -5 -4 -3 -3 -5 -5 -6 -6 -7 -6 -6 -6 -5 -5 -3 -4 -6 -5 -6 -5 -5 -4 -5 -4 -4 -4 -4 -6 -7 -6 -6 -6 -5 -5 -6 -6 -5 -5 -5 -5 -6
-5 -4 -9 -9 -8 -7 -6 -6 -7 -6 -7 -7 -7 -6 -7 -7 -7 -6 -4 -3 -9 -8 -7 -6 -6 -5 -4 -5 -6 -5 -4 -5 -5 -6 -6 -7 -4 -5 -6 -6 -5 -5 -5 -6 -6
-7 -7 -14 -14 -11 -12 -11 -11 -11 -10 -8 -8 -7 -9 -10 -9 -8 -7 -6 -6 -8 -9 -9 -9 -6 -6 -5 -6 -5 -6 -7 -5 -6 -6 -5 -5 -4 -5 -6 -6 -6 -6 -7 -6 -6
-14 -15 -20 -20 -19 -18 -17 -14 -13 -12 -10 -11 -8 -10 -10 -11 -10 -8 -8 -8 -9 -9 -9 -10 -8 -6 -4 -4 -6 -6 -7 -7 -6 -5 -5 -4 -5 -5 -6 -6 -6 -7 -5 -7 -7
-23 -23 -24 -23 -22 -22 -22 -21 -18 -16 -17 -15 -11 -13 -14 -10 -11 -9 -9 -8 -8 -9 -9 -10 -9 -9 -6 -7 -7 -6 -8 -8 -6 -5 -5 -5 -5 -5 -5 -6 -6 -7 -7 -7 -8
-26 -25 -25 -24 -24 -24 -23 -22 -21 -21 -19 -19 -17 -18 -16 -13 -12 -12 -10 -9 -8 -9 -9 -9 -9 -10 -10 -9 -8 -8 -7 -8 -8 -7 -6 -6 -5 -6 -6 -6 -7 -7 -7 -7 -6
-26 -26 -25 -25 -24 -24 -23 -24 -23 -23 -22 -22 -22 -20 -18 -16 -14 -13 -12 -10 -9 -10 -10 -10 -10 -10 -10 -10 -10 -9 -6 -8 -8 -8 -8 -6 -6 -6 -6 -6 -8 -8 -8 -6 -8

GFSSW_500_temp_036.txt.gz
Temp
-3 -3 -3 -3 -3 -3 -3 -3 -2 -2 -2 -2 -2 -2 -2 -2 -3 -3 -4 -3 -3 -4 -5 -5 -7 -7 -7 -6 -6 -5 -4 -4 -4 -7 -7 -5 -5 -5 -5 -6 -6 -6 -6 -5 -5
-3 -3 -3 -3 -3 -3 -3 -3 -3 -2 -2 -2 -2 -2 -2 -2 -2 -2 -3 -4 -4 -4 -5 -6 -7 -6 -6 -6 -6 -6 -6 -6 -6 -6 -6 -6 -5 -5 -5 -5 -6 -7 -5 -6 -5
-3 -4 -3 -3 -3 -3 -3 -3 -3 -3 -3 -3 -2 -2 -2 -2 -2 -2 -3 -3 -3 -5 -5 -5 -5 -6 -4 -5 -6 -6 -6 -6 -6 -6 -7 -5 -6 -6 -5 -6 -5 -5 -5 -5 -5
-3 -3 -3 -3 -3 -3 -3 -3 -3 -3 -3 -3 -3 -3 -2 -2 -3 -2 -2 -2 -3 -3 -4 -5 -5 -5 -3 -5 -7 -6 -7 -7 -7 -7 -5 -5 -6 -6 -5 -6 -6 -5 -6 -5 -5
-3 -3 -3 -3 -3 -3 -3 -3 -3 -3 -3 -3 -3 -3 -3 -2 -3 -2 -2 -2 -2 -3 -4 -5 -6 -5 -4 -6 -7 -5 -6 -6 -7 -7 -7 -7 -7 -5 -6 -6 -5 -5 -6 -6 -6
-4 -4 -3 -3 -3 -3 -3 -3 -3 -2 -2 -3 -3 -3 -3 -2 -3 -3 -2 -3 -2 -3 -3 -4 -6 -7 -6 -6 -7 -5 -6 -7 -7 -7 -8 -7 -7 -6 -6 -6 -5 -5 -6 -6 -5
-4 -4 -3 -3 -3 -3 -3 -3 -3 -3 -3 -2 -3 -3 -3 -3 -3 -3 -2 -3 -3 -3 -3 -4 -6 -6 -5 -4 -6 -5 -5 -6 -7 -7 -7 -7 -6 -6 -6 -6 -6 -4 -5 -6 -5
-4 -3 -3 -3 -3 -3 -3 -3 -3 -3 -3 -3 -3 -3 -2 -3 -3 -3 -3 -3 -3 -3 -3 -4 -5 -5 -5 -5 -5 -5 -4 -5 -6 -7 -7 -7 -6 -6 -5 -6 -6 -5 -4 -5 -5
-4 -4 -3 -3 -3 -3 -3 -2 -2 -2 -2 -2 -3 -3 -2 -3 -2 -3 -3 -2 -3 -3 -3 -3 -3 -5 -5 -5 -6 -5 -5 -5 -6 -7 -6 -7 -6 -7 -5 -6 -6 -6 -5 -4 -5
-4 -4 -4 -3 -3 -3 -2 -2 -2 -2 -2 -2 -2 -3 -3 -2 -2 -2 -3 -3 -3 -3 -3 -3 -3 -3 -4 -5 -4 -5 -6 -5 -7 -5 -6 -7 -6 -6 -5 -6 -6 -5 -5 -5 -4
-4 -4 -4 -3 -3 -3 -3 -2 -2 -2 -2 -2 -2 -2 -3 -2 -3 -3 -2 -2 -2 -3 -3 -3 -3 -2 -3 -4 -5 -6 -7 -6 -7 -8 -7 -6 -6 -6 -6 -6 -6 -5 -5 -5 -5
-4 -4 -4 -4 -3 -3 -3 -3 -2 -2 -2 -2 -2 -2 -2 -2 -2 -2 -2 -2 -2 -2 -2 -2 -2 -3 -4 -4 -4 -6 -6 -6 -6 -6 -7 -7 -7 -7 -6 -6 -6 -5 -5 -5 -4
-4 -4 -4 -4 -4 -3 -3 -3 -3 -2 -2 -3 -3 -2 -3 -1 -2 -3 -2 -3 -2 -2 -2 -2 -3 -4 -4 -4 -4 -5 -6 -7 -6 -5 -6 -7 -7 -6 -6 -7 -6 -5 -5 -5 -4
-4 -4 -5 -5 -4 -4 -3 -4 -3 -2 -2 -2 -3 -2 -2 -2 -2 -2 -3 -3 -3 -3 -3 -2 -3 -3 -3 -3 -4 -4 -5 -7 -6 -6 -6 -6 -6 -7 -6 -6 -6 -5 -5 -4 -4
-5 -5 -5 -5 -5 -4 -4 -4 -3 -3 -2 -2 -2 -2 -2 -2 -3 -2 -3 -2 -2 -3 -3 -2 -3 -3 -2 -3 -4 -4 -6 -7 -7 -6 -7 -8 -5 -6 -6 -4 -5 -5 -5 -5 -4
-5 -5 -5 -4 -4 -5 -4 -5 -4 -4 -2 -3 -3 -3 -3 -3 -3 -3 -2 -2 -3 -2 -2 -3 -2 -2 -2 -3 -4 -4 -6 -6 -7 -7 -7 -6 -5 -5 -6 -4 -4 -4 -5 -5 -4
-5 -5 -5 -5 -5 -4 -4 -4 -4 -4 -3 -4 -4 -3 -3 -3 -4 -3 -3 -2 -2 -2 -2 -3 -2 -3 -3 -3 -3 -4 -5 -6 -7 -7 -4 -5 -5 -3 -5 -5 -4 -3 -4 -5 -5
-5 -5 -5 -5 -5 -5 -5 -4 -4 -3 -4 -4 -4 -3 -3 -4 -3 -3 -3 -3 -2 -2 -2 -3 -3 -3 -3 -3 -3 -3 -4 -4 -5 -6 -6 -6 -5 -2 -5 -6 -4 -5 -5 -5 -5
-5 -5 -5 -5 -5 -5 -5 -4 -4 -4 -4 -4 -4 -5 -4 -4 -4 -4 -3 -3 -3 -3 -3 -3 -3 -4 -3 -4 -4 -3 -3 -4 -5 -5 -6 -5 -6 -4 -5 -7 -6 -5 -6 -5 -5
-4 -5 -6 -5 -5 -5 -4 -4 -4 -4 -4 -4 -4 -5 -4 -4 -4 -4 -3 -3 -4 -4 -4 -4 -3 -4 -4 -4 -4 -4 -5 -5 -4 -5 -5 -4 -5 -3 -4 -5 -6 -6 -6 -5 -5
-5 -4 -6 -6 -5 -4 -4 -4 -5 -6 -5 -5 -5 -5 -4 -5 -4 -4 -3 -3 -4 -5 -7 -5 -4 -4 -5 -4 -4 -4 -4 -4 -5 -4 -3 -4 -3 -4 -4 -5 -6 -6 -6 -6 -5
-5 -5 -9 -6 -7 -6 -5 -6 -6 -5 -9 -6 -5 -6 -6 -6 -4 -4 -3 -4 -5 -5 -3 -4 -5 -3 -3 -4 -4 -4 -4 -4 -4 -4 -4 -3 -1 -4 -5 -6 -6 -6 -6 -6 -6
-10 -10 -10 -11 -9 -9 -8 -7 -8 -7 -7 -10 -7 -6 -6 -7 -6 -6 -4 -6 -6 -5 -4 -5 -3 -2 -3 -5 -6 -5 -3 -3 -4 -5 -3 -3 -2 -4 -5 -6 -6 -6 -6 -6 -6
-17 -17 -18 -18 -16 -14 -15 -14 -12 -12 -10 -10 -10 -8 -7 -8 -9 -8 -6 -6 -7 -7 -5 -5 -3 -3 -1 -3 -4 -4 -4 -4 -4 -4 -3 -1 -3 -3 -5 -6 -6 -7 -6 -6 -7
-23 -24 -25 -24 -24 -23 -22 -21 -19 -18 -17 -15 -13 -12 -11 -9 -10 -9 -9 -8 -8 -9 -8 -6 -4 -4 -2 -2 -6 -6 -5 -4 -4 -3 -3 -3 -4 -4 -5 -6 -6 -6 -7 -7 -7
-26 -26 -26 -26 -26 -25 -25 -24 -23 -23 -22 -21 -18 -16 -15 -12 -12 -11 -10 -10 -10 -10 -10 -8 -6 -6 -4 -3 -3 -6 -6 -5 -4 -5 -4 -4 -4 -5 -5 -5 -6 -6 -6 -7 -7
-26 -26 -26 -26 -26 -25 -25 -25 -24 -24 -23 -23 -22 -20 -19 -17 -14 -14 -12 -10 -10 -11 -10 -10 -8 -8 -6 -6 -6 -9 -2 -5 -6 -5 -5 -5 -5 -6 -6 -5 -6 -6 -7 -6 -7

GFSSW_500_temp_039.txt.gz
Temp
-3 -3 -3 -3 -3 -3 -3 -3 -3 -3 -3 -3 -3 -3 -3 -3 -3 -4 -4 -3 -3 -3 -4 -4 -5 -5 -5 -6 -5 -5 -5 -5 -5 -5 -5 -5 -5 -6 -6 -6 -6 -6 -6 -6 -6
-3 -3 -3 -3 -3 -3 -3 -3 -3 -3 -3 -3 -3 -3 -3 -3 -3 -3 -3 -4 -4 -4 -5 -5 -5 -5 -4 -5 -4 -4 -5 -5 -6 -5 -5 -5 -6 -6 -6 -6 -6 -6 -6 -7 -6
-4 -4 -3 -3 -3 -3 -3 -3 -3 -3 -3 -3 -3 -3 -3 -3 -3 -3 -3 -4 -3 -4 -5 -4 -4 -5 -5 -6 -6 -5 -5 -7 -6 -6 -5 -5 -7 -6 -7 -6 -6 -6 -5 -6 -7
-4 -4 -3 -3 -3 -3 -3 -3 -3 -3 -3 -3 -3 -3 -3 -3 -3 -3 -3 -3 -3 -4 -3 -3 -4 -5 -5 -6 -6 -7 -6 -6 -7 -5 -6 -5 -6 -8 -8 -6 -6 -6 -5 -6 -7
-4 -4 -4 -4 -3 -3 -3 -3 -3 -3 -3 -3 -3 -3 -3 -3 -3 -3 -3 -3 -3 -3 -4 -4 -4 -5 -6 -6 -6 -7 -6 -5 -7 -7 -6 -6 -7 -7 -7 -7 -6 -6 -6 -6 -6
-4 -4 -4 -4 -4 -4 -4 -3 -3 -3 -3 -3 -3 -3 -3 -3 -3 -3 -3 -3 -3 -3 -3 -4 -4 -6 -6 -6 -6 -7 -5 -4 -5 -7 -5 -6 -7 -7 -7 -8 -7 -7 -6 -6 -6
-4 -4 -4 -3 -4 -3 -3 -3 -3 -3 -3 -3 -3 -3 -3 -3 -4 -3 -3 -3 -3 -3 -4 -4 -5 -4 -5 -6 -5 -5 -5 -5 -3 -5 -7 -5 -6 -7 -7 -8 -8 -6 -7 -6 -6
-4 -4 -4 -3 -3 -3 -3 -3 -3 -3 -3 -3 -3 -4 -3 -3 -3 -3 -3 -3 -3 -3 -4 -4 -5 -5 -4 -6 -5 -5 -6 -5 -4 -4 -5 -5 -6 -6 -7 -8 -8 -7 -6 -6 -6
-4 -4 -4 -3 -3 -3 -3 -3 -3 -3 -3 -3 -3 -3 -3 -3 -3 -3 -4 -4 -3 -3 -3 -4 -3 -4 -5 -4 -5 -5 -6 -7 -5 -5 -5 -6 -7 -6 -6 -8 -8 -6 -6 -6 -6
-4 -4 -4 -4 -3 -4 -3 -2 -2 -2 -3 -3 -3 -3 -3 -3 -3 -4 -3 -4 -4 -3 -3 -3 -3 -3 -4 -3 -4 -5 -6 -7 -6 -6 -6 -7 -7 -6 -7 -8 -7 -6 -6 -6 -5
-4 -4 -4 -4 -4 -3 -3 -2 -2 -2 -2 -2 -3 -3 -3 -3 -3 -3 -3 -3 -3 -3 -3 -4 -3 -3 -3 -4 -5 -5 -6 -7 -7 -6 -5 -5 -6 -7 -7 -7 -7 -7 -5 -5 -5
-5 -5 -5 -4 -4 -3 -3 -3 -3 -2 -2 -2 -3 -2 -3 -2 -3 -3 -3 -3 -3 -4 -3 -3 -2 -4 -5 -5 -5 -5 -6 -7 -7 -6 -6 -6 -5 -6 -6 -7 -7 -7 -6 -5 -5
-5 -5 -5 -5 -4 -4 -3 -3 -3 -3 -2 -3 -3 -2 -3 -2 -3 -3 -3 -3 -3 -3 -3 -3 -3 -4 -4 -4 -5 -5 -5 -7 -7 -8 -6 -6 -5 -4 -6 -7 -6 -6 -5 -5 -5
-5 -5 -5 -5 -4 -4 -4 -4 -3 -2 -2 -2 -3 -3 -2 -3 -2 -4 -3 -3 -3 -3 -4 -3 -3 -3 -3 -4 -4 -5 -6 -7 -7 -8 -7 -7 -6 -5 -6 -6 -6 -5 -5 -6 -5
-5 -5 -5 -5 -5 -4 -4 -4 -4 -3 -3 -3 -2 -2 -3 -3 -3 -3 -3 -3 -3 -3 -3 -3 -4 -3 -3 -3 -4 -4 -7 -7 -7 -8 -8 -7 -6 -5 -6 -5 -6 -4 -4 -5 -5
-6 -5 -5 -5 -6 -5 -4 -4 -5 -4 -2 -3 -2 -2 -3 -3 -3 -3 -2 -3 -3 -3 -3 -3 -3 -3 -3 -4 -4 -5 -6 -7 -7 -8 -7 -7 -6 -5 -4 -5 -6 -6 -6 -5 -5
-6 -6 -7 -6 -5 -5 -6 -5 -5 -4 -4 -3 -3 -3 -3 -4 -3 -3 -2 -3 -2 -2 -2 -3 -3 -3 -3 -3 -3 -3 -5 -6 -6 -6 -3 -5 -5 -3 -5 -5 -5 -5 -7 -6 -5
-7 -7 -7 -6 -6 -6 -6 -6 -4 -4 -4 -4 -4 -4 -4 -4 -4 -4 -3 -3 -3 -3 -3 -3 -3 -3 -3 -3 -3 -3 -4 -4 -4 -4 -3 -5 -2 -2 -5 -6 -5 -7 -6 -6 -6
-6 -7 -7 -6 -6 -6 -6 -6 -5 -5 -4 -4 -5 -5 -5 -4 -4 -4 -4 -3 -4 -4 -4 -3 -3 -4 -3 -4 -4 -3 -3 -4 -4 -5 -4 -4 -2 -3 -5 -6 -5 -6 -6 -6 -5
-6 -6 -6 -6 -6 -6 -6 -6 -6 -5 -5 -5 -5 -5 -5 -5 -4 -4 -4 -4 -4 -4 -4 -4 -4 -4 -4 -4 -4 -4 -4 -4 -4 -4 -3 -2 -2 -2 -4 -5 -5 -4 -5 -5 -5
-8 -8 -6 -6 -6 -6 -6 -6 -6 -6 -6 -6 -6 -5 -5 -5 -5 -4 -5 -4 -4 -4 -4 -3 -3 -4 -5 -4 -4 -4 -3 -3 -4 -4 -3 -3 -1 -3 -3 -4 -5 -5 -5 -6 -6
-12 -11 -9 -8 -8 -7 -7 -6 -6 -7 -6 -5 -5 -5 -6 -6 -5 -6 -6 -5 -4 -4 -4 -4 -3 -3 -3 -4 -4 -4 -4 -4 -4 -3 -2 -2 -2 -3 -4 -4 -5 -6 -5 -4 -6
-20 -19 -16 -14 -13 -12 -10 -9 -8 -7 -9 -7 -6 -5 -5 -6 -6 -7 -6 -6 -5 -4 -4 -4 -3 -3 -3 -4 -4 -4 -4 -4 -3 -4 -3 -2 -2 -3 -4 -5 -6 -6 -6 -6 -5
-23 -23 -23 -21 -20 -18 -16 -14 -12 -11 -12 -11 -9 -7 -7 -6 -7 -7 -8 -8 -6 -6 -5 -5 -4 -3 -3 -3 -4 -3 -3 -3 -3 -2 -2 -2 -2 -2 -4 -4 -5 -6 -6 -6 -6
-24 -24 -25 -25 -24 -23 -22 -21 -19 -18 -17 -16 -14 -11 -10 -10 -10 -9 -8 -9 -9 -7 -6 -5 -4 -4 -3 -3 -4 -4 -3 -4 -2 -2 -2 -2 -3 -3 -3 -5 -5 -5 -6 -6 -6
-25 -25 -25 -26 -26 -26 -26 -25 -25 -24 -23 -22 -20 -17 -15 -13 -12 -12 -10 -11 -11 -10 -9 -6 -5 -5 -4 -4 -4 -4 -3 -2 -2 -3 -3 -3 -3 -3 -4 -5 -6 -6 -6 -7 -6
-26 -26 -25 -26 -26 -26 -26 -26 -25 -24 -25 -24 -23 -22 -20 -18 -17 -15 -13 -12 -11 -11 -11 -9 -7 -7 -5 -6 -6 -5 -3 -3 -2 -3 -4 -3 -3 -4 -5 -4 -5 -4 -5 -7 -7

GFSSW_500_temp_042.txt.gz
Temp
-4 -4 -4 -4 -4 -4 -4 -4 -4 -3 -4 -3 -3 -3 -3 -3 -3 -4 -3 -2 -3 -4 -4 -4 -5 -5 -5 -5 -6 -6 -5 -7 -6 -6 -6 -5 -4 -5 -5 -6 -5 -6 -6 -6 -6
-4 -4 -4 -4 -4 -4 -4 -4 -4 -4 -4 -4 -4 -4 -3 -3 -3 -3 -3 -4 -4 -4 -5 -6 -5 -5 -5 -5 -6 -6 -5 -6 -6 -7 -8 -7 -6 -5 -6 -5 -6 -6 -7 -7 -7
-4 -4 -4 -4 -3 -3 -3 -3 -4 -4 -4 -4 -4 -4 -4 -3 -3 -3 -3 -3 -4 -4 -4 -4 -4 -4 -5 -5 -6 -6 -6 -6 -6 -7 -7 -7 -7 -5 -6 -6 -6 -6 -6 -6 -7
-4 -4 -4 -4 -4 -3 -3 -3 -4 -4 -4 -4 -4 -4 -4 -4 -3 -3 -3 -3 -3 -3 -3 -3 -4 -5 -6 -6 -6 -5 -6 -5 -5 -6 -7 -8 -8 -8 -6 -7 -6 -7 -6 -6 -7
-4 -4 -4 -4 -4 -4 -4 -4 -4 -4 -4 -4 -4 -4 -4 -3 -3 -3 -3 -3 -3 -3 -3 -4 -5 -5 -6 -7 -6 -5 -6 -5 -5 -5 -6 -7 -8 -9 -8 -8 -8 -7 -7 -6 -6
-5 -4 -4 -4 -4 -4 -4 -3 -4 -4 -4 -4 -4 -4 -3 -3 -3 -3 -3 -3 -3 -3 -4 -4 -5 -6 -6 -6 -7 -7 -6 -5 -4 -4 -6 -7 -7 -7 -8 -9 -9 -8 -7 -7 -6
-4 -4 -4 -4 -4 -4 -3 -3 -4 -4 -4 -4 -4 -4 -4 -4 -4 -3 -3 -3 -3 -3 -3 -4 -5 -4 -6 -6 -7 -6 -6 -6 -4 -5 -6 -6 -7 -7 -8 -9 -9 -8 -7 -7 -6
-4 -4 -4 -4 -4 -4 -4 -3 -3 -4 -4 -4 -4 -4 -4 -3 -4 -3 -4 -4 -3 -3 -4 -4 -4 -4 -5 -5 -5 -6 -6 -6 -6 -5 -5 -6 -7 -8 -8 -9 -9 -8 -7 -6 -6
-5 -4 -4 -4 -4 -4 -4 -4 -3 -3 -3 -3 -4 -4 -4 -3 -4 -3 -4 -4 -4 -4 -3 -3 -3 -4 -4 -4 -4 -5 -5 -6 -6 -6 -5 -5 -6 -8 -8 -7 -8 -7 -7 -6 -6
-5 -5 -4 -4 -4 -4 -4 -4 -4 -3 -4 -4 -4 -4 -4 -4 -4 -4 -3 -3 -4 -3 -3 -3 -3 -3 -4 -3 -3 -4 -5 -6 -6 -6 -6 -6 -6 -7 -8 -7 -8 -7 -7 -6 -5
-5 -5 -5 -4 -4 -4 -4 -4 -4 -3 -4 -4 -4 -4 -4 -4 -4 -4 -4 -3 -4 -3 -3 -4 -3 -3 -4 -4 -5 -5 -6 -6 -6 -6 -6 -6 -6 -6 -7 -7 -7 -8 -7 -7 -5
-5 -4 -5 -5 -4 -4 -4 -4 -4 -3 -4 -4 -4 -4 -3 -3 -4 -4 -4 -4 -3 -4 -4 -3 -3 -4 -5 -5 -5 -6 -6 -7 -7 -7 -6 -6 -6 -6 -7 -7 -7 -7 -8 -6 -6
-4 -4 -5 -5 -4 -4 -4 -4 -4 -3 -3 -4 -4 -4 -5 -3 -4 -4 -4 -3 -4 -4 -4 -3 -4 -5 -5 -5 -5 -5 -5 -6 -7 -7 -7 -7 -6 -5 -6 -5 -5 -5 -6 -6 -6
-5 -4 -4 -5 -5 -4 -4 -4 -4 -3 -3 -3 -4 -4 -3 -4 -3 -4 -4 -4 -3 -3 -4 -3 -3 -4 -3 -4 -5 -4 -5 -6 -7 -7 -7 -6 -5 -5 -6 -6 -5 -6 -5 -6 -6
-6 -5 -5 -4 -5 -4 -4 -4 -4 -4 -4 -3 -3 -3 -3 -4 -4 -4 -4 -4 -3 -4 -4 -3 -4 -4 -4 -4 -5 -5 -6 -7 -7 -8 -8 -6 -5 -4 -5 -5 -5 -5 -5 -5 -5
-8 -7 -6 -5 -5 -5 -5 -5 -4 -4 -3 -4 -4 -4 -4 -4 -4 -4 -3 -3 -4 -4 -4 -3 -4 -3 -3 -4 -5 -5 -6 -7 -7 -7 -6 -5 -4 -4 -4 -5 -6 -5 -5 -5 -5
-8 -8 -7 -7 -7 -7 -6 -6 -6 -4 -4 -4 -4 -4 -4 -4 -4 -4 -4 -3 -3 -3 -3 -3 -3 -3 -3 -3 -3 -3 -5 -6 -6 -6 -1 -4 -4 -2 -4 -6 -6 -5 -5 -5 -5
-8 -7 -7 -7 -7 -8 -8 -8 -6 -4 -4 -5 -5 -5 -5 -5 -5 -4 -4 -3 -3 -4 -4 -4 -3 -3 -3 -3 -4 -3 -3 -3 -3 -2 -2 -4 -2 -1 -4 -6 -7 -6 -7 -7 -5
-9 -8 -8 -8 -7 -8 -8 -8 -8 -7 -5 -5 -5 -6 -6 -6 -5 -5 -5 -5 -5 -4 -4 -4 -3 -4 -4 -4 -4 -3 -3 -4 -4 -4 -4 -3 -3 -4 -4 -5 -6 -6 -7 -6 -6
-11 -10 -9 -8 -7 -7 -8 -8 -8 -7 -7 -6 -6 -6 -6 -6 -6 -6 -5 -5 -5 -5 -4 -4 -4 -4 -5 -4 -4 -4 -5 -4 -4 -4 -3 -2 -2 -2 -3 -5 -6 -5 -6 -6 -6
-16 -14 -12 -11 -10 -8 -8 -8 -8 -8 -7 -7 -7 -7 -6 -6 -6 -7 -6 -6 -5 -5 -5 -4 -4 -4 -5 -3 -4 -3 -3 -3 -4 -3 -3 -3 -2 -2 -3 -4 -5 -6 -7 -6 -6
-22 -21 -19 -18 -15 -13 -11 -10 -9 -10 -8 -7 -7 -7 -7 -7 -7 -8 -7 -6 -6 -6 -5 -5 -5 -4 -4 -4 -5 -5 -4 -5 -5 -3 -3 -2 -1 -2 -3 -4 -5 -6 -6 -6 -6
-23 -24 -24 -23 -21 -20 -17 -15 -13 -12 -11 -9 -8 -7 -7 -7 -8 -9 -8 -6 -7 -6 -6 -5 -5 -5 -5 -5 -4 -4 -4 -4 -4 -3 -2 -2 -1 -3 -3 -3 -4 -5 -6 -6 -5
-24 -25 -25 -25 -25 -24 -22 -20 -17 -16 -15 -13 -10 -9 -8 -7 -8 -9 -10 -8 -7 -7 -6 -6 -5 -5 -4 -5 -5 -4 -4 -3 -3 -2 -1 -1 -1 -2 -3 -4 -4 -4 -5 -5 -6
-24 -25 -26 -26 -26 -25 -24 -24 -22 -21 -20 -18 -16 -13 -11 -10 -9 -9 -10 -10 -9 -8 -7 -6 -7 -5 -5 -5 -4 -4 -4 -3 -3 -3 -2 -2 -2 -2 -3 -4 -5 -4 -4 -5 -6
-24 -25 -26 -26 -26 -26 -26 -26 -26 -25 -24 -23 -22 -19 -16 -14 -12 -11 -11 -11 -11 -10 -9 -8 -7 -6 -6 -5 -5 -4 -4 -4 -3 -3 -2 -2 -2 -2 -3 -3 -4 -4 -3 -4 -4
-25 -25 -25 -26 -26 -26 -26 -26 -26 -26 -25 -25 -24 -23 -21 -18 -16 -14 -13 -12 -12 -11 -10 -9 -8 -8 -6 -6 -5 -5 -4 -4 -4 -3 -3 -2 -2 -2 -3 -3 -3 -4 -4 -3 -3

GFSSW_500_temp_045.txt.gz
Temp
-4 -4 -4 -4 -4 -4 -4 -4 -4 -4 -4 -4 -3 -3 -3 -3 -3 -3 -3 -3 -4 -4 -4 -5 -5 -5 -5 -5 -6 -6 -7 -7 -7 -6 -6 -6 -5 -5 -5 -5 -6 -6 -6 -6 -6
-4 -4 -4 -4 -4 -4 -4 -4 -4 -4 -4 -4 -4 -3 -3 -3 -3 -3 -3 -3 -3 -4 -4 -5 -5 -5 -5 -5 -6 -7 -6 -6 -6 -7 -6 -6 -6 -5 -5 -5 -6 -6 -6 -6 -6
-4 -4 -4 -4 -4 -4 -4 -4 -4 -4 -4 -4 -4 -4 -3 -3 -3 -3 -3 -3 -4 -3 -3 -4 -3 -4 -5 -6 -6 -7 -6 -6 -7 -7 -6 -6 -6 -6 -5 -6 -6 -6 -6 -6 -6
-4 -4 -4 -4 -4 -4 -4 -4 -4 -4 -4 -4 -4 -4 -3 -3 -3 -3 -3 -3 -4 -3 -3 -3 -4 -5 -6 -6 -6 -6 -7 -7 -7 -7 -6 -5 -6 -6 -6 -6 -6 -6 -6 -6 -7
-5 -4 -4 -4 -4 -4 -4 -4 -4 -4 -4 -4 -4 -4 -3 -3 -4 -3 -3 -3 -3 -3 -3 -4 -5 -6 -6 -6 -6 -6 -6 -6 -6 -6 -5 -5 -6 -7 -6 -6 -6 -6 -6 -6 -7
-5 -5 -4 -4 -4 -4 -4 -4 -4 -4 -4 -4 -4 -5 -3 -3 -4 -3 -4 -4 -4 -3 -3 -4 -5 -6 -6 -6 -6 -6 -5 -6 -6 -6 -6 -6 -5 -6 -6 -6 -6 -7 -7 -7 -6
-5 -5 -5 -5 -4 -4 -4 -4 -4 -4 -4 -4 -4 -5 -4 -3 -4 -4 -4 -4 -4 -4 -4 -4 -4 -5 -5 -6 -5 -5 -5 -6 -6 -6 -6 -7 -7 -6 -6 -6 -7 -7 -7 -7 -6
-5 -5 -5 -5 -4 -4 -4 -4 -4 -4 -4 -4 -4 -4 -4 -3 -4 -4 -4 -4 -4 -4 -4 -3 -3 -4 -5 -4 -4 -4 -5 -5 -6 -7 -7 -7 -8 -8 -7 -8 -7 -7 -6 -7 -6
-5 -5 -4 -4 -4 -4 -4 -4 -4 -4 -4 -4 -4 -4 -4 -4 -4 -4 -4 -4 -4 -4 -4 -4 -3 -3 -4 -4 -4 -4 -5 -5 -5 -6 -7 -7 -7 -7 -8 -7 -6 -6 -6 -6 -6
-4 -5 -4 -4 -4 -4 -4 -4 -4 -4 -4 -4 -4 -4 -4 -4 -3 -4 -4 -4 -4 -3 -4 -4 -4 -4 -4 -3 -3 -3 -5 -5 -5 -6 -6 -7 -7 -8 -7 -6 -6 -6 -6 -6 -6
-4 -5 -5 -4 -4 -4 -4 -4 -4 -4 -5 -5 -5 -4 -4 -4 -4 -3 -4 -4 -3 -3 -4 -4 -3 -4 -4 -4 -5 -5 -6 -7 -6 -6 -6 -7 -7 -7 -6 -6 -6 -6 -6 -6 -6
-5 -5 -5 -5 -4 -4 -4 -4 -4 -4 -5 -5 -5 -5 -5 -4 -4 -4 -3 -3 -4 -4 -4 -3 -4 -5 -6 -5 -6 -5 -6 -6 -6 -6 -6 -6 -7 -7 -7 -6 -5 -6 -5 -6 -6
-6 -6 -6 -5 -5 -4 -4 -4 -4 -4 -4 -5 -5 -5 -5 -5 -4 -4 -4 -3 -3 -3 -3 -3 -5 -5 -5 -5 -5 -5 -5 -6 -7 -6 -6 -6 -6 -7 -7 -7 -5 -4 -5 -5 -5
-7 -6 -6 -6 -6 -5 -5 -4 -4 -4 -4 -4 -5 -5 -5 -5 -4 -5 -4 -3 -3 -3 -4 -3 -3 -4 -4 -4 -4 -5 -5 -6 -7 -7 -6 -6 -5 -6 -7 -7 -6 -5 -4 -4 -5
-7 -7 -7 -7 -7 -7 -6 -5 -5 -4 -5 -4 -4 -4 -5 -5 -4 -4 -4 -4 -3 -3 -4 -3 -4 -4 -4 -4 -4 -5 -6 -7 -8 -7 -7 -6 -5 -5 -6 -6 -6 -5 -5 -4 -4
-7 -7 -7 -7 -8 -8 -7 -6 -5 -6 -4 -5 -5 -5 -4 -4 -4 -5 -4 -4 -4 -4 -3 -4 -4 -4 -4 -4 -4 -5 -6 -6 -7 -7 -6 -5 -5 -4 -5 -5 -7 -7 -5 -5 -4
-8 -7 -7 -7 -8 -8 -8 -8 -7 -6 -5 -5 -5 -5 -5 -5 -5 -5 -5 -4 -4 -3 -3 -4 -3 -3 -3 -4 -4 -3 -4 -5 -6 -5 -2 -5 -5 -3 -5 -5 -6 -7 -7 -5 -4
-10 -8 -8 -8 -8 -8 -9 -9 -8 -7 -6 -6 -6 -6 -7 -6 -5 -5 -5 -5 -4 -4 -4 -4 -3 -3 -3 -3 -3 -3 -3 -3 -3 -2 -3 -4 -2 -2 -5 -6 -6 -6 -6 -6 -5
-16 -14 -11 -10 -9 -9 -9 -10 -9 -9 -7 -7 -7 -7 -7 -7 -7 -6 -6 -5 -5 -5 -4 -4 -4 -4 -4 -4 -4 -4 -3 -4 -4 -4 -3 -3 -3 -4 -4 -6 -7 -7 -6 -5 -5
-19 -19 -19 -18 -15 -12 -11 -11 -11 -9 -9 -8 -8 -8 -8 -8 -8 -7 -7 -6 -6 -5 -5 -4 -4 -4 -5 -5 -5 -4 -5 -5 -4 -3 -3 -2 -2 -2 -4 -5 -6 -6 -6 -6 -6
-20 -21 -22 -22 -22 -20 -18 -16 -15 -12 -10 -9 -9 -9 -8 -9 -9 -9 -7 -6 -6 -6 -5 -5 -4 -5 -5 -3 -4 -3 -3 -3 -3 -3 -3 -2 -1 -3 -3 -4 -6 -5 -6 -7 -5
-21 -22 -23 -23 -23 -23 -23 -21 -18 -16 -13 -11 -9 -9 -9 -9 -9 -10 -9 -7 -7 -6 -6 -5 -5 -5 -5 -5 -5 -4 -4 -5 -5 -3 -3 -3 -2 -2 -3 -4 -5 -6 -6 -6 -6
-21 -23 -24 -24 -24 -25 -25 -24 -22 -20 -17 -14 -12 -10 -9 -10 -11 -10 -10 -9 -8 -7 -7 -6 -6 -5 -5 -5 -5 -4 -4 -3 -3 -4 -2 -2 -1 -2 -3 -4 -4 -5 -5 -5 -6
-21 -22 -24 -24 -25 -25 -25 -25 -25 -23 -20 -18 -16 -14 -12 -11 -12 -12 -11 -10 -9 -8 -7 -7 -6 -6 -6 -5 -5 -4 -4 -3 -3 -3 -2 -1 -1 -2 -2 -3 -4 -4 -4 -5 -6
-22 -22 -24 -25 -25 -26 -26 -26 -26 -25 -23 -22 -21 -18 -15 -14 -13 -13 -12 -12 -11 -9 -8 -8 -7 -7 -6 -6 -5 -4 -4 -4 -3 -3 -2 -2 -2 -2 -3 -3 -4 -4 -5 -6 -5
-22 -23 -24 -25 -25 -26 -26 -26 -26 -26 -26 -25 -24 -23 -21 -18 -15 -15 -14 -13 -12 -11 -9 -8 -8 -7 -7 -7 -6 -5 -5 -4 -4 -3 -3 -2 -2 -2 -2 -3 -4 -4 -4 -5 -5
-22 -23 -24 -25 -25 -26 -26 -26 -26 -26 -26 -26 -25 -24 -24 -22 -19 -16 -15 -14 -13 -12 -10 -9 -8 -8 -7 -7 -7 -6 -5 -5 -5 -4 -3 -2 -2 -3 -3 -3 -4 -4 -4 -4 -5

GFSSW_500_temp_048.txt.gz
Temp
-4 -4 -4 -4 -4 -4 -4 -4 -4 -4 -4 -4 -4 -3 -3 -3 -3 -3 -3 -3 -4 -4 -5 -5 -5 -5 -6 -6 -6 -5 -4 -6 -7 -7 -6 -5 -5 -5 -5 -5 -5 -5 -5 -5 -5
-4 -4 -4 -4 -4 -4 -4 -4 -4 -4 -4 -4 -4 -4 -3 -3 -3 -3 -3 -3 -3 -4 -4 -5 -5 -5 -6 -6 -6 -6 -7 -7 -7 -6 -5 -5 -5 -5 -5 -5 -5 -5 -6 -6 -6
-5 -5 -4 -4 -4 -4 -4 -4 -4 -4 -4 -4 -4 -4 -3 -3 -4 -3 -3 -3 -3 -3 -4 -4 -3 -4 -5 -6 -6 -6 -6 -7 -6 -6 -6 -5 -5 -5 -6 -6 -6 -6 -6 -6 -6
-5 -5 -5 -5 -4 -4 -4 -4 -4 -4 -4 -4 -4 -4 -3 -4 -4 -4 -4 -3 -3 -3 -3 -4 -4 -5 -5 -6 -6 -6 -7 -7 -6 -6 -6 -5 -5 -5 -6 -6 -5 -5 -6 -6 -6
-5 -5 -5 -5 -5 -5 -4 -4 -4 -4 -4 -4 -4 -4 -3 -4 -4 -3 -4 -4 -3 -3 -3 -4 -5 -5 -5 -6 -7 -7 -7 -7 -6 -6 -6 -6 -6 -5 -5 -6 -5 -5 -6 -6 -6
-5 -5 -5 -5 -5 -5 -5 -4 -4 -4 -4 -5 -5 -4 -3 -3 -4 -3 -4 -4 -3 -4 -3 -4 -5 -5 -5 -6 -6 -6 -7 -6 -7 -6 -7 -6 -6 -6 -6 -6 -5 -5 -5 -6 -6
-5 -5 -5 -5 -5 -5 -5 -5 -5 -4 -4 -4 -4 -5 -4 -3 -4 -4 -4 -4 -4 -4 -4 -4 -5 -5 -4 -5 -6 -6 -6 -7 -6 -7 -6 -7 -7 -7 -6 -6 -5 -6 -5 -5 -6
-5 -4 -4 -5 -5 -5 -5 -5 -5 -5 -4 -4 -4 -4 -5 -3 -4 -4 -4 -4 -4 -4 -4 -4 -3 -4 -5 -4 -5 -6 -6 -6 -7 -7 -7 -7 -9 -7 -7 -7 -6 -6 -6 -6 -6
-5 -5 -4 -4 -4 -4 -4 -5 -5 -5 -5 -5 -5 -5 -5 -4 -4 -4 -5 -4 -4 -4 -4 -4 -4 -3 -4 -4 -4 -5 -5 -6 -7 -7 -7 -7 -8 -7 -7 -6 -7 -6 -6 -6 -6
-5 -5 -5 -4 -4 -4 -4 -4 -4 -4 -5 -5 -5 -5 -5 -4 -4 -4 -4 -4 -4 -4 -4 -4 -4 -4 -4 -4 -3 -4 -5 -6 -7 -7 -8 -8 -7 -7 -7 -7 -6 -6 -6 -6 -6
-6 -6 -6 -5 -5 -4 -4 -4 -4 -4 -5 -5 -5 -5 -5 -5 -5 -4 -4 -4 -4 -4 -4 -4 -4 -4 -4 -4 -5 -4 -5 -6 -7 -7 -7 -8 -7 -8 -7 -6 -6 -5 -5 -5 -5
-7 -7 -6 -6 -5 -5 -5 -4 -4 -4 -4 -4 -5 -5 -5 -5 -5 -5 -4 -4 -4 -4 -4 -4 -5 -5 -5 -5 -6 -6 -5 -6 -7 -6 -6 -7 -7 -7 -7 -7 -7 -5 -5 -5 -5
-7 -7 -7 -7 -6 -6 -6 -5 -5 -4 -4 -5 -4 -5 -5 -4 -5 -5 -4 -4 -4 -4 -4 -5 -5 -5 -5 -5 -5 -5 -6 -6 -7 -6 -6 -6 -7 -7 -7 -6 -7 -6 -5 -4 -4
-6 -7 -7 -7 -7 -7 -7 -6 -5 -5 -5 -4 -5 -4 -5 -4 -4 -5 -5 -5 -4 -4 -5 -4 -4 -4 -5 -4 -5 -5 -6 -6 -7 -6 -6 -6 -6 -7 -7 -7 -6 -7 -6 -4 -4
-7 -7 -6 -6 -6 -7 -7 -7 -7 -6 -6 -4 -4 -5 -5 -5 -4 -4 -5 -5 -4 -4 -4 -3 -5 -5 -4 -4 -5 -4 -6 -6 -7 -7 -7 -6 -6 -6 -7 -6 -6 -6 -6 -5 -4
-9 -9 -8 -8 -7 -7 -7 -7 -7 -8 -7 -6 -5 -5 -5 -5 -4 -4 -5 -5 -5 -5 -4 -4 -5 -4 -5 -5 -4 -5 -6 -6 -7 -7 -6 -5 -5 -5 -6 -6 -6 -7 -6 -5 -5
-15 -15 -13 -12 -10 -8 -7 -8 -8 -8 -8 -7 -6 -6 -6 -5 -5 -5 -5 -4 -4 -4 -3 -4 -3 -4 -4 -4 -4 -4 -5 -5 -7 -6 -2 -4 -5 -3 -5 -5 -6 -7 -6 -5 -5
-17 -17 -17 -17 -16 -14 -11 -9 -9 -9 -8 -7 -7 -7 -8 -7 -6 -5 -5 -5 -4 -5 -5 -4 -4 -4 -4 -4 -3 -3 -4 -4 -4 -5 -5 -5 -3 -3 -5 -5 -5 -6 -6 -5 -5
-18 -18 -18 -19 -19 -18 -17 -14 -14 -11 -7 -8 -9 -9 -9 -9 -8 -7 -6 -6 -5 -5 -5 -4 -4 -4 -4 -4 -4 -4 -3 -4 -4 -4 -4 -5 -3 -4 -4 -6 -5 -6 -6 -5 -5
-18 -19 -19 -19 -20 -20 -21 -20 -19 -16 -12 -11 -12 -10 -10 -9 -9 -8 -7 -6 -6 -6 -6 -5 -5 -4 -5 -5 -5 -4 -5 -4 -4 -4 -3 -3 -3 -2 -4 -5 -6 -6 -5 -5 -5
-18 -19 -20 -20 -20 -21 -22 -23 -22 -20 -17 -15 -14 -12 -12 -11 -11 -10 -8 -7 -7 -6 -5 -5 -5 -5 -4 -4 -4 -4 -4 -4 -4 -4 -3 -3 -3 -3 -4 -5 -5 -6 -5 -5 -5
-19 -20 -20 -21 -21 -22 -23 -24 -24 -24 -21 -18 -16 -15 -14 -12 -12 -11 -9 -8 -7 -7 -6 -5 -5 -6 -4 -5 -5 -5 -4 -4 -3 -3 -3 -3 -3 -3 -4 -4 -5 -5 -6 -5 -6
-20 -20 -21 -22 -22 -23 -24 -25 -25 -25 -24 -22 -20 -18 -16 -15 -14 -12 -11 -9 -8 -7 -7 -6 -5 -6 -6 -5 -5 -5 -4 -4 -4 -4 -3 -3 -3 -2 -4 -4 -5 -4 -4 -5 -5
-20 -21 -21 -22 -23 -23 -24 -25 -26 -25 -25 -24 -23 -20 -18 -17 -16 -14 -12 -11 -9 -8 -8 -7 -7 -6 -6 -6 -6 -5 -4 -4 -4 -3 -2 -2 -3 -3 -4 -5 -4 -5 -5 -5 -5
-20 -21 -22 -23 -23 -24 -25 -25 -26 -26 -26 -25 -24 -23 -21 -19 -18 -16 -14 -12 -10 -9 -9 -8 -7 -6 -7 -5 -5 -5 -5 -4 -3 -3 -2 -3 -2 -3 -3 -4 -5 -5 -5 -5 -6
-21 -21 -22 -23 -23 -24 -25 -26 -26 -26 -26 -26 -24 -24 -24 -22 -19 -18 -15 -14 -12 -10 -10 -9 -8 -7 -7 -7 -5 -5 -5 -4 -4 -3 -3 -3 -3 -3 -3 -4 -4 -5 -5 -5 -5
-20 -21 -22 -23 -23 -24 -25 -26 -26 -26 -26 -26 -25 -24 -23 -23 -21 -18 -17 -15 -13 -12 -11 -10 -9 -8 -8 -8 -7 -6 -5 -4 -4 -4 -4 -3 -4 -3 -3 -4 -4 -5 -5 -5 -5

GFSSW_500_temp_051.txt.gz
Temp
-4 -4 -4 -4 -4 -4 -4 -4 -4 -4 -3 -4 -4 -3 -3 -3 -3 -2 -2 -3 -4 -4 -4 -4 -5 -5 -6 -6 -6 -5 -5 -6 -6 -7 -6 -5 -4 -4 -4 -4 -4 -4 -5 -5 -5
-5 -4 -4 -4 -4 -4 -4 -4 -4 -4 -4 -3 -4 -4 -3 -3 -3 -3 -2 -3 -3 -4 -4 -4 -4 -5 -5 -6 -5 -5 -5 -5 -5 -5 -5 -5 -4 -4 -5 -5 -5 -5 -5 -6 -5
-5 -5 -5 -4 -4 -4 -4 -4 -4 -4 -4 -4 -4 -4 -4 -4 -4 -3 -3 -3 -3 -3 -4 -3 -3 -3 -5 -5 -5 -5 -4 -6 -5 -5 -5 -4 -3 -4 -5 -5 -5 -5 -5 -5 -5
-5 -5 -5 -5 -5 -4 -4 -4 -4 -4 -4 -4 -4 -4 -4 -4 -4 -4 -3 -3 -3 -3 -3 -4 -4 -4 -5 -6 -5 -6 -5 -7 -7 -4 -5 -6 -6 -4 -5 -5 -5 -5 -5 -5 -6
-5 -5 -5 -5 -5 -5 -5 -4 -4 -4 -4 -4 -4 -4 -3 -4 -4 -3 -4 -3 -3 -3 -3 -4 -4 -5 -5 -6 -6 -5 -5 -6 -6 -6 -6 -7 -8 -6 -5 -5 -5 -5 -6 -6 -6
-4 -4 -5 -5 -5 -5 -5 -5 -4 -4 -4 -4 -4 -4 -4 -4 -4 -4 -4 -4 -3 -3 -3 -4 -4 -5 -6 -5 -6 -7 -7 -7 -8 -8 -8 -7 -9 -6 -5 -5 -5 -5 -5 -6 -6
-5 -5 -4 -4 -4 -5 -5 -5 -5 -4 -4 -4 -4 -4 -4 -3 -4 -4 -4 -4 -4 -4 -4 -4 -4 -4 -5 -5 -5 -6 -6 -6 -6 -8 -9 -7 -8 -5 -6 -6 -5 -5 -5 -5 -5
-5 -5 -5 -5 -4 -4 -5 -5 -5 -5 -5 -5 -4 -4 -4 -3 -4 -4 -4 -4 -4 -4 -4 -4 -4 -4 -4 -5 -5 -6 -7 -7 -7 -7 -8 -6 -7 -7 -5 -6 -6 -6 -5 -5 -5
-6 -5 -5 -5 -5 -5 -4 -5 -5 -5 -5 -5 -5 -5 -5 -4 -4 -4 -4 -4 -4 -4 -4 -4 -4 -4 -4 -4 -5 -6 -6 -6 -7 -8 -8 -5 -6 -5 -6 -5 -6 -6 -6 -6 -5
-6 -6 -6 -5 -5 -5 -5 -4 -5 -5 -5 -5 -5 -5 -5 -5 -4 -4 -4 -4 -4 -4 -4 -4 -4 -5 -4 -4 -4 -5 -6 -8 -7 -8 -8 -7 -6 -5 -6 -6 -6 -6 -6 -6 -5
-7 -7 -6 -6 -6 -5 -5 -5 -5 -4 -5 -5 -4 -5 -5 -5 -5 -4 -5 -4 -4 -4 -4 -4 -4 -4 -4 -4 -5 -8 -8 -8 -7 -6 -8 -8 -8 -6 -6 -6 -7 -6 -6 -6 -5
-6 -6 -6 -6 -6 -6 -6 -6 -5 -5 -4 -5 -5 -4 -5 -5 -5 -5 -5 -4 -4 -4 -5 -4 -4 -5 -5 -6 -6 -6 -8 -8 -7 -7 -7 -7 -8 -8 -8 -8 -7 -7 -6 -5 -5
-6 -6 -6 -6 -6 -6 -6 -6 -6 -5 -4 -5 -5 -5 -5 -5 -5 -5 -5 -5 -5 -5 -4 -4 -5 -5 -5 -4 -5 -6 -6 -8 -8 -8 -7 -8 -8 -8 -8 -8 -7 -7 -6 -5 -5
-6 -6 -6 -6 -6 -6 -6 -6 -6 -6 -6 -5 -6 -5 -5 -5 -5 -5 -5 -5 -5 -4 -5 -5 -5 -5 -5 -4 -5 -5 -5 -7 -9 -8 -7 -7 -7 -8 -7 -8 -6 -6 -6 -5 -6
-9 -9 -8 -7 -6 -6 -7 -6 -6 -6 -7 -6 -5 -5 -5 -5 -5 -5 -5 -5 -5 -5 -5 -4 -4 -4 -4 -4 -5 -4 -6 -7 -7 -9 -8 -8 -8 -7 -7 -7 -7 -6 -7 -7 -5
-15 -15 -15 -14 -13 -11 -9 -8 -7 -7 -7 -10 -6 -6 -6 -5 -6 -5 -5 -6 -6 -6 -5 -5 -5 -5 -5 -5 -5 -6 -6 -6 -7 -7 -8 -6 -7 -7 -7 -7 -7 -7 -7 -6 -5
-16 -16 -16 -16 -17 -17 -17 -15 -12 -10 -13 -12 -7 -6 -6 -6 -6 -6 -5 -5 -5 -4 -4 -5 -5 -5 -5 -5 -5 -5 -5 -5 -7 -7 -5 -5 -6 -6 -7 -7 -7 -7 -6 -6 -5
-16 -16 -16 -17 -17 -17 -18 -19 -18 -15 -18 -11 -9 -6 -6 -7 -7 -6 -6 -6 -6 -6 -6 -5 -5 -4 -4 -4 -4 -4 -5 -4 -4 -6 -6 -6 -5 -5 -6 -8 -8 -7 -7 -6 -5
-16 -16 -17 -17 -17 -18 -18 -20 -21 -21 -17 -15 -10 -11 -11 -11 -9 -8 -7 -6 -6 -6 -6 -5 -5 -5 -5 -5 -5 -4 -4 -4 -7 -7 -7 -6 -5 -6 -7 -7 -6 -5 -6 -6 -5
-16 -16 -17 -17 -17 -19 -19 -21 -22 -21 -20 -19 -16 -15 -14 -15 -12 -10 -9 -8 -7 -6 -7 -7 -8 -6 -5 -6 -5 -5 -5 -5 -5 -6 -6 -6 -6 -6 -6 -5 -6 -6 -5 -5 -5
-17 -17 -17 -18 -19 -20 -21 -21 -22 -22 -22 -21 -19 -18 -15 -15 -12 -12 -12 -12 -8 -7 -7 -7 -9 -8 -7 -5 -4 -5 -4 -4 -5 -5 -7 -6 -6 -6 -7 -5 -5 -5 -5 -5 -5
-17 -18 -19 -19 -20 -20 -21 -22 -23 -23 -23 -23 -21 -19 -17 -16 -15 -12 -14 -13 -9 -8 -7 -7 -8 -8 -5 -5 -5 -5 -5 -4 -4 -4 -5 -6 -5 -6 -6 -7 -5 -5 -5 -5 -5
-18 -18 -18 -20 -21 -21 -22 -23 -24 -25 -25 -24 -23 -21 -20 -17 -17 -15 -14 -8 -9 -9 -9 -7 -6 -6 -8 -10 -6 -5 -5 -5 -5 -5 -5 -7 -6 -5 -5 -6 -5 -5 -5 -5 -5
-19 -19 -20 -21 -21 -22 -23 -23 -24 -26 -26 -25 -24 -23 -22 -19 -18 -17 -15 -11 -10 -10 -8 -7 -6 -6 -7 -6 -7 -5 -4 -5 -5 -5 -6 -6 -7 -5 -5 -5 -5 -5 -5 -5 -5
-19 -19 -20 -21 -21 -22 -23 -23 -24 -25 -26 -25 -24 -24 -24 -21 -20 -18 -17 -14 -12 -10 -11 -9 -8 -7 -8 -10 -10 -8 -5 -5 -4 -5 -5 -7 -7 -8 -6 -5 -5 -5 -5 -5 -5
-19 -19 -20 -21 -22 -23 -23 -24 -25 -25 -25 -26 -25 -25 -24 -23 -22 -20 -18 -17 -14 -12 -13 -10 -8 -9 -9 -10 -9 -7 -5 -5 -6 -5 -6 -6 -8 -8 -7 -5 -5 -5 -5 -5 -5
-19 -19 -20 -21 -22 -23 -24 -24 -25 -25 -26 -26 -26 -25 -24 -23 -23 -21 -20 -18 -14 -13 -11 -10 -10 -10 -8 -9 -7 -6 -5 -5 -7 -9 -6 -6 -7 -8 -7 -4 -5 -5 -5 -5 -5

GFSSW_500_temp_054.txt.gz
Temp
-4 -4 -4 -4 -4 -4 -4 -4 -4 -4 -3 -3 -3 -3 -3 -3 -3 -2 -2 -2 -4 -3 -4 -3 -4 -4 -4 -4 -4 -4 -5 -5 -6 -6 -6 -4 -5 -4 -4 -3 -4 -4 -4 -4 -4
-4 -4 -4 -4 -4 -4 -4 -4 -4 -4 -3 -4 -3 -3 -3 -3 -3 -2 -2 -3 -3 -3 -3 -3 -4 -4 -4 -3 -3 -4 -5 -5 -5 -5 -6 -5 -5 -4 -4 -4 -4 -4 -4 -4 -5
-4 -4 -4 -4 -4 -4 -4 -4 -4 -4 -4 -4 -3 -3 -3 -3 -3 -3 -3 -3 -3 -3 -3 -3 -3 -3 -3 -3 -4 -4 -5 -5 -5 -5 -6 -5 -6 -4 -4 -4 -3 -4 -4 -4 -5
-5 -5 -5 -5 -4 -4 -4 -4 -4 -4 -4 -4 -4 -4 -3 -4 -4 -3 -3 -3 -3 -3 -3 -3 -3 -3 -4 -4 -4 -5 -5 -6 -6 -5 -6 -6 -6 -5 -5 -4 -4 -5 -5 -5 -5
-5 -4 -4 -5 -5 -5 -4 -4 -4 -4 -4 -4 -4 -4 -4 -4 -4 -3 -3 -3 -3 -3 -3 -4 -3 -4 -5 -5 -4 -5 -5 -5 -5 -6 -8 -5 -5 -6 -5 -4 -4 -4 -5 -5 -5
-5 -5 -5 -4 -4 -5 -4 -4 -4 -4 -4 -4 -4 -4 -4 -4 -4 -4 -4 -3 -3 -3 -3 -3 -4 -4 -5 -4 -4 -6 -7 -6 -6 -7 -8 -7 -5 -6 -6 -4 -5 -5 -5 -5 -5
-5 -5 -5 -5 -5 -4 -4 -4 -4 -4 -5 -4 -4 -4 -4 -4 -4 -5 -3 -4 -4 -3 -3 -3 -4 -4 -4 -4 -4 -7 -6 -7 -5 -6 -7 -7 -5 -5 -5 -5 -5 -5 -5 -5 -5
-6 -5 -5 -5 -5 -5 -4 -4 -4 -5 -5 -5 -5 -4 -4 -4 -4 -4 -4 -4 -4 -4 -3 -4 -4 -4 -4 -4 -4 -5 -4 -5 -6 -5 -6 -7 -6 -5 -7 -6 -5 -5 -5 -5 -5
-6 -6 -6 -6 -6 -5 -5 -5 -4 -4 -4 -5 -5 -5 -5 -4 -4 -4 -4 -4 -4 -4 -4 -4 -4 -4 -4 -4 -5 -4 -4 -4 -6 -7 -7 -8 -6 -6 -5 -6 -6 -5 -5 -5 -5
-6 -6 -6 -6 -6 -6 -6 -5 -5 -5 -4 -4 -4 -5 -5 -5 -4 -4 -4 -4 -4 -4 -4 -4 -4 -4 -4 -4 -3 -4 -4 -7 -8 -6 -6 -7 -6 -6 -6 -5 -7 -6 -5 -5 -5
-6 -6 -6 -6 -6 -6 -6 -6 -5 -5 -5 -5 -4 -5 -5 -5 -5 -5 -5 -5 -4 -4 -4 -4 -4 -3 -4 -4 -5 -5 -6 -6 -7 -7 -6 -7 -6 -5 -7 -6 -4 -5 -5 -5 -5
-6 -6 -5 -5 -5 -5 -5 -5 -5 -5 -5 -5 -5 -4 -5 -5 -5 -5 -5 -4 -4 -4 -4 -4 -4 -4 -5 -5 -5 -6 -7 -8 -7 -6 -7 -7 -6 -6 -6 -5 -5 -6 -6 -4 -5
-6 -6 -5 -5 -5 -5 -5 -5 -5 -5 -5 -5 -5 -5 -6 -5 -5 -6 -5 -5 -5 -5 -5 -4 -4 -5 -5 -5 -5 -5 -6 -7 -7 -7 -6 -7 -6 -5 -6 -7 -6 -5 -5 -5 -5
-7 -7 -7 -7 -6 -6 -5 -5 -5 -5 -5 -5 -6 -6 -6 -5 -5 -6 -5 -5 -5 -5 -5 -5 -5 -5 -5 -4 -4 -5 -5 -7 -8 -8 -6 -7 -5 -7 -6 -7 -7 -7 -6 -5 -5
-13 -14 -14 -14 -14 -13 -11 -9 -6 -5 -6 -10 -6 -6 -7 -6 -6 -7 -6 -6 -5 -5 -5 -4 -5 -5 -5 -4 -5 -4 -6 -6 -8 -8 -7 -7 -6 -7 -6 -6 -7 -7 -6 -6 -5
-16 -16 -15 -16 -16 -15 -15 -15 -14 -11 -11 -13 -9 -7 -6 -7 -7 -7 -7 -6 -7 -7 -6 -5 -5 -6 -5 -5 -5 -6 -7 -8 -7 -9 -8 -7 -7 -6 -7 -6 -7 -7 -6 -6 -5
-16 -15 -15 -15 -15 -16 -16 -16 -16 -15 -15 -15 -13 -8 -7 -6 -7 -9 -7 -7 -6 -6 -5 -6 -5 -5 -5 -6 -6 -6 -6 -7 -8 -7 -5 -6 -7 -7 -6 -7 -5 -6 -6 -6 -7
-15 -15 -15 -16 -16 -16 -15 -16 -16 -17 -17 -16 -14 -13 -10 -11 -10 -10 -11 -7 -7 -7 -7 -6 -5 -5 -5 -5 -5 -5 -5 -5 -6 -8 -7 -6 -6 -4 -6 -7 -7 -7 -6 -6 -6
-16 -16 -15 -16 -16 -16 -16 -17 -18 -18 -18 -17 -17 -14 -16 -16 -12 -11 -12 -10 -8 -7 -6 -7 -5 -7 -6 -6 -5 -6 -5 -6 -8 -8 -8 -7 -7 -6 -6 -6 -7 -7 -7 -7 -6
-16 -15 -15 -16 -16 -17 -17 -18 -20 -18 -19 -19 -19 -19 -16 -16 -14 -13 -10 -11 -13 -9 -8 -7 -10 -7 -8 -8 -6 -6 -6 -6 -7 -7 -7 -7 -6 -6 -6 -7 -7 -7 -7 -7 -7
-17 -17 -16 -17 -18 -18 -19 -19 -19 -20 -20 -21 -21 -21 -19 -17 -16 -14 -13 -13 -14 -13 -12 -10 -9 -9 -10 -8 -6 -6 -8 -6 -6 -6 -7 -6 -5 -5 -5 -6 -6 -7 -6 -7 -7
-16 -17 -18 -19 -19 -20 -21 -20 -20 -21 -21 -22 -23 -24 -21 -19 -16 -15 -14 -13 -13 -13 -12 -11 -10 -10 -9 -9 -7 -7 -6 -6 -5 -5 -6 -6 -5 -5 -5 -6 -6 -6 -7 -6 -6
-17 -17 -17 -18 -19 -20 -21 -21 -21 -23 -23 -24 -24 -24 -23 -19 -16 -15 -14 -14 -13 -13 -13 -13 -9 -9 -9 -10 -10 -7 -6 -6 -7 -7 -6 -7 -6 -6 -6 -6 -7 -5 -5 -6 -5
-17 -17 -18 -18 -19 -20 -21 -22 -22 -23 -23 -24 -24 -25 -24 -21 -18 -17 -14 -14 -14 -14 -12 -11 -9 -9 -8 -6 -8 -8 -7 -6 -7 -7 -7 -7 -7 -6 -6 -6 -6 -6 -4 -5 -5
-17 -17 -18 -19 -20 -21 -21 -23 -23 -24 -23 -23 -24 -24 -24 -23 -21 -19 -15 -15 -14 -14 -12 -12 -11 -10 -9 -10 -9 -9 -7 -6 -5 -7 -7 -7 -7 -7 -7 -6 -6 -5 -4 -6 -7
-16 -17 -18 -20 -20 -21 -22 -23 -24 -24 -24 -24 -24 -24 -24 -24 -23 -21 -18 -16 -15 -14 -14 -13 -10 -11 -9 -9 -9 -10 -9 -7 -8 -8 -8 -7 -7 -7 -8 -6 -6 -5 -5 -5 -5
-16 -17 -18 -19 -20 -21 -22 -23 -24 -24 -25 -25 -25 -25 -25 -24 -24 -22 -19 -19 -17 -15 -14 -13 -13 -11 -9 -9 -8 -10 -10 -9 -9 -9 -9 -8 -7 -8 -8 -8 -5 -5 -4 -5 -5

GFSSW_500_temp_057.txt.gz
Temp
-4 -4 -4 -4 -4 -4 -4 -3 -3 -3 -3 -3 -3 -3 -3 -3 -2 -3 -2 -2 -3 -3 -3 -3 -3 -3 -3 -4 -4 -5 -5 -4 -4 -5 -4 -5 -5 -5 -4 -4 -4 -4 -4 -4 -4
-5 -4 -4 -4 -4 -4 -4 -4 -4 -4 -3 -3 -3 -3 -3 -3 -3 -2 -3 -3 -3 -3 -3 -3 -3 -3 -3 -3 -4 -4 -3 -4 -5 -5 -5 -5 -5 -4 -4 -4 -5 -4 -5 -4 -5
-5 -5 -5 -4 -4 -4 -4 -4 -4 -4 -4 -3 -3 -3 -3 -3 -3 -2 -3 -3 -3 -3 -3 -3 -3 -2 -2 -3 -3 -4 -3 -4 -5 -5 -5 -5 -6 -4 -3 -4 -5 -4 -5 -5 -5
-5 -5 -5 -4 -4 -4 -4 -4 -4 -4 -4 -4 -4 -3 -3 -3 -4 -3 -3 -3 -3 -3 -3 -3 -3 -3 -3 -3 -3 -3 -3 -4 -5 -6 -5 -6 -6 -6 -3 -4 -5 -5 -5 -5 -5
-5 -5 -5 -5 -4 -4 -4 -4 -4 -4 -4 -4 -4 -4 -3 -4 -4 -4 -3 -3 -3 -3 -3 -3 -3 -4 -4 -4 -3 -3 -4 -6 -5 -4 -5 -6 -6 -7 -3 -4 -6 -6 -6 -5 -5
-5 -5 -5 -5 -5 -4 -4 -4 -4 -4 -4 -4 -4 -4 -4 -4 -3 -4 -3 -3 -3 -3 -3 -4 -4 -4 -4 -4 -4 -4 -5 -6 -6 -5 -6 -5 -6 -5 -4 -5 -5 -5 -6 -6 -6
-6 -6 -6 -5 -5 -5 -4 -4 -4 -4 -4 -4 -4 -4 -4 -5 -4 -4 -4 -3 -4 -4 -3 -4 -4 -3 -4 -3 -4 -4 -4 -6 -7 -7 -6 -5 -6 -5 -5 -5 -5 -5 -6 -6 -6
-6 -6 -6 -6 -6 -5 -5 -5 -5 -4 -4 -4 -4 -4 -4 -4 -4 -4 -5 -4 -4 -4 -4 -4 -4 -4 -4 -5 -4 -5 -4 -4 -6 -7 -6 -6 -6 -5 -6 -5 -5 -4 -6 -6 -6
-6 -6 -6 -6 -6 -6 -6 -5 -5 -5 -5 -4 -4 -4 -5 -5 -5 -4 -4 -4 -4 -4 -4 -4 -4 -4 -4 -4 -4 -3 -3 -4 -6 -6 -6 -6 -5 -5 -6 -6 -5 -4 -5 -6 -5
-6 -6 -6 -6 -6 -6 -6 -6 -5 -5 -5 -5 -4 -4 -4 -5 -5 -4 -5 -5 -4 -4 -4 -4 -4 -4 -3 -3 -2 -3 -4 -4 -5 -6 -6 -6 -5 -5 -6 -6 -6 -6 -5 -5 -5
-6 -6 -6 -6 -6 -6 -5 -5 -5 -5 -5 -5 -5 -5 -5 -5 -5 -5 -5 -5 -5 -4 -4 -4 -4 -3 -4 -4 -4 -5 -5 -5 -6 -7 -6 -7 -5 -6 -6 -7 -6 -7 -6 -4 -5
-6 -6 -6 -5 -5 -5 -5 -5 -5 -5 -5 -5 -5 -5 -6 -5 -5 -5 -5 -5 -5 -5 -5 -4 -3 -4 -4 -5 -5 -5 -5 -4 -7 -7 -7 -7 -6 -5 -7 -7 -7 -6 -5 -4 -5
-7 -6 -6 -6 -6 -5 -5 -5 -5 -5 -5 -5 -6 -5 -6 -6 -5 -5 -6 -6 -5 -6 -5 -5 -4 -5 -5 -5 -4 -5 -5 -5 -6 -7 -8 -7 -7 -6 -6 -6 -6 -5 -5 -6 -5
-9 -10 -9 -11 -9 -10 -9 -9 -7 -5 -7 -6 -6 -5 -6 -6 -6 -7 -6 -6 -6 -5 -6 -5 -6 -5 -5 -5 -5 -4 -5 -6 -6 -8 -8 -7 -7 -5 -6 -6 -6 -6 -5 -5 -6
-13 -14 -15 -14 -16 -15 -15 -15 -14 -11 -13 -10 -6 -6 -6 -6 -7 -8 -9 -7 -7 -6 -6 -4 -6 -5 -5 -5 -5 -4 -5 -6 -6 -8 -7 -8 -8 -6 -7 -6 -5 -5 -5 -5 -5
-16 -16 -15 -15 -15 -15 -15 -15 -15 -15 -15 -13 -11 -9 -8 -7 -7 -9 -9 -7 -8 -8 -7 -6 -6 -6 -5 -5 -5 -5 -6 -6 -7 -8 -8 -8 -7 -7 -6 -6 -6 -6 -6 -5 -5
-17 -16 -15 -15 -15 -15 -15 -15 -15 -15 -15 -15 -13 -13 -13 -13 -11 -10 -10 -8 -7 -8 -6 -7 -6 -6 -6 -6 -6 -6 -7 -7 -8 -8 -6 -6 -8 -6 -7 -7 -7 -6 -6 -5 -6
-16 -15 -15 -15 -15 -15 -15 -15 -16 -17 -16 -15 -15 -15 -16 -16 -14 -11 -10 -9 -7 -8 -8 -7 -6 -6 -6 -6 -6 -6 -6 -4 -5 -5 -4 -6 -7 -4 -6 -7 -7 -7 -6 -6 -6
-16 -15 -15 -15 -15 -15 -16 -17 -18 -18 -17 -16 -16 -16 -15 -16 -16 -13 -11 -10 -10 -9 -10 -10 -7 -8 -8 -7 -7 -6 -7 -6 -6 -6 -7 -6 -7 -6 -5 -6 -7 -7 -7 -7 -7
-15 -16 -15 -15 -15 -16 -17 -18 -19 -19 -18 -18 -18 -17 -16 -16 -16 -16 -13 -13 -13 -11 -12 -9 -10 -9 -8 -9 -7 -6 -8 -8 -7 -8 -7 -7 -6 -5 -6 -6 -6 -6 -7 -7 -7
-16 -17 -16 -16 -16 -17 -18 -18 -18 -20 -19 -19 -19 -18 -19 -18 -17 -16 -15 -15 -14 -13 -11 -10 -10 -7 -10 -9 -7 -8 -9 -8 -8 -7 -8 -8 -5 -6 -6 -6 -6 -5 -7 -7 -7
-17 -17 -16 -17 -17 -17 -18 -19 -19 -19 -20 -20 -20 -20 -20 -20 -20 -16 -15 -15 -14 -14 -12 -12 -9 -9 -8 -6 -9 -9 -8 -7 -7 -6 -6 -6 -5 -7 -6 -5 -6 -6 -6 -7 -7
-16 -16 -17 -17 -16 -17 -18 -20 -21 -21 -21 -21 -22 -22 -22 -23 -22 -18 -16 -14 -14 -14 -13 -13 -11 -9 -9 -10 -10 -10 -9 -8 -7 -8 -7 -7 -5 -6 -6 -5 -6 -6 -6 -6 -7
-16 -16 -17 -16 -17 -18 -18 -20 -21 -21 -22 -22 -23 -23 -23 -24 -23 -20 -17 -15 -14 -14 -13 -12 -11 -9 -9 -9 -9 -10 -10 -9 -9 -8 -7 -6 -6 -7 -7 -6 -6 -6 -7 -6 -7
-15 -16 -16 -16 -18 -19 -19 -20 -21 -22 -23 -23 -23 -24 -23 -24 -23 -23 -19 -16 -15 -14 -14 -13 -11 -9 -9 -9 -10 -10 -10 -10 -9 -7 -7 -6 -6 -8 -7 -7 -6 -6 -6 -6 -7
-16 -16 -16 -18 -18 -19 -19 -21 -23 -23 -23 -24 -24 -24 -24 -24 -24 -23 -22 -17 -16 -16 -14 -13 -13 -10 -10 -9 -10 -10 -9 -10 -8 -8 -8 -7 -7 -8 -7 -7 -7 -6 -6 -6 -6
-16 -16 -17 -18 -18 -19 -20 -21 -23 -24 -24 -24 -24 -25 -24 -24 -24 -24 -23 -19 -17 -17 -15 -13 -13 -11 -10 -10 -10 -8 -8 -10 -10 -9 -8 -7 -7 -8 -8 -7 -7 -7 -7 -7 -7

GFSSW_500_temp_060.txt.gz
Temp
-4 -4 -4 -4 -4 -4 -4 -4 -3 -3 -3 -3 -3 -3 -3 -3 -3 -3 -3 -2 -3 -3 -3 -3 -4 -4 -4 -4 -4 -4 -4 -4 -4 -4 -5 -4 -5 -5 -5 -5 -5 -5 -5 -5 -5
-5 -5 -4 -4 -4 -4 -4 -4 -4 -3 -3 -3 -3 -3 -3 -3 -3 -3 -3 -3 -3 -3 -3 -3 -3 -3 -4 -3 -4 -4 -5 -5 -4 -4 -5 -5 -5 -6 -5 -5 -5 -5 -6 -5 -5
-5 -5 -5 -5 -4 -4 -4 -4 -4 -4 -3 -3 -3 -3 -3 -3 -4 -3 -3 -3 -3 -3 -3 -3 -2 -2 -3 -3 -4 -4 -4 -5 -4 -4 -5 -5 -4 -6 -5 -5 -5 -6 -5 -6 -5
-5 -5 -5 -5 -4 -4 -4 -4 -4 -4 -4 -4 -3 -3 -3 -4 -4 -3 -3 -4 -3 -3 -4 -3 -3 -3 -3 -3 -3 -4 -4 -5 -5 -6 -6 -6 -3 -5 -7 -5 -6 -6 -6 -6 -6
-5 -5 -5 -5 -5 -4 -4 -4 -4 -4 -4 -4 -4 -4 -3 -4 -4 -4 -3 -4 -4 -4 -4 -4 -3 -4 -4 -4 -3 -4 -5 -4 -6 -6 -7 -7 -4 -4 -7 -5 -5 -5 -5 -6 -6
-6 -6 -6 -5 -5 -5 -5 -4 -4 -4 -4 -4 -4 -4 -4 -4 -3 -4 -4 -4 -4 -4 -4 -4 -4 -4 -5 -5 -4 -6 -5 -5 -6 -6 -6 -5 -5 -4 -5 -4 -4 -5 -5 -6 -6
-7 -7 -6 -6 -6 -6 -5 -5 -4 -4 -4 -4 -4 -4 -4 -5 -4 -3 -5 -4 -4 -4 -4 -4 -4 -4 -4 -4 -5 -5 -5 -4 -4 -6 -6 -6 -5 -5 -5 -6 -5 -5 -4 -5 -6
-6 -6 -6 -6 -6 -6 -6 -6 -5 -5 -5 -4 -4 -4 -5 -5 -4 -5 -5 -5 -4 -5 -4 -4 -4 -4 -4 -4 -5 -4 -4 -4 -3 -4 -5 -6 -6 -5 -5 -6 -6 -6 -5 -4 -5
-7 -6 -6 -6 -6 -6 -6 -6 -5 -5 -5 -5 -5 -4 -5 -5 -5 -4 -4 -5 -4 -5 -5 -4 -4 -4 -4 -4 -4 -4 -3 -4 -3 -4 -5 -6 -6 -6 -5 -6 -6 -6 -5 -5 -4
-7 -7 -6 -6 -6 -6 -6 -6 -6 -6 -5 -5 -5 -5 -5 -5 -5 -5 -5 -4 -5 -5 -5 -4 -4 -4 -4 -4 -3 -3 -4 -4 -4 -5 -5 -5 -6 -6 -4 -5 -5 -6 -6 -5 -5
-7 -6 -6 -6 -6 -6 -6 -6 -6 -6 -5 -5 -5 -5 -6 -6 -5 -5 -5 -6 -6 -5 -4 -5 -4 -3 -4 -4 -5 -5 -4 -5 -6 -6 -5 -7 -6 -6 -5 -5 -5 -6 -6 -6 -5
-7 -6 -6 -6 -6 -6 -6 -6 -6 -5 -6 -5 -5 -5 -5 -5 -6 -6 -5 -5 -6 -5 -5 -4 -4 -4 -5 -5 -5 -5 -5 -4 -6 -7 -8 -6 -6 -6 -6 -6 -5 -7 -6 -6 -6
-7 -7 -7 -9 -8 -7 -7 -6 -6 -5 -5 -5 -5 -5 -5 -5 -5 -6 -7 -7 -6 -7 -6 -5 -5 -5 -5 -5 -5 -5 -5 -5 -6 -7 -7 -7 -6 -6 -6 -5 -5 -5 -5 -5 -6
-9 -9 -10 -12 -11 -12 -11 -10 -10 -10 -8 -8 -7 -6 -6 -5 -6 -7 -7 -7 -6 -6 -7 -6 -6 -6 -6 -6 -5 -5 -5 -6 -7 -8 -6 -7 -6 -6 -6 -6 -6 -5 -6 -6 -6
-12 -12 -15 -15 -16 -15 -15 -15 -15 -15 -12 -11 -10 -9 -7 -7 -7 -7 -6 -6 -7 -7 -7 -5 -6 -6 -6 -5 -6 -5 -6 -6 -7 -7 -8 -8 -7 -6 -7 -6 -6 -6 -5 -6 -5
-14 -16 -16 -15 -15 -15 -15 -15 -15 -15 -15 -14 -13 -13 -11 -10 -9 -9 -8 -6 -7 -8 -7 -7 -7 -7 -6 -7 -7 -6 -7 -7 -8 -8 -8 -7 -7 -5 -5 -5 -6 -5 -5 -6 -6
-15 -15 -15 -15 -15 -14 -14 -14 -14 -15 -15 -15 -14 -14 -15 -14 -13 -13 -10 -8 -8 -7 -6 -7 -7 -7 -7 -8 -8 -7 -7 -7 -8 -8 -8 -7 -7 -4 -5 -6 -6 -5 -6 -7 -7
-15 -15 -15 -15 -14 -15 -15 -15 -15 -15 -15 -15 -15 -14 -15 -15 -16 -15 -13 -13 -10 -8 -7 -7 -7 -7 -7 -7 -7 -7 -6 -6 -6 -7 -6 -5 -6 -3 -5 -6 -7 -6 -7 -7 -6
-15 -15 -15 -16 -16 -16 -16 -16 -15 -15 -15 -16 -16 -16 -16 -16 -16 -15 -15 -16 -13 -10 -8 -7 -6 -9 -8 -7 -7 -7 -6 -6 -7 -7 -6 -6 -6 -5 -5 -5 -5 -4 -6 -6 -6
-15 -15 -15 -15 -15 -15 -15 -16 -16 -16 -16 -17 -17 -17 -17 -16 -16 -16 -15 -16 -16 -14 -11 -9 -6 -6 -7 -10 -8 -7 -8 -8 -7 -7 -6 -6 -6 -5 -6 -6 -5 -5 -5 -5 -5
-15 -15 -15 -15 -15 -16 -16 -17 -17 -17 -16 -17 -18 -18 -18 -17 -17 -17 -16 -16 -16 -16 -15 -11 -7 -7 -10 -8 -7 -8 -8 -9 -8 -7 -7 -6 -5 -4 -6 -7 -7 -6 -5 -5 -5
-15 -15 -15 -16 -16 -16 -17 -17 -18 -17 -18 -19 -19 -19 -19 -19 -19 -18 -17 -17 -16 -16 -16 -14 -9 -9 -9 -7 -8 -10 -9 -10 -9 -7 -7 -6 -4 -6 -7 -7 -7 -8 -7 -5 -5
-14 -15 -15 -15 -16 -17 -17 -18 -18 -19 -20 -20 -21 -21 -21 -21 -20 -19 -19 -18 -17 -17 -15 -15 -11 -9 -9 -9 -9 -10 -10 -10 -9 -8 -7 -6 -6 -7 -6 -6 -6 -7 -6 -6 -6
-15 -15 -16 -15 -16 -17 -17 -19 -19 -20 -20 -22 -22 -22 -22 -22 -22 -21 -20 -20 -18 -17 -15 -15 -13 -10 -9 -10 -11 -9 -10 -10 -9 -9 -7 -6 -7 -6 -6 -6 -6 -6 -6 -6 -6
-16 -16 -16 -16 -17 -18 -18 -19 -19 -20 -21 -23 -23 -23 -23 -23 -23 -23 -23 -22 -20 -16 -15 -14 -13 -12 -10 -10 -10 -8 -9 -9 -10 -9 -7 -6 -6 -7 -7 -6 -6 -6 -6 -7 -7
-16 -16 -17 -17 -17 -18 -18 -19 -20 -21 -23 -23 -23 -24 -24 -24 -24 -23 -23 -23 -22 -15 -17 -15 -14 -12 -10 -11 -11 -9 -10 -10 -10 -10 -9 -7 -6 -8 -7 -6 -6 -6 -6 -6 -7
-16 -16 -16 -16 -17 -18 -19 -20 -21 -22 -24 -24 -24 -24 -24 -24 -24 -24 -24 -23 -23 -16 -17 -16 -14 -12 -11 -12 -11 -11 -11 -11 -10 -10 -10 -8 -6 -8 -8 -8 -7 -7 -7 -7 -7

GFSSW_500_temp_063.txt.gz
Temp
-5 -5 -5 -5 -5 -4 -4 -4 -4 -3 -3 -3 -3 -4 -3 -4 -4 -3 -3 -3 -4 -4 -3 -4 -4 -4 -5 -4 -5 -5 -5 -5 -5 -4 -4 -6 -6 -5 -4 -4 -4 -5 -6 -6 -5
-5 -5 -5 -5 -5 -5 -4 -4 -4 -4 -4 -4 -4 -4 -3 -4 -4 -3 -4 -3 -3 -3 -3 -4 -4 -4 -4 -4 -4 -5 -5 -5 -4 -4 -4 -5 -5 -5 -5 -4 -5 -5 -6 -6 -5
-5 -5 -5 -5 -5 -4 -4 -4 -4 -4 -4 -4 -4 -4 -4 -4 -4 -3 -4 -4 -3 -3 -3 -3 -3 -3 -3 -3 -4 -5 -5 -5 -5 -4 -4 -5 -5 -4 -4 -5 -5 -5 -6 -6 -5
-5 -5 -5 -5 -5 -5 -4 -4 -4 -4 -4 -4 -4 -4 -4 -4 -4 -3 -4 -4 -4 -4 -3 -3 -3 -4 -4 -4 -4 -5 -5 -5 -4 -4 -4 -4 -5 -5 -5 -5 -5 -6 -6 -6 -6
-6 -6 -6 -5 -5 -5 -5 -5 -4 -4 -4 -4 -4 -4 -5 -5 -4 -4 -4 -4 -4 -4 -4 -4 -4 -4 -4 -5 -4 -5 -5 -5 -4 -4 -4 -4 -5 -5 -4 -4 -4 -5 -5 -6 -6
-7 -7 -7 -6 -6 -6 -5 -5 -5 -5 -4 -4 -4 -5 -5 -5 -4 -4 -4 -4 -4 -4 -4 -4 -4 -4 -5 -5 -5 -6 -5 -5 -5 -4 -5 -3 -5 -5 -5 -5 -5 -5 -6 -6 -6
-7 -7 -6 -6 -6 -6 -6 -6 -5 -5 -5 -4 -5 -5 -5 -5 -4 -5 -5 -4 -5 -5 -5 -5 -4 -4 -4 -4 -5 -6 -6 -5 -5 -5 -4 -4 -4 -6 -6 -6 -6 -7 -6 -6 -6
-7 -7 -6 -6 -6 -6 -6 -6 -6 -6 -5 -5 -5 -5 -5 -5 -5 -5 -4 -5 -5 -5 -5 -5 -4 -4 -4 -4 -4 -5 -5 -4 -5 -4 -5 -4 -5 -6 -6 -6 -6 -6 -6 -6 -6
-7 -7 -6 -6 -6 -6 -6 -6 -6 -6 -5 -5 -5 -6 -6 -5 -5 -5 -5 -5 -5 -5 -5 -5 -4 -4 -5 -4 -4 -5 -4 -5 -5 -5 -4 -3 -5 -5 -6 -6 -6 -6 -5 -6 -6
-7 -7 -7 -7 -7 -6 -6 -6 -6 -6 -6 -5 -5 -6 -6 -6 -6 -5 -6 -5 -6 -5 -5 -4 -4 -4 -4 -4 -3 -3 -4 -6 -5 -5 -5 -4 -4 -5 -6 -7 -6 -6 -6 -6 -6
-7 -7 -7 -7 -6 -6 -6 -6 -6 -6 -6 -6 -6 -6 -5 -6 -6 -6 -6 -6 -6 -5 -5 -5 -4 -4 -5 -5 -5 -5 -5 -6 -6 -6 -5 -5 -6 -6 -6 -6 -6 -7 -7 -6 -6
-7 -7 -7 -6 -6 -6 -6 -6 -6 -6 -7 -6 -6 -6 -6 -6 -6 -6 -6 -6 -6 -6 -6 -5 -4 -6 -6 -6 -6 -6 -5 -5 -7 -6 -6 -5 -6 -6 -6 -7 -6 -6 -6 -6 -5
-7 -7 -8 -8 -8 -7 -8 -7 -7 -7 -7 -7 -6 -6 -6 -6 -6 -6 -6 -6 -6 -7 -6 -6 -6 -6 -6 -6 -6 -6 -5 -6 -7 -7 -7 -6 -5 -5 -5 -5 -5 -7 -6 -6 -6
-9 -10 -10 -12 -12 -13 -13 -14 -12 -11 -10 -10 -8 -7 -7 -6 -7 -6 -6 -6 -6 -6 -7 -6 -7 -6 -6 -6 -6 -6 -6 -7 -8 -8 -6 -6 -4 -5 -5 -4 -5 -6 -7 -6 -6
-13 -14 -15 -15 -15 -15 -15 -15 -15 -16 -13 -13 -11 -11 -9 -9 -8 -8 -7 -7 -7 -7 -7 -6 -6 -6 -6 -6 -6 -6 -7 -7 -8 -9 -9 -7 -5 -5 -4 -4 -5 -6 -7 -7 -6
-14 -15 -14 -14 -14 -14 -15 -15 -15 -14 -14 -14 -14 -14 -13 -12 -12 -10 -9 -8 -8 -7 -7 -6 -7 -7 -7 -8 -7 -7 -8 -8 -9 -10 -9 -8 -7 -5 -3 -4 -5 -5 -6 -7 -7
-14 -14 -14 -14 -14 -14 -14 -15 -15 -15 -15 -14 -14 -14 -14 -14 -14 -13 -12 -11 -9 -9 -8 -7 -7 -7 -8 -9 -8 -8 -8 -8 -9 -9 -7 -7 -7 -4 -4 -5 -5 -6 -7 -7 -7
-14 -14 -14 -14 -15 -15 -15 -15 -15 -14 -14 -14 -15 -15 -15 -15 -15 -15 -14 -14 -13 -10 -9 -8 -7 -7 -8 -8 -8 -7 -8 -7 -7 -8 -7 -6 -6 -3 -4 -5 -6 -6 -7 -8 -8
-15 -15 -15 -15 -14 -14 -15 -15 -15 -14 -14 -15 -15 -15 -15 -15 -15 -16 -16 -15 -15 -13 -12 -10 -8 -8 -8 -8 -10 -9 -7 -7 -7 -7 -7 -6 -7 -5 -5 -6 -6 -6 -6 -7 -7
-14 -14 -14 -14 -14 -15 -15 -15 -15 -15 -15 -15 -16 -16 -16 -16 -16 -16 -17 -16 -15 -16 -14 -11 -9 -9 -8 -9 -9 -8 -8 -9 -8 -7 -7 -5 -7 -4 -6 -5 -6 -5 -5 -6 -7
-14 -14 -14 -14 -14 -15 -15 -15 -16 -16 -16 -16 -17 -16 -16 -16 -17 -17 -17 -17 -16 -16 -16 -13 -11 -11 -11 -10 -9 -9 -9 -9 -9 -8 -6 -5 -5 -4 -6 -6 -6 -5 -5 -6 -7
-15 -14 -15 -15 -15 -15 -16 -16 -16 -17 -18 -18 -18 -18 -17 -17 -18 -18 -18 -18 -17 -16 -16 -16 -12 -11 -11 -11 -9 -10 -9 -9 -8 -7 -7 -6 -3 -5 -6 -6 -7 -6 -6 -6 -6
-15 -15 -15 -15 -16 -17 -17 -17 -17 -17 -18 -19 -19 -19 -19 -19 -20 -21 -20 -19 -18 -17 -17 -16 -14 -12 -13 -12 -11 -11 -10 -10 -9 -10 -8 -6 -3 -6 -6 -7 -7 -7 -7 -6 -6
-14 -15 -15 -15 -16 -16 -17 -18 -18 -18 -19 -20 -20 -20 -22 -22 -22 -22 -21 -21 -20 -18 -17 -17 -16 -14 -12 -12 -12 -11 -10 -9 -9 -8 -6 -5 -5 -7 -7 -7 -8 -7 -6 -6 -6
-15 -15 -15 -15 -16 -17 -17 -18 -19 -20 -20 -21 -21 -23 -23 -23 -23 -22 -22 -21 -21 -20 -18 -18 -17 -16 -13 -13 -13 -11 -10 -9 -9 -8 -7 -6 -5 -7 -7 -7 -8 -7 -7 -7 -4
-15 -15 -16 -16 -16 -16 -17 -18 -20 -20 -21 -21 -22 -23 -23 -23 -24 -23 -23 -22 -22 -21 -20 -18 -17 -16 -14 -13 -13 -12 -12 -11 -9 -9 -8 -6 -6 -7 -8 -8 -7 -7 -6 -6 -5
-16 -16 -16 -16 -16 -17 -17 -19 -20 -21 -22 -22 -24 -24 -24 -23 -23 -23 -24 -24 -23 -22 -21 -19 -17 -17 -14 -13 -14 -11 -11 -11 -11 -9 -9 -7 -7 -8 -8 -8 -7 -6 -6 -6 -7

GFSSW_500_temp_066.txt.gz
Temp
-5 -5 -5 -5 -5 -5 -5 -5 -4 -5 -4 -4 -4 -4 -4 -4 -4 -3 -4 -3 -4 -4 -4 -4 -5 -5 -5 -5 -5 -5 -5 -5 -5 -5 -5 -5 -4 -4 -4 -5 -5 -4 -5 -5 -5
-5 -5 -5 -5 -5 -5 -5 -5 -5 -5 -5 -5 -4 -4 -4 -4 -4 -3 -4 -4 -4 -3 -4 -4 -5 -5 -5 -5 -5 -5 -5 -5 -4 -5 -5 -4 -5 -5 -5 -5 -5 -5 -5 -6 -5
-5 -5 -5 -5 -5 -5 -5 -5 -5 -5 -5 -5 -5 -5 -5 -4 -4 -3 -4 -4 -4 -3 -3 -3 -3 -4 -4 -4 -5 -5 -5 -5 -4 -4 -5 -5 -4 -5 -5 -5 -4 -5 -5 -5 -6
-6 -6 -6 -6 -6 -5 -5 -5 -5 -5 -5 -5 -5 -5 -5 -5 -4 -4 -4 -4 -4 -4 -4 -4 -4 -4 -4 -5 -6 -6 -5 -5 -4 -4 -5 -5 -5 -5 -5 -5 -4 -5 -6 -5 -6
-7 -7 -7 -6 -6 -6 -6 -5 -5 -5 -5 -5 -5 -5 -5 -5 -4 -5 -4 -4 -4 -4 -4 -4 -4 -4 -4 -5 -6 -6 -5 -5 -4 -5 -4 -6 -5 -5 -5 -4 -5 -5 -6 -6 -6
-7 -7 -7 -6 -6 -6 -6 -6 -6 -5 -5 -5 -5 -5 -5 -5 -4 -5 -5 -5 -4 -4 -4 -4 -4 -4 -4 -4 -5 -7 -5 -5 -4 -4 -4 -5 -6 -6 -5 -4 -5 -5 -6 -6 -6
-7 -7 -7 -7 -6 -6 -6 -6 -6 -6 -6 -6 -6 -6 -5 -5 -5 -5 -5 -5 -5 -5 -5 -4 -4 -4 -4 -4 -5 -6 -5 -4 -5 -4 -3 -6 -5 -6 -5 -4 -5 -5 -6 -6 -6
-7 -7 -6 -6 -6 -6 -6 -6 -6 -6 -6 -6 -6 -6 -6 -5 -5 -5 -5 -5 -5 -5 -5 -5 -4 -4 -4 -4 -5 -5 -4 -4 -4 -4 -4 -5 -5 -5 -5 -5 -6 -5 -6 -6 -6
-7 -7 -7 -6 -6 -6 -6 -6 -6 -6 -6 -6 -6 -6 -6 -6 -6 -6 -6 -6 -6 -5 -5 -4 -4 -4 -4 -4 -4 -5 -4 -4 -4 -4 -4 -6 -4 -4 -5 -5 -5 -6 -5 -6 -6
-7 -7 -7 -7 -7 -7 -6 -6 -6 -7 -6 -6 -6 -6 -6 -6 -6 -6 -6 -6 -6 -6 -5 -5 -5 -5 -4 -4 -4 -4 -4 -4 -5 -5 -5 -5 -4 -5 -5 -5 -5 -6 -6 -6 -6
-7 -7 -7 -7 -6 -6 -6 -6 -6 -6 -6 -6 -6 -6 -6 -6 -6 -6 -7 -6 -6 -6 -6 -6 -6 -5 -6 -6 -6 -5 -5 -5 -6 -6 -6 -6 -6 -6 -6 -5 -6 -6 -6 -7 -6
-7 -7 -7 -7 -6 -6 -6 -6 -6 -7 -7 -6 -6 -6 -6 -6 -6 -6 -6 -7 -6 -6 -6 -6 -5 -7 -6 -6 -6 -6 -6 -6 -6 -6 -6 -7 -6 -6 -5 -6 -7 -6 -6 -6 -6
-8 -8 -8 -8 -8 -9 -9 -9 -9 -9 -8 -8 -7 -6 -6 -6 -6 -6 -7 -7 -7 -6 -6 -6 -7 -7 -7 -7 -6 -6 -6 -7 -7 -8 -6 -8 -7 -6 -5 -5 -4 -6 -6 -6 -6
-10 -10 -11 -12 -12 -13 -13 -13 -14 -14 -12 -12 -10 -9 -8 -8 -8 -7 -7 -7 -7 -7 -7 -6 -7 -7 -7 -7 -7 -6 -6 -8 -8 -8 -7 -6 -5 -6 -5 -5 -4 -6 -6 -6 -6
-12 -13 -13 -13 -13 -13 -14 -14 -13 -14 -14 -14 -13 -13 -12 -11 -11 -10 -9 -8 -8 -8 -7 -6 -6 -7 -7 -7 -7 -7 -7 -8 -8 -9 -8 -6 -5 -5 -6 -5 -5 -6 -6 -6 -6
-13 -13 -13 -13 -13 -14 -14 -14 -14 -14 -14 -14 -14 -14 -14 -14 -13 -13 -12 -11 -9 -9 -8 -8 -7 -7 -7 -9 -8 -8 -8 -8 -9 -9 -8 -6 -5 -5 -4 -5 -6 -6 -6 -6 -6
-13 -14 -14 -14 -14 -14 -14 -14 -14 -14 -15 -14 -15 -15 -15 -15 -14 -14 -14 -13 -12 -11 -10 -8 -8 -8 -8 -8 -9 -8 -8 -8 -9 -9 -5 -7 -6 -4 -4 -5 -7 -7 -7 -6 -6
-14 -14 -14 -14 -14 -14 -14 -14 -14 -14 -15 -14 -14 -14 -15 -15 -15 -15 -14 -15 -14 -13 -12 -11 -10 -9 -8 -8 -8 -8 -8 -7 -6 -7 -6 -7 -4 -3 -5 -6 -6 -6 -7 -7 -7
-14 -14 -14 -14 -14 -14 -14 -14 -14 -15 -15 -15 -15 -14 -14 -15 -15 -15 -15 -15 -15 -15 -14 -13 -11 -11 -10 -9 -9 -8 -8 -8 -8 -8 -7 -6 -4 -5 -5 -6 -7 -6 -6 -7 -7
-14 -15 -15 -14 -14 -14 -14 -15 -15 -15 -15 -15 -15 -16 -15 -15 -15 -15 -15 -15 -15 -15 -15 -14 -13 -12 -11 -10 -10 -9 -9 -9 -8 -8 -6 -6 -4 -3 -6 -7 -7 -7 -6 -6 -7
-15 -14 -14 -14 -14 -15 -15 -15 -15 -15 -15 -16 -16 -16 -16 -16 -16 -16 -16 -16 -15 -15 -15 -15 -14 -13 -13 -12 -12 -10 -10 -9 -9 -8 -6 -6 -4 -4 -6 -7 -8 -7 -7 -7 -7
-15 -15 -14 -14 -15 -15 -15 -15 -16 -16 -16 -17 -17 -17 -17 -16 -16 -17 -17 -17 -16 -16 -16 -16 -15 -14 -13 -14 -12 -12 -11 -9 -9 -8 -7 -6 -4 -5 -6 -7 -7 -7 -7 -7 -7
-15 -15 -15 -15 -15 -15 -15 -16 -16 -16 -17 -18 -18 -18 -18 -18 -18 -18 -18 -18 -18 -17 -17 -16 -16 -16 -14 -14 -14 -13 -12 -11 -9 -8 -7 -6 -4 -5 -6 -7 -7 -8 -7 -8 -7
-15 -15 -15 -15 -15 -15 -16 -16 -16 -16 -18 -19 -19 -20 -20 -20 -20 -20 -19 -19 -19 -18 -18 -17 -16 -16 -16 -14 -15 -13 -13 -12 -10 -9 -7 -6 -5 -5 -6 -7 -7 -7 -8 -8 -7
-15 -15 -15 -15 -15 -15 -15 -15 -16 -17 -19 -20 -21 -21 -22 -22 -22 -22 -22 -22 -22 -21 -20 -19 -17 -17 -17 -16 -15 -14 -13 -12 -11 -9 -8 -7 -7 -6 -7 -7 -7 -8 -8 -8 -8
-15 -15 -15 -15 -15 -15 -15 -16 -16 -18 -20 -21 -22 -23 -24 -23 -24 -23 -23 -23 -23 -22 -22 -21 -19 -18 -18 -17 -16 -15 -13 -13 -11 -10 -8 -8 -7 -6 -7 -8 -7 -7 -7 -7 -7
-15 -16 -16 -16 -15 -15 -16 -16 -17 -19 -22 -22 -23 -24 -24 -24 -24 -24 -24 -24 -24 -23 -23 -22 -21 -20 -18 -18 -16 -15 -14 -13 -11 -10 -9 -8 -7 -7 -8 -8 -7 -7 -7 -7 -7

GFSSW_500_temp_069.txt.gz
Temp
-5 -5 -5 -5 -5 -5 -5 -5 -5 -5 -5 -5 -5 -4 -4 -4 -4 -4 -4 -4 -4 -4 -4 -5 -5 -5 -5 -5 -5 -5 -4 -5 -5 -5 -5 -5 -4 -5 -5 -5 -5 -5 -5 -4 -4
-6 -6 -6 -6 -5 -5 -5 -5 -5 -5 -5 -5 -5 -5 -5 -4 -4 -4 -4 -4 -4 -4 -4 -4 -5 -5 -5 -6 -5 -6 -5 -5 -5 -5 -4 -5 -5 -5 -5 -5 -5 -5 -5 -5 -4
-6 -6 -6 -6 -6 -6 -5 -5 -5 -5 -5 -5 -5 -5 -5 -5 -4 -4 -4 -4 -4 -4 -4 -3 -3 -4 -4 -5 -6 -6 -5 -5 -5 -5 -5 -4 -4 -4 -5 -5 -5 -5 -4 -4 -5
-7 -7 -7 -6 -6 -6 -6 -5 -5 -5 -5 -5 -5 -5 -5 -5 -5 -4 -4 -5 -4 -4 -4 -4 -4 -4 -5 -5 -6 -6 -5 -5 -5 -5 -4 -5 -5 -5 -5 -5 -5 -4 -5 -4 -5
-7 -7 -7 -7 -7 -7 -7 -6 -6 -6 -5 -5 -5 -5 -5 -5 -5 -5 -5 -4 -5 -4 -4 -4 -4 -4 -5 -6 -6 -6 -5 -5 -5 -5 -5 -6 -5 -6 -5 -5 -5 -5 -5 -5 -5
-7 -7 -7 -7 -7 -7 -6 -6 -6 -6 -6 -6 -6 -6 -5 -5 -5 -5 -5 -5 -5 -5 -4 -4 -4 -4 -4 -4 -5 -6 -5 -5 -5 -5 -6 -5 -5 -6 -5 -4 -5 -6 -5 -5 -6
-8 -7 -7 -7 -7 -7 -6 -6 -6 -6 -6 -6 -6 -6 -6 -5 -6 -5 -5 -5 -5 -5 -5 -4 -4 -4 -4 -4 -4 -5 -4 -5 -5 -5 -6 -6 -6 -7 -5 -4 -4 -5 -6 -6 -6
-7 -7 -7 -7 -7 -7 -7 -6 -6 -6 -6 -6 -6 -6 -6 -6 -6 -6 -6 -6 -5 -5 -5 -5 -4 -4 -4 -4 -4 -5 -4 -4 -5 -4 -5 -6 -6 -6 -5 -4 -5 -5 -6 -6 -7
-8 -7 -7 -7 -7 -7 -7 -7 -7 -6 -6 -6 -6 -6 -6 -6 -6 -6 -7 -6 -6 -5 -5 -5 -5 -4 -5 -4 -4 -4 -4 -4 -5 -4 -4 -6 -6 -6 -6 -5 -5 -5 -5 -6 -6
-8 -8 -7 -7 -7 -7 -7 -7 -6 -6 -6 -6 -6 -6 -6 -6 -6 -6 -7 -7 -6 -6 -5 -5 -5 -5 -5 -4 -4 -5 -4 -4 -5 -4 -5 -6 -7 -7 -6 -5 -5 -5 -5 -5 -6
-8 -8 -7 -7 -7 -7 -6 -6 -6 -6 -6 -6 -6 -6 -6 -6 -6 -6 -6 -7 -7 -6 -6 -6 -5 -5 -6 -6 -6 -6 -5 -5 -6 -5 -5 -6 -7 -7 -6 -5 -6 -6 -5 -6 -6
-8 -8 -8 -7 -7 -7 -7 -7 -7 -7 -7 -7 -6 -6 -6 -6 -6 -6 -6 -7 -7 -6 -7 -6 -5 -7 -7 -7 -6 -6 -6 -6 -6 -5 -5 -6 -7 -7 -6 -6 -7 -6 -5 -5 -5
-9 -9 -9 -9 -9 -9 -9 -10 -10 -11 -10 -9 -9 -8 -7 -7 -7 -7 -7 -7 -7 -7 -7 -7 -7 -7 -7 -7 -7 -6 -6 -6 -7 -6 -6 -6 -7 -7 -6 -6 -6 -5 -5 -4 -5
-10 -11 -12 -11 -11 -11 -11 -12 -12 -13 -12 -12 -12 -12 -11 -10 -8 -8 -8 -8 -7 -7 -7 -7 -7 -7 -7 -7 -7 -7 -7 -7 -8 -7 -6 -6 -6 -6 -6 -6 -6 -6 -5 -5 -5
-12 -12 -12 -13 -13 -12 -12 -12 -13 -13 -13 -13 -13 -14 -14 -13 -12 -11 -10 -10 -9 -8 -8 -7 -7 -7 -7 -8 -8 -7 -8 -8 -8 -8 -8 -6 -6 -6 -6 -6 -7 -6 -6 -6 -5
-13 -13 -13 -13 -13 -13 -13 -13 -13 -13 -13 -14 -14 -14 -14 -14 -14 -14 -14 -12 -11 -10 -9 -8 -8 -8 -8 -8 -8 -8 -8 -8 -8 -8 -7 -6 -6 -5 -5 -5 -7 -7 -6 -6 -6
-14 -14 -14 -14 -14 -14 -13 -13 -13 -13 -14 -14 -14 -15 -15 -15 -15 -15 -14 -14 -13 -12 -11 -10 -9 -9 -8 -9 -9 -8 -8 -9 -8 -7 -4 -6 -5 -4 -5 -6 -7 -7 -7 -7 -6
-14 -14 -14 -14 -14 -14 -14 -14 -14 -14 -14 -14 -14 -15 -15 -15 -14 -14 -14 -15 -15 -14 -13 -12 -11 -10 -9 -9 -9 -9 -8 -8 -7 -7 -6 -6 -4 -3 -6 -6 -7 -8 -7 -7 -6
-15 -14 -14 -14 -14 -14 -14 -14 -14 -14 -15 -15 -15 -14 -14 -15 -15 -15 -15 -14 -15 -15 -14 -13 -12 -12 -11 -11 -10 -10 -9 -8 -9 -8 -7 -6 -5 -4 -6 -6 -7 -8 -7 -7 -6
-15 -15 -15 -15 -14 -14 -14 -14 -14 -15 -15 -15 -15 -15 -15 -15 -15 -15 -15 -15 -15 -14 -15 -14 -13 -13 -12 -12 -11 -10 -10 -10 -9 -8 -7 -6 -4 -3 -5 -6 -7 -8 -7 -7 -7
-15 -15 -15 -15 -14 -14 -14 -14 -15 -15 -15 -15 -15 -16 -16 -16 -16 -15 -15 -15 -15 -15 -15 -15 -15 -14 -13 -13 -13 -12 -11 -10 -9 -8 -7 -7 -4 -4 -5 -7 -7 -8 -8 -7 -7
-15 -15 -15 -15 -15 -15 -15 -15 -15 -15 -15 -15 -16 -16 -16 -16 -16 -17 -17 -17 -16 -16 -16 -15 -15 -15 -14 -14 -13 -13 -12 -11 -10 -9 -7 -7 -5 -5 -5 -7 -7 -8 -7 -7 -8
-16 -15 -15 -15 -15 -15 -15 -15 -15 -15 -15 -15 -16 -16 -16 -17 -17 -18 -17 -17 -18 -18 -16 -16 -16 -15 -15 -15 -14 -14 -13 -12 -11 -10 -8 -8 -5 -5 -5 -7 -8 -8 -8 -8 -8
-15 -15 -15 -15 -15 -15 -15 -15 -15 -15 -15 -16 -17 -18 -19 -20 -20 -20 -20 -20 -19 -20 -19 -18 -17 -16 -16 -16 -15 -14 -14 -13 -11 -11 -9 -8 -6 -6 -6 -6 -8 -8 -8 -8 -8
-15 -15 -15 -15 -15 -15 -15 -14 -15 -15 -16 -17 -19 -21 -22 -22 -22 -22 -22 -21 -21 -21 -20 -19 -18 -17 -17 -16 -15 -15 -14 -13 -12 -11 -10 -9 -7 -6 -6 -6 -7 -8 -8 -8 -8
-15 -15 -16 -16 -15 -15 -15 -16 -16 -16 -18 -20 -22 -23 -23 -23 -24 -24 -24 -24 -23 -22 -22 -20 -20 -19 -18 -17 -16 -16 -15 -14 -13 -12 -11 -9 -8 -7 -7 -7 -7 -7 -7 -7 -7
-15 -16 -16 -16 -16 -16 -16 -16 -16 -17 -20 -22 -22 -23 -23 -23 -24 -24 -23 -23 -23 -23 -23 -22 -22 -21 -20 -19 -17 -16 -16 -14 -13 -12 -11 -11 -9 -8 -8 -7 -7 -7 -8 -8 -8

GFSSW_500_temp_072.txt.gz
Temp
-6 -6 -6 -5 -5 -5 -5 -5 -5 -5 -5 -5 -5 -4 -4 -4 -4 -4 -4 -4 -4 -4 -4 -5 -5 -5 -5 -5 -5 -5 -5 -5 -5 -5 -5 -5 -5 -5 -5 -5 -5 -4 -5 -5 -4
-6 -6 -6 -6 -5 -5 -5 -5 -5 -5 -5 -5 -5 -5 -5 -5 -4 -4 -4 -4 -4 -4 -4 -4 -5 -5 -5 -5 -5 -5 -5 -5 -5 -5 -5 -5 -5 -5 -5 -5 -5 -5 -4 -5 -5
-6 -6 -6 -6 -6 -6 -6 -5 -5 -5 -5 -5 -5 -5 -5 -5 -4 -4 -5 -4 -4 -4 -4 -4 -4 -4 -4 -5 -5 -5 -4 -5 -5 -5 -5 -5 -5 -5 -5 -5 -5 -5 -5 -5 -5
-7 -7 -7 -7 -7 -7 -6 -6 -6 -5 -5 -5 -5 -5 -5 -5 -4 -4 -4 -5 -4 -4 -4 -4 -4 -4 -5 -5 -5 -5 -5 -5 -6 -5 -4 -5 -5 -5 -5 -5 -5 -5 -5 -5 -5
-7 -7 -7 -7 -7 -7 -7 -7 -7 -6 -6 -6 -6 -5 -5 -5 -5 -5 -5 -5 -5 -4 -4 -4 -4 -4 -4 -6 -6 -5 -5 -5 -5 -5 -5 -5 -5 -6 -6 -5 -5 -5 -5 -5 -5
-7 -7 -7 -7 -7 -7 -7 -7 -6 -6 -6 -6 -6 -6 -6 -5 -5 -5 -5 -5 -5 -5 -5 -5 -4 -4 -4 -5 -6 -6 -5 -5 -5 -5 -5 -5 -5 -5 -6 -6 -5 -5 -5 -5 -5
-7 -7 -7 -7 -7 -7 -6 -6 -6 -6 -6 -6 -6 -6 -6 -6 -6 -6 -5 -5 -5 -5 -5 -5 -5 -4 -4 -4 -5 -5 -5 -4 -5 -6 -6 -6 -5 -6 -7 -6 -5 -6 -6 -5 -5
-7 -7 -7 -7 -7 -7 -7 -6 -6 -6 -6 -6 -6 -6 -6 -6 -6 -6 -6 -6 -5 -5 -5 -5 -5 -5 -5 -4 -5 -5 -5 -4 -5 -5 -6 -6 -6 -6 -6 -6 -5 -5 -6 -6 -6
-8 -8 -7 -8 -8 -7 -7 -7 -7 -6 -6 -6 -6 -6 -6 -6 -6 -6 -6 -6 -6 -6 -6 -6 -5 -5 -5 -5 -5 -5 -5 -5 -4 -5 -6 -6 -7 -6 -6 -6 -5 -5 -5 -6 -6
-8 -8 -8 -8 -8 -7 -7 -7 -7 -7 -6 -6 -6 -6 -6 -6 -6 -6 -6 -6 -6 -6 -6 -6 -6 -6 -5 -5 -5 -5 -6 -5 -5 -5 -5 -6 -6 -6 -7 -6 -5 -5 -5 -6 -6
-9 -8 -8 -8 -8 -7 -7 -7 -6 -6 -6 -6 -6 -6 -6 -6 -6 -6 -6 -6 -6 -6 -6 -6 -6 -6 -6 -6 -6 -6 -6 -5 -6 -5 -5 -6 -7 -6 -7 -7 -5 -5 -5 -6 -6
-9 -9 -8 -8 -8 -8 -8 -7 -7 -7 -7 -7 -7 -7 -6 -6 -6 -6 -6 -7 -6 -6 -6 -6 -6 -7 -7 -6 -6 -7 -6 -6 -6 -6 -6 -6 -6 -7 -6 -7 -6 -5 -5 -5 -5
-9 -9 -9 -9 -8 -8 -9 -9 -10 -9 -8 -9 -9 -9 -8 -8 -7 -7 -7 -7 -7 -7 -7 -6 -7 -7 -7 -7 -7 -7 -6 -7 -7 -6 -6 -7 -6 -6 -6 -7 -6 -5 -5 -4 -5
-10 -10 -10 -10 -10 -10 -11 -11 -11 -12 -11 -11 -12 -12 -11 -10 -9 -8 -8 -8 -8 -7 -7 -7 -7 -7 -7 -7 -7 -7 -7 -7 -7 -6 -6 -7 -6 -6 -6 -7 -7 -6 -6 -5 -5
-11 -11 -12 -12 -12 -13 -13 -13 -13 -13 -13 -12 -13 -13 -13 -13 -12 -11 -10 -10 -10 -9 -8 -7 -7 -7 -7 -7 -8 -8 -8 -7 -7 -7 -7 -9 -7 -9 -7 -7 -7 -6 -6 -6 -6
-12 -13 -13 -13 -13 -13 -13 -13 -13 -13 -13 -13 -13 -13 -14 -14 -14 -14 -13 -13 -12 -11 -9 -9 -8 -8 -8 -8 -8 -8 -8 -8 -8 -7 -7 -6 -6 -6 -7 -6 -6 -6 -7 -7 -6
-13 -14 -14 -14 -14 -14 -14 -13 -13 -13 -13 -13 -13 -13 -14 -14 -14 -14 -14 -14 -14 -13 -12 -11 -9 -9 -8 -8 -9 -8 -8 -8 -8 -8 -5 -6 -6 -6 -8 -7 -7 -6 -7 -7 -7
-14 -14 -15 -14 -15 -14 -14 -14 -14 -13 -13 -13 -14 -14 -14 -14 -14 -14 -14 -14 -14 -14 -14 -13 -11 -10 -9 -9 -9 -9 -9 -8 -8 -8 -6 -6 -5 -4 -5 -5 -6 -7 -7 -7 -7
-14 -15 -15 -15 -15 -14 -14 -14 -14 -14 -14 -14 -14 -14 -14 -14 -14 -14 -14 -14 -14 -14 -14 -14 -13 -12 -11 -10 -10 -10 -9 -8 -11 -11 -8 -9 -6 -6 -5 -6 -6 -7 -7 -7 -6
-15 -15 -15 -15 -15 -15 -14 -14 -14 -14 -14 -14 -14 -14 -15 -14 -15 -14 -15 -14 -14 -15 -15 -14 -14 -14 -12 -11 -11 -11 -10 -11 -10 -10 -8 -9 -9 -5 -5 -5 -6 -7 -7 -7 -6
-15 -15 -16 -15 -15 -15 -15 -14 -14 -14 -14 -14 -15 -15 -15 -15 -15 -15 -15 -15 -15 -15 -15 -15 -14 -14 -14 -13 -12 -12 -11 -11 -11 -10 -9 -10 -9 -7 -5 -5 -7 -7 -7 -7 -7
-15 -15 -15 -15 -15 -15 -15 -15 -14 -14 -14 -14 -15 -15 -15 -15 -16 -16 -16 -15 -15 -16 -16 -15 -15 -15 -14 -14 -13 -12 -12 -11 -13 -10 -9 -11 -11 -6 -5 -6 -6 -8 -7 -8 -7
-15 -15 -15 -15 -15 -15 -15 -15 -15 -15 -15 -15 -14 -15 -15 -16 -17 -17 -17 -16 -16 -16 -16 -16 -16 -15 -15 -15 -14 -14 -14 -13 -14 -13 -12 -10 -10 -9 -6 -6 -7 -8 -8 -8 -7
-15 -15 -15 -15 -15 -15 -15 -15 -15 -14 -14 -14 -14 -15 -17 -18 -19 -19 -20 -19 -19 -19 -17 -17 -16 -16 -16 -18 -17 -15 -14 -13 -13 -12 -10 -11 -12 -9 -7 -7 -7 -7 -7 -7 -7
-16 -16 -16 -15 -15 -15 -15 -15 -15 -15 -14 -15 -16 -18 -18 -19 -21 -22 -22 -21 -21 -20 -20 -19 -18 -17 -17 -17 -16 -15 -14 -14 -12 -12 -10 -13 -13 -8 -8 -7 -6 -8 -7 -8 -8
-15 -15 -15 -15 -15 -16 -16 -15 -15 -15 -15 -17 -19 -19 -20 -20 -21 -22 -23 -23 -23 -22 -21 -20 -19 -18 -18 -17 -18 -16 -14 -14 -13 -12 -12 -11 -11 -9 -8 -7 -7 -7 -8 -8 -7
-16 -16 -16 -16 -17 -17 -16 -16 -16 -15 -17 -19 -20 -20 -20 -20 -21 -22 -23 -23 -23 -23 -23 -22 -21 -20 -19 -19 -18 -17 -15 -15 -14 -13 -12 -11 -11 -10 -8 -8 -8 -7 -8 -8 -8

GFSSW_500_temp_075.txt.gz
Temp
-6 -5 -5 -5 -5 -5 -5 -5 -5 -5 -5 -5 -5 -5 -4 -4 -4 -4 -4 -4 -4 -4 -4 -4 -4 -4 -4 -4 -4 -4 -4 -4 -4 -4 -3 -5 -4 -3 -4 -4 -4 -4 -4 -4 -5
-6 -6 -6 -6 -5 -5 -5 -5 -5 -5 -5 -5 -5 -5 -5 -4 -4 -4 -4 -4 -4 -4 -4 -4 -4 -4 -4 -4 -4 -5 -4 -4 -3 -4 -5 -4 -4 -5 -4 -4 -4 -4 -4 -5 -5
-6 -6 -6 -6 -6 -6 -6 -5 -5 -5 -5 -5 -5 -5 -5 -5 -4 -5 -4 -4 -4 -4 -4 -4 -4 -4 -4 -4 -4 -4 -4 -4 -5 -4 -4 -4 -5 -5 -4 -4 -4 -4 -5 -5 -5
-7 -7 -7 -7 -7 -7 -7 -6 -6 -6 -6 -5 -5 -5 -5 -5 -4 -4 -5 -5 -4 -4 -4 -4 -4 -4 -4 -5 -5 -4 -4 -5 -5 -4 -4 -5 -5 -5 -4 -4 -5 -4 -5 -5 -5
-7 -7 -7 -7 -7 -7 -7 -7 -7 -7 -6 -6 -6 -6 -5 -5 -5 -5 -5 -5 -4 -4 -4 -4 -4 -4 -5 -5 -5 -4 -5 -4 -5 -5 -5 -5 -5 -5 -4 -5 -4 -4 -5 -5 -5
-8 -7 -7 -7 -7 -7 -7 -7 -7 -6 -6 -6 -6 -6 -6 -6 -5 -5 -5 -5 -5 -5 -5 -5 -4 -4 -4 -5 -5 -5 -5 -5 -5 -5 -5 -5 -5 -5 -4 -4 -5 -5 -5 -5 -5
-7 -7 -7 -7 -7 -7 -7 -6 -6 -6 -6 -6 -6 -6 -6 -6 -6 -6 -5 -5 -5 -5 -5 -5 -5 -4 -5 -5 -5 -4 -4 -5 -5 -5 -5 -5 -6 -5 -4 -5 -5 -5 -5 -5 -5
-7 -7 -7 -7 -7 -7 -7 -7 -7 -6 -6 -6 -6 -6 -6 -6 -6 -6 -6 -6 -5 -5 -5 -5 -5 -5 -5 -5 -5 -5 -5 -4 -5 -5 -5 -5 -5 -5 -5 -5 -5 -5 -5 -5 -6
-8 -8 -8 -8 -7 -7 -7 -7 -7 -7 -7 -6 -6 -6 -6 -6 -6 -6 -6 -6 -6 -6 -5 -5 -6 -5 -5 -5 -5 -6 -5 -5 -5 -5 -5 -5 -7 -5 -5 -5 -5 -5 -5 -6 -6
-8 -8 -8 -8 -8 -8 -7 -7 -7 -7 -7 -7 -6 -6 -6 -6 -6 -6 -6 -6 -6 -6 -6 -6 -6 -6 -5 -5 -5 -6 -6 -6 -5 -5 -5 -5 -6 -5 -4 -5 -5 -4 -5 -6 -6
-9 -9 -8 -8 -8 -8 -8 -8 -7 -7 -7 -7 -6 -6 -6 -6 -6 -6 -6 -6 -6 -6 -6 -6 -6 -5 -6 -6 -7 -8 -7 -7 -8 -8 -6 -6 -8 -5 -6 -5 -4 -4 -5 -6 -6
-10 -9 -9 -9 -8 -8 -8 -8 -7 -7 -7 -7 -7 -7 -6 -6 -6 -6 -6 -6 -6 -6 -6 -6 -6 -6 -6 -6 -7 -7 -6 -7 -8 -8 -8 -8 -7 -6 -5 -5 -4 -4 -4 -5 -5
-10 -10 -10 -9 -9 -9 -9 -8 -8 -8 -7 -8 -8 -7 -7 -7 -7 -7 -7 -7 -6 -7 -7 -6 -6 -7 -6 -6 -6 -7 -7 -7 -7 -9 -8 -9 -8 -6 -6 -7 -6 -4 -4 -4 -4
-11 -10 -10 -10 -10 -10 -10 -10 -10 -9 -10 -8 -9 -9 -9 -9 -8 -8 -8 -8 -7 -7 -7 -7 -7 -7 -7 -6 -7 -7 -7 -7 -7 -9 -7 -7 -8 -8 -8 -6 -6 -5 -5 -5 -5
-11 -11 -10 -11 -12 -12 -13 -12 -12 -12 -13 -11 -11 -11 -11 -11 -10 -10 -10 -9 -9 -8 -8 -8 -7 -7 -7 -7 -7 -7 -8 -8 -7 -6 -10 -9 -8 -8 -8 -6 -5 -5 -5 -5 -5
-12 -12 -12 -13 -13 -13 -13 -13 -13 -14 -14 -13 -13 -13 -13 -13 -13 -13 -12 -12 -11 -10 -9 -8 -9 -8 -7 -8 -7 -7 -8 -8 -8 -7 -8 -6 -9 -8 -7 -7 -6 -5 -5 -6 -6
-14 -14 -13 -14 -14 -14 -14 -14 -14 -14 -14 -13 -13 -13 -13 -13 -13 -13 -13 -13 -13 -13 -11 -11 -9 -8 -8 -8 -8 -8 -9 -8 -8 -8 -6 -6 -7 -8 -8 -7 -7 -6 -6 -6 -6
-14 -14 -14 -15 -15 -14 -14 -14 -14 -15 -13 -13 -14 -14 -14 -13 -14 -13 -14 -14 -14 -14 -14 -15 -13 -10 -10 -8 -9 -8 -9 -8 -10 -9 -6 -7 -8 -7 -8 -7 -5 -5 -7 -6 -6
-15 -15 -15 -15 -15 -15 -15 -15 -15 -14 -14 -14 -14 -14 -14 -13 -14 -13 -14 -15 -14 -13 -14 -15 -15 -14 -14 -11 -11 -10 -10 -9 -11 -9 -9 -8 -7 -9 -7 -9 -6 -5 -8 -6 -6
-15 -15 -15 -16 -15 -15 -15 -15 -14 -14 -14 -14 -14 -14 -14 -14 -13 -14 -15 -14 -14 -13 -14 -14 -14 -14 -15 -14 -13 -13 -12 -11 -11 -11 -9 -8 -8 -8 -8 -8 -9 -6 -6 -7 -7
-14 -15 -15 -15 -15 -15 -15 -15 -15 -15 -14 -14 -14 -14 -14 -14 -14 -15 -15 -15 -14 -14 -14 -15 -14 -15 -16 -15 -15 -12 -11 -12 -12 -12 -10 -9 -8 -9 -9 -8 -8 -8 -6 -7 -7
-14 -15 -15 -15 -15 -15 -15 -15 -15 -15 -14 -14 -14 -14 -14 -15 -15 -15 -16 -18 -14 -14 -15 -16 -15 -15 -15 -15 -15 -15 -14 -13 -13 -12 -11 -10 -9 -9 -9 -10 -9 -7 -9 -7 -7
-15 -15 -15 -15 -15 -15 -15 -15 -15 -15 -15 -15 -14 -15 -15 -15 -15 -16 -17 -17 -15 -15 -16 -16 -14 -15 -15 -16 -16 -15 -14 -14 -13 -12 -11 -10 -10 -10 -10 -10 -10 -9 -10 -9 -9
-15 -15 -15 -15 -15 -15 -15 -15 -15 -15 -14 -14 -14 -14 -15 -17 -17 -18 -19 -19 -17 -18 -16 -16 -17 -16 -17 -17 -17 -17 -15 -15 -14 -13 -12 -11 -10 -10 -11 -11 -10 -10 -9 -8 -7
-16 -16 -16 -15 -15 -15 -15 -15 -15 -15 -14 -15 -15 -16 -18 -18 -18 -19 -19 -20 -20 -20 -19 -19 -18 -18 -17 -17 -17 -17 -16 -16 -14 -13 -12 -12 -11 -10 -10 -10 -10 -9 -7 -7 -7
-16 -16 -16 -16 -16 -16 -16 -16 -15 -15 -15 -16 -17 -18 -18 -18 -19 -19 -20 -20 -21 -22 -22 -21 -20 -18 -17 -17 -17 -16 -16 -15 -13 -12 -12 -11 -11 -11 -10 -10 -10 -10 -8 -8 -8
-16 -16 -16 -16 -16 -17 -17 -16 -16 -16 -16 -17 -18 -18 -19 -18 -19 -19 -20 -21 -21 -22 -23 -22 -21 -20 -19 -19 -18 -17 -16 -15 -15 -14 -13 -12 -11 -11 -10 -10 -11 -8 -8 -8 -8

GFSSW_500_temp_078.txt.gz
Temp
-5 -5 -5 -5 -5 -5 -5 -5 -5 -5 -5 -5 -5 -4 -4 -4 -4 -4 -4 -4 -4 -4 -4 -4 -4 -3 -3 -4 -4 -3 -4 -4 -5 -4 -4 -5 -4 -4 -4 -4 -4 -4 -4 -5 -5
-6 -6 -6 -5 -5 -5 -5 -5 -5 -5 -5 -5 -4 -4 -4 -4 -4 -4 -4 -4 -4 -4 -4 -4 -4 -4 -3 -4 -4 -3 -3 -4 -5 -3 -4 -3 -4 -4 -5 -5 -4 -4 -4 -5 -5
-6 -6 -6 -6 -6 -6 -5 -5 -5 -5 -5 -5 -5 -4 -4 -4 -4 -5 -4 -4 -4 -4 -4 -4 -4 -4 -3 -3 -4 -4 -5 -4 -4 -4 -4 -5 -4 -5 -4 -3 -3 -4 -4 -4 -5
-7 -7 -7 -7 -7 -6 -6 -6 -6 -6 -6 -5 -5 -5 -4 -4 -4 -4 -5 -4 -4 -4 -4 -4 -4 -4 -4 -4 -4 -4 -5 -4 -5 -3 -4 -5 -4 -4 -4 -4 -5 -4 -4 -4 -5
-7 -8 -8 -8 -7 -7 -7 -7 -7 -7 -6 -6 -6 -6 -5 -4 -4 -4 -4 -5 -4 -4 -4 -4 -4 -4 -4 -4 -4 -4 -5 -5 -5 -5 -6 -4 -4 -4 -5 -5 -4 -4 -4 -4 -5
-8 -8 -8 -8 -7 -7 -7 -7 -7 -7 -7 -7 -6 -6 -6 -5 -5 -5 -5 -5 -5 -5 -4 -4 -4 -4 -4 -4 -4 -4 -5 -5 -5 -5 -6 -5 -4 -3 -4 -5 -4 -3 -4 -5 -5
-8 -8 -8 -7 -7 -7 -7 -7 -7 -7 -7 -6 -6 -6 -6 -6 -5 -5 -5 -5 -5 -5 -5 -4 -4 -4 -4 -4 -4 -4 -4 -5 -5 -5 -6 -6 -5 -4 -4 -4 -4 -5 -5 -5 -5
-8 -8 -8 -8 -7 -7 -7 -7 -7 -7 -7 -7 -6 -6 -6 -6 -6 -6 -6 -6 -5 -5 -5 -5 -5 -4 -4 -4 -4 -4 -4 -4 -5 -5 -5 -5 -6 -5 -4 -3 -4 -5 -4 -5 -5
-8 -8 -8 -8 -8 -7 -7 -7 -7 -7 -7 -7 -7 -7 -6 -6 -6 -6 -6 -6 -6 -6 -5 -5 -5 -5 -5 -5 -4 -5 -4 -4 -5 -5 -5 -5 -6 -4 -5 -6 -4 -5 -5 -4 -5
-9 -8 -8 -8 -8 -8 -8 -8 -7 -7 -7 -7 -7 -7 -7 -6 -6 -6 -6 -6 -6 -6 -6 -6 -6 -5 -5 -5 -4 -5 -5 -5 -5 -5 -5 -6 -6 -6 -5 -5 -5 -5 -5 -5 -5
-10 -9 -9 -9 -9 -8 -8 -8 -8 -8 -8 -7 -7 -7 -7 -6 -6 -6 -6 -6 -6 -6 -6 -6 -6 -5 -6 -5 -6 -6 -6 -6 -6 -7 -8 -6 -7 -6 -5 -6 -5 -6 -5 -4 -5
-10 -10 -10 -10 -9 -9 -9 -8 -8 -8 -8 -7 -7 -7 -7 -7 -6 -6 -6 -6 -6 -6 -6 -6 -6 -6 -6 -6 -6 -6 -6 -5 -8 -8 -8 -8 -8 -6 -5 -6 -5 -4 -4 -4 -3
-10 -10 -10 -10 -10 -10 -9 -9 -9 -9 -8 -8 -8 -8 -7 -7 -7 -7 -6 -6 -6 -6 -6 -6 -6 -7 -6 -6 -6 -6 -6 -6 -7 -8 -8 -8 -7 -6 -5 -5 -5 -4 -4 -3 -3
-11 -11 -11 -10 -10 -10 -10 -10 -10 -9 -9 -8 -9 -8 -9 -8 -8 -7 -7 -7 -7 -7 -7 -7 -7 -7 -7 -6 -7 -6 -7 -6 -6 -7 -8 -8 -8 -7 -6 -5 -6 -6 -4 -4 -4
-11 -11 -11 -11 -11 -11 -11 -12 -12 -12 -12 -10 -10 -10 -10 -9 -9 -9 -8 -8 -8 -8 -8 -7 -7 -7 -7 -7 -7 -7 -7 -7 -7 -6 -7 -8 -8 -8 -7 -6 -6 -6 -5 -4 -4
-12 -12 -13 -13 -13 -13 -13 -13 -13 -13 -14 -13 -12 -12 -12 -12 -11 -11 -10 -10 -10 -9 -9 -8 -8 -8 -7 -8 -7 -7 -8 -7 -7 -7 -6 -6 -8 -8 -7 -6 -7 -7 -6 -4 -5
-13 -13 -13 -14 -14 -14 -14 -14 -14 -14 -15 -14 -14 -13 -13 -13 -13 -13 -12 -12 -12 -11 -11 -11 -10 -9 -9 -8 -8 -8 -8 -8 -8 -8 -6 -6 -7 -7 -8 -7 -5 -6 -4 -4 -4
-14 -14 -15 -15 -15 -15 -15 -15 -14 -15 -16 -15 -14 -14 -14 -13 -13 -13 -13 -13 -13 -13 -13 -13 -13 -11 -11 -9 -9 -9 -8 -9 -8 -8 -6 -6 -6 -5 -6 -7 -7 -5 -6 -5 -5
-14 -14 -15 -15 -16 -15 -15 -15 -16 -15 -15 -14 -14 -14 -14 -14 -14 -13 -13 -14 -16 -13 -13 -13 -13 -14 -13 -12 -11 -10 -11 -9 -11 -10 -9 -8 -7 -7 -6 -7 -6 -5 -7 -6 -5
-14 -14 -15 -15 -16 -16 -15 -15 -15 -15 -15 -15 -15 -14 -16 -17 -13 -14 -14 -14 -15 -13 -12 -13 -13 -13 -13 -13 -13 -13 -12 -12 -11 -11 -10 -9 -8 -8 -7 -6 -8 -6 -7 -6 -5
-14 -14 -15 -15 -15 -15 -15 -15 -15 -15 -15 -15 -15 -15 -15 -15 -14 -14 -15 -16 -14 -13 -13 -13 -14 -13 -13 -13 -13 -13 -12 -12 -12 -11 -11 -10 -8 -7 -7 -7 -7 -9 -7 -5 -4
-15 -14 -15 -15 -15 -15 -15 -15 -15 -15 -15 -15 -15 -15 -14 -14 -14 -14 -15 -16 -13 -13 -13 -13 -13 -13 -14 -13 -15 -13 -13 -13 -12 -12 -11 -10 -8 -8 -8 -8 -8 -8 -9 -8 -7
-15 -15 -15 -15 -15 -15 -15 -15 -15 -15 -15 -14 -14 -14 -14 -15 -15 -15 -15 -15 -13 -13 -13 -13 -14 -14 -14 -14 -14 -15 -13 -13 -12 -12 -11 -11 -8 -9 -8 -8 -9 -9 -9 -9 -9
-16 -15 -16 -16 -15 -15 -15 -15 -15 -15 -15 -15 -15 -15 -15 -15 -16 -16 -17 -17 -17 -16 -15 -15 -15 -16 -15 -16 -16 -16 -16 -14 -14 -13 -11 -10 -9 -10 -9 -9 -9 -10 -9 -9 -9
-16 -15 -15 -15 -15 -15 -15 -15 -15 -15 -15 -15 -15 -16 -17 -17 -17 -17 -17 -17 -17 -17 -18 -18 -17 -16 -16 -16 -16 -16 -16 -16 -14 -13 -13 -12 -10 -10 -9 -10 -10 -10 -9 -8 -9
-16 -16 -15 -16 -16 -15 -15 -15 -16 -16 -16 -16 -16 -17 -18 -18 -18 -18 -17 -18 -18 -18 -19 -19 -19 -18 -16 -17 -16 -16 -16 -15 -15 -13 -12 -12 -10 -11 -10 -9 -10 -10 -10 -9 -8
-16 -16 -16 -16 -16 -16 -16 -16 -17 -17 -17 -17 -17 -18 -18 -18 -18 -18 -18 -18 -18 -19 -20 -20 -20 -20 -19 -19 -18 -17 -16 -16 -15 -14 -13 -11 -10 -11 -9 -10 -10 -9 -9 -8 -8

GFSSW_500_temp_081.txt.gz
Temp
-5 -5 -5 -5 -5 -5 -5 -5 -5 -5 -4 -4 -4 -4 -4 -4 -4 -4 -4 -4 -4 -4 -4 -4 -4 -4 -3 -3 -3 -3 -3 -4 -4 -4 -4 -4 -5 -5 -5 -5 -4 -4 -5 -4 -4
-6 -6 -6 -5 -5 -5 -5 -5 -5 -5 -5 -4 -4 -4 -4 -4 -4 -4 -4 -4 -4 -4 -4 -4 -4 -3 -4 -3 -4 -4 -4 -3 -3 -4 -4 -5 -4 -4 -5 -5 -4 -4 -4 -4 -4
-7 -6 -6 -6 -6 -6 -6 -6 -5 -5 -5 -5 -4 -4 -4 -4 -4 -4 -4 -4 -4 -4 -4 -4 -4 -4 -4 -3 -4 -4 -4 -3 -4 -5 -4 -5 -4 -3 -4 -4 -5 -4 -4 -4 -4
-7 -7 -7 -7 -7 -7 -6 -6 -6 -6 -6 -5 -5 -4 -4 -4 -4 -4 -4 -4 -4 -4 -4 -4 -4 -4 -4 -4 -4 -4 -4 -5 -5 -5 -5 -5 -4 -4 -4 -4 -4 -4 -5 -4 -4
-8 -8 -8 -8 -7 -7 -7 -7 -7 -7 -7 -6 -6 -5 -5 -4 -4 -4 -4 -4 -4 -4 -4 -4 -4 -4 -4 -5 -4 -5 -5 -5 -5 -5 -4 -5 -5 -5 -5 -4 -5 -4 -5 -4 -4
-8 -8 -8 -8 -8 -8 -7 -7 -7 -7 -7 -7 -7 -6 -6 -5 -5 -4 -5 -4 -4 -4 -4 -4 -4 -4 -4 -4 -5 -5 -5 -7 -5 -5 -4 -5 -5 -5 -5 -5 -5 -5 -5 -5 -4
-8 -8 -8 -8 -8 -8 -8 -7 -7 -7 -7 -7 -7 -7 -6 -6 -5 -5 -5 -5 -5 -4 -5 -4 -4 -4 -4 -4 -4 -4 -4 -4 -6 -5 -5 -4 -4 -5 -5 -5 -5 -5 -5 -5 -4
-8 -8 -8 -8 -8 -8 -8 -7 -7 -7 -7 -7 -7 -7 -7 -6 -6 -6 -6 -5 -5 -5 -5 -5 -4 -4 -4 -4 -4 -4 -5 -5 -5 -6 -6 -4 -4 -4 -4 -6 -6 -6 -6 -5 -5
-9 -9 -9 -8 -8 -8 -8 -8 -8 -7 -7 -7 -7 -7 -7 -7 -6 -6 -6 -6 -6 -5 -5 -5 -5 -5 -4 -4 -4 -4 -4 -5 -6 -6 -6 -6 -6 -6 -5 -6 -7 -5 -6 -5 -4
-10 -9 -9 -9 -9 -9 -9 -8 -8 -8 -8 -7 -7 -7 -7 -7 -7 -7 -6 -6 -6 -6 -6 -6 -5 -5 -5 -5 -5 -5 -5 -5 -6 -6 -6 -7 -7 -6 -6 -7 -5 -6 -6 -5 -4
-10 -10 -10 -10 -9 -9 -9 -9 -9 -8 -8 -8 -7 -7 -7 -7 -7 -7 -7 -7 -6 -6 -6 -6 -6 -5 -6 -5 -5 -5 -5 -5 -6 -8 -7 -7 -6 -6 -6 -6 -6 -5 -6 -5 -5
-11 -11 -10 -10 -10 -10 -10 -9 -9 -9 -9 -8 -8 -8 -7 -7 -7 -7 -7 -7 -7 -6 -6 -6 -6 -6 -6 -6 -6 -6 -6 -5 -5 -7 -9 -8 -8 -7 -7 -6 -7 -6 -6 -5 -5
-11 -11 -11 -11 -10 -10 -10 -10 -9 -9 -9 -9 -9 -8 -8 -7 -7 -7 -7 -7 -7 -7 -6 -6 -6 -7 -7 -6 -6 -6 -6 -6 -6 -7 -8 -8 -9 -8 -7 -6 -6 -6 -6 -5 -5
-11 -11 -11 -11 -11 -11 -11 -10 -10 -10 -10 -9 -9 -9 -9 -9 -8 -8 -7 -7 -7 -7 -7 -6 -7 -7 -7 -6 -7 -6 -7 -7 -7 -6 -7 -8 -8 -8 -7 -7 -7 -7 -6 -5 -6
-11 -11 -11 -12 -12 -11 -11 -11 -12 -11 -11 -10 -11 -10 -10 -9 -9 -9 -9 -8 -8 -8 -7 -7 -7 -7 -7 -7 -7 -7 -7 -7 -7 -7 -6 -7 -7 -8 -8 -7 -7 -7 -6 -5 -5
-12 -12 -12 -13 -13 -13 -13 -13 -13 -14 -13 -13 -12 -12 -11 -11 -10 -11 -10 -10 -9 -9 -8 -8 -7 -7 -7 -8 -7 -7 -8 -7 -7 -7 -7 -7 -7 -7 -7 -7 -7 -6 -6 -5 -4
-13 -13 -14 -14 -14 -14 -14 -14 -14 -15 -15 -14 -13 -13 -13 -13 -12 -12 -12 -12 -11 -11 -10 -9 -9 -9 -8 -7 -8 -8 -8 -8 -7 -7 -6 -6 -7 -6 -6 -6 -8 -7 -7 -6 -5
-13 -13 -14 -15 -15 -15 -15 -15 -15 -15 -16 -16 -15 -14 -14 -14 -13 -13 -13 -13 -14 -12 -11 -11 -10 -10 -12 -11 -9 -9 -8 -8 -7 -7 -6 -7 -7 -6 -6 -6 -7 -7 -6 -6 -6
-14 -14 -14 -15 -15 -16 -15 -15 -15 -15 -15 -15 -15 -15 -15 -15 -14 -14 -13 -13 -14 -12 -12 -11 -11 -11 -10 -10 -11 -10 -10 -9 -9 -9 -9 -8 -8 -7 -7 -8 -8 -7 -6 -6 -5
-14 -14 -14 -15 -16 -16 -16 -15 -15 -15 -15 -15 -15 -15 -16 -16 -15 -14 -15 -15 -13 -13 -12 -12 -12 -13 -12 -10 -10 -10 -10 -12 -11 -10 -9 -8 -8 -9 -8 -8 -8 -7 -6 -6 -6
-14 -15 -15 -15 -16 -16 -15 -15 -15 -15 -15 -15 -15 -15 -16 -15 -14 -14 -16 -14 -13 -13 -12 -13 -12 -13 -13 -13 -12 -13 -13 -13 -12 -12 -11 -10 -8 -9 -9 -8 -8 -8 -7 -7 -5
-15 -15 -15 -15 -15 -15 -15 -16 -15 -15 -15 -15 -15 -15 -15 -15 -15 -15 -15 -14 -14 -13 -13 -13 -13 -12 -13 -13 -13 -13 -12 -13 -12 -12 -12 -12 -9 -9 -9 -8 -8 -8 -8 -8 -8
-15 -15 -15 -15 -15 -15 -15 -15 -15 -15 -15 -15 -15 -15 -15 -15 -15 -15 -15 -14 -13 -13 -14 -13 -13 -13 -13 -13 -14 -13 -13 -13 -13 -12 -12 -12 -9 -9 -9 -9 -8 -8 -9 -9 -9
-15 -15 -15 -15 -15 -15 -15 -15 -15 -15 -15 -15 -15 -15 -15 -15 -15 -15 -15 -14 -14 -14 -14 -14 -13 -13 -13 -14 -14 -14 -13 -12 -12 -12 -12 -12 -9 -9 -10 -10 -9 -9 -9 -9 -9
-15 -15 -16 -16 -16 -16 -16 -16 -16 -15 -15 -15 -15 -15 -15 -15 -16 -16 -16 -17 -17 -16 -16 -16 -16 -14 -13 -14 -15 -14 -13 -13 -13 -13 -12 -12 -11 -11 -11 -10 -10 -10 -9 -8 -9
-16 -16 -16 -16 -16 -16 -16 -16 -16 -16 -16 -16 -17 -17 -17 -17 -17 -17 -17 -17 -17 -17 -17 -16 -17 -16 -16 -16 -16 -15 -14 -13 -13 -13 -12 -12 -12 -10 -11 -11 -10 -10 -10 -9 -8
-16 -16 -16 -16 -16 -16 -17 -17 -17 -17 -17 -17 -17 -18 -18 -18 -18 -18 -18 -18 -17 -17 -17 -17 -17 -17 -17 -19 -18 -15 -15 -15 -14 -13 -13 -13 -13 -10 -10 -10 -10 -10 -10 -10 -10

GFSSW_500_temp_084.txt.gz
Temp
-6 -6 -5 -5 -5 -5 -5 -5 -5 -5 -4 -4 -4 -4 -4 -4 -4 -4 -4 -4 -4 -5 -4 -4 -4 -4 -4 -4 -4 -4 -4 -4 -4 -4 -3 -4 -4 -5 -4 -5 -5 -4 -4 -4 -5
-6 -6 -6 -6 -6 -6 -5 -5 -5 -5 -4 -4 -4 -4 -4 -4 -4 -4 -4 -4 -4 -5 -4 -4 -4 -4 -4 -4 -4 -5 -4 -4 -4 -4 -5 -5 -4 -4 -4 -5 -5 -5 -5 -4 -5
-7 -7 -7 -7 -6 -6 -6 -6 -5 -5 -5 -5 -4 -4 -4 -4 -4 -4 -4 -4 -4 -4 -4 -4 -4 -4 -4 -4 -4 -5 -3 -4 -4 -4 -3 -4 -4 -5 -5 -4 -5 -5 -4 -5 -5
-7 -7 -7 -7 -7 -7 -7 -7 -6 -6 -6 -5 -5 -4 -5 -4 -5 -4 -5 -4 -4 -4 -4 -4 -4 -4 -5 -5 -5 -5 -4 -4 -4 -4 -5 -5 -4 -5 -5 -5 -5 -5 -5 -5 -5
-8 -8 -8 -7 -7 -7 -7 -7 -7 -7 -7 -6 -6 -5 -5 -5 -5 -5 -5 -5 -5 -4 -4 -5 -4 -4 -4 -5 -5 -6 -4 -4 -6 -5 -5 -5 -5 -5 -5 -5 -5 -5 -5 -5 -5
-9 -8 -8 -8 -8 -8 -8 -7 -7 -7 -7 -7 -7 -6 -6 -5 -6 -5 -5 -5 -5 -5 -5 -5 -5 -4 -5 -4 -5 -5 -4 -4 -4 -6 -5 -5 -5 -5 -5 -6 -5 -5 -4 -4 -5
-9 -9 -9 -8 -8 -8 -8 -8 -7 -7 -8 -7 -7 -7 -7 -6 -6 -6 -5 -5 -5 -5 -5 -5 -4 -5 -4 -5 -5 -4 -4 -4 -5 -6 -5 -6 -6 -6 -6 -5 -6 -5 -4 -4 -5
-9 -9 -9 -9 -9 -8 -8 -8 -8 -7 -7 -7 -7 -7 -7 -7 -6 -7 -6 -6 -6 -5 -5 -5 -4 -4 -5 -5 -5 -4 -5 -5 -6 -5 -5 -5 -6 -5 -6 -5 -6 -5 -5 -4 -5
-9 -10 -9 -9 -9 -9 -9 -8 -8 -8 -8 -7 -7 -7 -7 -7 -7 -7 -7 -6 -6 -6 -5 -5 -5 -5 -5 -5 -5 -4 -5 -5 -6 -7 -7 -6 -6 -6 -6 -6 -5 -6 -6 -5 -5
-10 -10 -10 -10 -10 -9 -9 -9 -9 -8 -8 -8 -8 -8 -7 -7 -7 -7 -7 -7 -7 -6 -6 -6 -5 -5 -5 -6 -6 -5 -5 -5 -6 -8 -8 -7 -6 -6 -6 -6 -5 -5 -6 -5 -5
-11 -11 -11 -10 -10 -10 -10 -10 -9 -9 -9 -8 -8 -8 -8 -8 -7 -7 -7 -7 -7 -7 -7 -6 -6 -6 -6 -6 -6 -6 -5 -5 -6 -7 -8 -8 -7 -7 -7 -6 -6 -5 -5 -6 -5
-10 -10 -11 -11 -11 -10 -10 -10 -10 -9 -9 -9 -8 -8 -8 -8 -7 -7 -7 -7 -7 -7 -7 -6 -6 -7 -7 -6 -7 -6 -6 -6 -6 -7 -7 -8 -8 -7 -6 -6 -5 -6 -6 -6 -6
-10 -10 -10 -11 -11 -11 -11 -11 -10 -10 -10 -9 -9 -9 -8 -8 -8 -8 -7 -7 -7 -7 -7 -7 -7 -7 -7 -7 -7 -7 -6 -7 -7 -7 -7 -6 -6 -7 -8 -7 -7 -6 -6 -5 -5
-11 -11 -11 -11 -11 -11 -11 -11 -11 -11 -11 -10 -10 -10 -9 -8 -8 -8 -8 -7 -7 -7 -7 -7 -7 -7 -7 -7 -7 -7 -8 -7 -8 -7 -9 -8 -8 -8 -8 -7 -6 -6 -6 -6 -6
-12 -12 -12 -12 -12 -12 -12 -12 -12 -11 -12 -12 -11 -10 -10 -9 -9 -9 -8 -8 -8 -7 -7 -7 -7 -7 -7 -7 -7 -7 -8 -8 -7 -7 -8 -8 -8 -8 -7 -6 -6 -7 -8 -6 -6
-13 -13 -13 -13 -14 -14 -13 -14 -13 -13 -13 -13 -12 -12 -11 -10 -10 -10 -10 -10 -9 -8 -8 -8 -8 -7 -7 -7 -7 -7 -7 -8 -8 -7 -7 -9 -8 -7 -7 -6 -6 -6 -7 -7 -5
-14 -13 -13 -14 -15 -15 -15 -15 -14 -14 -14 -13 -14 -14 -13 -12 -12 -12 -12 -11 -10 -9 -8 -7 -7 -8 -8 -8 -8 -8 -7 -7 -8 -8 -7 -8 -9 -7 -8 -8 -6 -6 -7 -7 -7
-14 -14 -14 -15 -15 -15 -15 -15 -15 -15 -15 -14 -15 -15 -14 -14 -13 -13 -13 -12 -11 -10 -9 -9 -9 -8 -7 -7 -8 -8 -8 -7 -7 -7 -7 -8 -9 -8 -8 -9 -8 -7 -6 -6 -7
-14 -14 -14 -15 -16 -16 -16 -15 -15 -15 -15 -16 -15 -16 -15 -15 -15 -14 -13 -13 -11 -11 -10 -10 -10 -10 -9 -9 -8 -9 -8 -9 -9 -8 -8 -8 -8 -8 -9 -9 -9 -8 -8 -7 -5
-14 -14 -15 -15 -15 -16 -16 -15 -16 -15 -16 -16 -16 -16 -15 -15 -15 -15 -13 -13 -12 -12 -12 -12 -12 -11 -12 -11 -10 -10 -10 -10 -9 -8 -8 -9 -9 -8 -9 -9 -9 -8 -9 -6 -6
-15 -15 -15 -15 -15 -16 -15 -16 -16 -15 -16 -16 -15 -15 -15 -15 -14 -14 -14 -13 -13 -13 -13 -12 -12 -13 -13 -13 -13 -12 -11 -11 -10 -10 -10 -10 -10 -10 -9 -8 -9 -8 -7 -8 -7
-15 -15 -15 -15 -15 -16 -16 -15 -15 -16 -16 -15 -15 -15 -15 -16 -15 -15 -15 -14 -14 -13 -13 -13 -13 -13 -13 -14 -13 -13 -13 -12 -11 -11 -12 -11 -11 -10 -10 -9 -8 -8 -8 -8 -8
-16 -15 -15 -15 -15 -15 -15 -15 -15 -15 -15 -16 -16 -16 -16 -16 -16 -16 -15 -14 -14 -13 -14 -13 -13 -13 -13 -14 -14 -14 -14 -14 -13 -11 -13 -13 -12 -11 -10 -10 -9 -8 -8 -7 -7
-15 -15 -15 -15 -15 -15 -15 -16 -16 -15 -15 -15 -15 -15 -15 -15 -16 -15 -14 -14 -13 -14 -14 -14 -13 -13 -13 -13 -13 -14 -14 -14 -13 -13 -12 -12 -12 -11 -11 -10 -9 -8 -8 -7 -6
-16 -16 -16 -16 -16 -16 -16 -16 -16 -16 -16 -15 -15 -15 -15 -15 -15 -16 -16 -15 -15 -14 -15 -14 -14 -13 -13 -13 -13 -13 -14 -14 -14 -14 -13 -13 -13 -11 -10 -10 -10 -9 -8 -8 -8
-16 -16 -16 -16 -16 -16 -17 -17 -17 -17 -16 -16 -16 -16 -16 -16 -16 -16 -16 -15 -15 -15 -15 -15 -15 -14 -14 -13 -13 -13 -14 -14 -14 -14 -13 -14 -13 -11 -10 -11 -9 -9 -9 -9 -9
-16 -16 -16 -15 -16 -16 -17 -17 -17 -17 -18 -18 -18 -17 -17 -17 -17 -17 -17 -17 -17 -17 -17 -16 -16 -16 -16 -16 -15 -14 -14 -14 -15 -14 -14 -13 -13 -12 -11 -11 -10 -10 -10 -10 -10

GFSSW_500_temp_087.txt.gz
Temp
-6 -6 -6 -6 -6 -6 -5 -5 -5 -5 -5 -5 -5 -5 -5 -5 -5 -5 -5 -5 -5 -5 -5 -5 -5 -5 -5 -5 -5 -4 -4 -5 -4 -5 -3 -4 -4 -6 -5 -5 -4 -6 -5 -5 -5
-7 -6 -6 -6 -6 -6 -6 -6 -5 -5 -5 -5 -5 -5 -5 -5 -5 -5 -5 -5 -5 -5 -4 -5 -5 -5 -5 -5 -5 -5 -5 -5 -5 -4 -4 -4 -4 -6 -6 -4 -4 -6 -6 -6 -5
-7 -7 -7 -7 -7 -6 -6 -6 -6 -6 -5 -5 -5 -5 -5 -6 -6 -5 -5 -5 -5 -5 -5 -5 -5 -5 -5 -5 -5 -5 -5 -5 -5 -5 -5 -5 -5 -5 -4 -4 -4 -5 -6 -6 -5
-8 -8 -7 -7 -7 -7 -7 -7 -6 -6 -6 -6 -5 -6 -5 -6 -5 -5 -5 -5 -5 -5 -5 -5 -5 -5 -5 -6 -5 -5 -5 -5 -5 -4 -4 -5 -5 -5 -5 -5 -6 -6 -5 -6 -5
-8 -8 -8 -8 -8 -8 -8 -8 -7 -7 -7 -7 -6 -6 -6 -6 -5 -6 -5 -5 -5 -5 -5 -5 -5 -5 -5 -5 -6 -5 -5 -4 -5 -5 -5 -5 -5 -5 -5 -6 -6 -6 -6 -6 -5
-8 -9 -9 -9 -8 -8 -8 -8 -8 -8 -7 -7 -7 -7 -7 -6 -6 -6 -6 -5 -6 -5 -5 -5 -5 -5 -4 -4 -5 -4 -4 -4 -5 -4 -5 -5 -5 -5 -5 -5 -6 -5 -5 -5 -5
-9 -9 -9 -9 -9 -8 -8 -8 -8 -8 -8 -8 -8 -7 -7 -7 -7 -6 -6 -6 -6 -6 -6 -5 -5 -5 -5 -5 -4 -4 -4 -5 -5 -5 -4 -5 -5 -5 -5 -5 -6 -5 -5 -5 -5
-10 -10 -9 -9 -9 -9 -8 -8 -8 -8 -8 -8 -8 -8 -7 -7 -8 -7 -7 -7 -6 -6 -5 -5 -5 -5 -5 -5 -5 -5 -5 -5 -6 -6 -4 -5 -6 -6 -5 -6 -5 -5 -6 -6 -5
-10 -10 -10 -10 -10 -9 -9 -9 -8 -8 -8 -8 -8 -8 -8 -7 -7 -8 -7 -7 -7 -6 -6 -6 -6 -6 -6 -5 -5 -5 -6 -6 -6 -6 -6 -6 -6 -6 -6 -6 -5 -5 -6 -6 -6
-9 -10 -10 -10 -10 -10 -10 -10 -9 -9 -8 -8 -8 -8 -8 -8 -7 -7 -7 -7 -7 -7 -6 -6 -6 -6 -6 -6 -6 -6 -6 -6 -6 -5 -5 -6 -7 -7 -6 -6 -6 -6 -6 -6 -6
-10 -10 -10 -10 -10 -11 -11 -10 -10 -9 -9 -9 -8 -8 -8 -8 -8 -7 -7 -7 -7 -7 -7 -7 -7 -6 -7 -7 -6 -6 -6 -7 -6 -7 -5 -6 -7 -7 -6 -6 -5 -5 -5 -6 -7
-10 -10 -10 -10 -10 -10 -11 -11 -10 -10 -10 -9 -9 -9 -8 -8 -8 -8 -8 -8 -7 -7 -7 -7 -7 -7 -7 -7 -7 -6 -7 -7 -8 -7 -6 -5 -6 -6 -5 -5 -5 -5 -5 -6 -5
-10 -10 -11 -11 -11 -11 -11 -11 -11 -11 -10 -10 -10 -9 -9 -9 -8 -8 -8 -8 -8 -7 -7 -7 -8 -8 -7 -7 -7 -7 -7 -7 -8 -7 -6 -6 -6 -5 -5 -5 -6 -6 -6 -6 -5
-11 -12 -12 -12 -12 -12 -11 -11 -12 -12 -12 -11 -11 -10 -10 -9 -9 -8 -8 -8 -8 -8 -8 -8 -8 -8 -8 -8 -7 -7 -8 -9 -8 -7 -7 -7 -6 -5 -5 -5 -6 -6 -7 -7 -6
-13 -13 -13 -13 -13 -13 -13 -12 -12 -12 -12 -12 -11 -11 -10 -10 -10 -9 -9 -8 -8 -8 -7 -8 -8 -8 -8 -8 -8 -8 -8 -9 -9 -8 -7 -7 -7 -6 -5 -5 -6 -6 -7 -7 -6
-13 -14 -13 -13 -13 -14 -14 -14 -14 -14 -13 -13 -12 -12 -11 -11 -11 -10 -10 -9 -9 -8 -8 -8 -8 -8 -8 -8 -8 -8 -8 -8 -9 -8 -7 -7 -7 -7 -6 -6 -6 -6 -7 -8 -6
-14 -14 -14 -14 -14 -15 -15 -15 -15 -15 -14 -14 -13 -13 -12 -12 -11 -11 -10 -10 -9 -9 -8 -8 -8 -8 -8 -8 -8 -8 -8 -8 -8 -8 -8 -8 -7 -7 -7 -7 -7 -7 -7 -7 -6
-14 -14 -14 -14 -15 -15 -16 -15 -16 -15 -14 -15 -15 -14 -14 -13 -13 -12 -11 -10 -10 -10 -9 -9 -9 -8 -8 -8 -8 -8 -8 -8 -8 -8 -9 -9 -9 -8 -7 -7 -7 -7 -7 -7 -6
-14 -14 -14 -14 -15 -16 -16 -16 -16 -15 -16 -16 -15 -15 -15 -14 -14 -13 -13 -12 -12 -11 -10 -10 -10 -10 -9 -9 -10 -10 -9 -9 -8 -8 -8 -9 -9 -9 -8 -8 -7 -7 -8 -7 -7
-15 -15 -15 -15 -15 -16 -16 -16 -16 -16 -16 -16 -15 -16 -16 -15 -14 -14 -14 -13 -13 -12 -12 -12 -12 -12 -11 -10 -10 -11 -10 -10 -9 -9 -9 -9 -9 -9 -9 -9 -8 -7 -7 -7 -7
-15 -15 -15 -15 -16 -16 -16 -16 -16 -16 -16 -16 -16 -16 -16 -16 -15 -14 -14 -13 -13 -13 -13 -13 -13 -13 -13 -12 -11 -11 -11 -11 -10 -10 -9 -9 -9 -8 -9 -9 -8 -8 -7 -7 -7
-15 -15 -16 -16 -15 -15 -16 -16 -16 -16 -16 -16 -16 -16 -16 -16 -15 -15 -14 -14 -14 -13 -13 -13 -13 -14 -14 -13 -12 -12 -12 -12 -11 -11 -10 -10 -10 -8 -8 -8 -9 -8 -7 -7 -6
-16 -16 -15 -16 -16 -16 -16 -16 -16 -16 -16 -16 -15 -15 -16 -16 -16 -15 -15 -14 -14 -14 -14 -14 -14 -14 -14 -14 -13 -13 -13 -13 -12 -12 -12 -12 -10 -9 -8 -8 -9 -9 -8 -7 -7
-16 -16 -16 -16 -16 -16 -16 -16 -16 -15 -16 -15 -16 -15 -15 -15 -15 -15 -15 -14 -14 -14 -15 -14 -14 -14 -14 -14 -14 -14 -13 -13 -13 -13 -13 -12 -11 -10 -9 -8 -8 -9 -9 -8 -7
-15 -16 -16 -16 -16 -16 -16 -16 -16 -16 -16 -15 -15 -16 -16 -16 -16 -15 -15 -15 -15 -15 -15 -14 -14 -13 -14 -14 -14 -14 -14 -14 -14 -13 -13 -13 -12 -12 -10 -10 -9 -8 -9 -8 -8
-15 -15 -16 -15 -15 -16 -16 -17 -17 -17 -17 -16 -16 -16 -16 -16 -16 -16 -15 -15 -15 -15 -15 -15 -14 -14 -14 -14 -14 -14 -14 -14 -14 -13 -14 -14 -13 -13 -12 -11 -10 -9 -9 -9 -8
-15 -15 -15 -16 -16 -16 -16 -16 -16 -17 -17 -18 -18 -17 -17 -17 -17 -17 -16 -16 -15 -15 -15 -15 -15 -15 -15 -15 -15 -14 -14 -14 -14 -14 -13 -13 -13 -13 -12 -12 -12 -10 -10 -9 -8

GFSSW_500_temp_090.txt.gz
Temp
-5 -6 -6 -6 -6 -6 -6 -6 -6 -5 -5 -6 -6 -6 -6 -6 -6 -6 -6 -5 -5 -5 -5 -5 -5 -6 -5 -5 -5 -5 -5 -4 -4 -4 -3 -4 -5 -5 -5 -5 -5 -6 -6 -6 -6
-6 -6 -6 -6 -6 -6 -6 -6 -6 -6 -6 -6 -6 -6 -6 -6 -6 -6 -5 -5 -5 -5 -5 -5 -5 -6 -5 -6 -5 -5 -5 -4 -4 -4 -4 -4 -5 -5 -5 -5 -6 -6 -6 -6 -6
-7 -8 -8 -7 -7 -7 -7 -7 -6 -6 -6 -6 -6 -6 -6 -6 -6 -6 -6 -6 -5 -5 -5 -5 -5 -5 -5 -6 -6 -5 -5 -5 -5 -4 -5 -4 -3 -5 -6 -6 -6 -5 -5 -6 -6
-8 -8 -8 -8 -8 -7 -7 -7 -7 -7 -7 -7 -6 -6 -6 -6 -6 -6 -6 -6 -6 -5 -6 -5 -5 -5 -6 -6 -6 -5 -5 -5 -5 -5 -5 -4 -5 -5 -5 -6 -6 -5 -6 -5 -6
-8 -8 -8 -8 -8 -8 -8 -8 -7 -8 -7 -7 -7 -7 -7 -6 -6 -6 -6 -6 -6 -6 -6 -6 -5 -5 -5 -5 -6 -5 -4 -5 -5 -5 -5 -5 -5 -5 -6 -6 -6 -6 -5 -5 -5
-8 -8 -9 -9 -9 -9 -8 -8 -8 -8 -8 -8 -8 -8 -8 -7 -7 -6 -6 -6 -6 -6 -6 -6 -5 -5 -5 -5 -5 -4 -4 -5 -6 -6 -6 -5 -5 -5 -5 -6 -6 -6 -5 -5 -5
-8 -9 -9 -9 -9 -9 -9 -8 -8 -8 -8 -8 -8 -8 -8 -8 -7 -7 -7 -7 -6 -6 -6 -6 -6 -6 -5 -5 -4 -4 -5 -6 -6 -6 -6 -6 -5 -5 -5 -6 -6 -6 -5 -5 -6
-8 -9 -9 -9 -9 -9 -9 -9 -9 -8 -8 -8 -8 -8 -9 -8 -8 -8 -7 -7 -7 -7 -6 -6 -6 -6 -6 -5 -5 -5 -5 -6 -6 -6 -6 -5 -5 -6 -6 -6 -6 -6 -6 -5 -5
-9 -9 -9 -9 -9 -10 -10 -9 -9 -9 -9 -9 -8 -8 -8 -8 -8 -8 -8 -8 -7 -7 -7 -6 -6 -6 -6 -6 -6 -5 -6 -6 -7 -6 -7 -6 -5 -6 -6 -7 -6 -6 -7 -6 -6
-9 -9 -9 -9 -10 -10 -10 -10 -10 -9 -9 -9 -9 -9 -8 -8 -8 -8 -8 -8 -8 -7 -7 -7 -7 -7 -7 -6 -6 -6 -6 -6 -7 -6 -7 -6 -6 -6 -6 -7 -7 -7 -7 -6 -6
-10 -9 -9 -10 -9 -10 -10 -10 -11 -10 -10 -10 -9 -9 -9 -8 -8 -8 -8 -8 -8 -8 -8 -8 -7 -7 -7 -7 -7 -7 -6 -7 -7 -6 -7 -7 -7 -6 -5 -5 -6 -7 -7 -6 -6
-10 -10 -10 -10 -10 -11 -11 -11 -11 -12 -11 -10 -10 -10 -9 -9 -8 -8 -8 -8 -8 -8 -8 -8 -8 -8 -8 -8 -7 -7 -7 -7 -7 -6 -6 -7 -7 -6 -6 -5 -5 -6 -7 -7 -6
-11 -11 -11 -12 -12 -12 -12 -12 -12 -12 -12 -11 -11 -10 -10 -9 -9 -9 -8 -8 -8 -8 -8 -8 -8 -8 -8 -8 -8 -7 -7 -7 -7 -6 -6 -6 -6 -7 -6 -6 -5 -6 -7 -6 -6
-12 -12 -13 -13 -13 -13 -13 -12 -12 -12 -12 -12 -11 -11 -10 -10 -10 -9 -9 -9 -8 -8 -8 -8 -8 -8 -8 -8 -8 -8 -8 -8 -7 -6 -6 -6 -7 -6 -6 -6 -6 -6 -7 -7 -6
-13 -13 -13 -13 -13 -13 -13 -13 -13 -13 -13 -13 -12 -11 -11 -11 -10 -10 -9 -9 -9 -8 -8 -8 -8 -8 -8 -8 -8 -9 -9 -8 -8 -7 -6 -7 -7 -7 -7 -6 -7 -7 -8 -8 -8
-13 -13 -13 -14 -14 -13 -14 -14 -14 -14 -14 -13 -13 -12 -12 -11 -11 -10 -10 -9 -9 -9 -9 -9 -9 -8 -8 -8 -9 -9 -9 -9 -8 -7 -7 -7 -7 -7 -6 -7 -7 -7 -7 -7 -7
-14 -14 -14 -14 -14 -14 -15 -15 -15 -14 -14 -14 -13 -13 -13 -12 -11 -11 -10 -10 -10 -9 -9 -9 -9 -9 -9 -8 -9 -9 -9 -9 -9 -8 -8 -8 -8 -7 -7 -7 -7 -6 -7 -6 -6
-14 -14 -14 -14 -14 -15 -16 -16 -16 -15 -15 -15 -14 -14 -13 -12 -12 -12 -11 -11 -10 -10 -10 -9 -9 -9 -9 -9 -9 -9 -9 -9 -9 -8 -8 -9 -8 -8 -7 -7 -7 -7 -7 -6 -6
-15 -15 -15 -15 -15 -16 -16 -16 -16 -16 -16 -16 -15 -15 -15 -14 -13 -13 -12 -12 -12 -11 -11 -11 -10 -10 -10 -10 -10 -10 -9 -9 -9 -9 -9 -9 -9 -8 -8 -7 -7 -7 -7 -7 -6
-15 -15 -15 -15 -16 -16 -16 -16 -16 -16 -16 -16 -16 -16 -15 -15 -15 -14 -14 -13 -13 -13 -13 -12 -12 -11 -11 -10 -11 -11 -11 -10 -9 -9 -9 -9 -9 -9 -8 -8 -8 -8 -8 -7 -7
-16 -16 -15 -16 -16 -16 -16 -16 -16 -17 -17 -16 -16 -16 -16 -15 -15 -15 -15 -14 -14 -14 -14 -14 -14 -13 -12 -12 -11 -11 -11 -11 -10 -10 -9 -9 -9 -8 -9 -8 -7 -8 -8 -8 -7
-16 -16 -16 -15 -16 -16 -16 -16 -17 -17 -16 -16 -16 -16 -16 -16 -15 -15 -14 -14 -14 -14 -14 -14 -14 -14 -13 -13 -12 -12 -12 -11 -11 -10 -10 -9 -9 -9 -8 -8 -8 -7 -8 -8 -8
-15 -15 -16 -15 -15 -16 -16 -16 -16 -16 -16 -16 -16 -16 -16 -16 -16 -15 -15 -14 -14 -14 -15 -15 -15 -14 -14 -14 -13 -12 -12 -12 -11 -11 -10 -10 -9 -9 -9 -9 -8 -8 -7 -7 -9
-15 -15 -15 -15 -16 -16 -16 -16 -16 -16 -16 -16 -16 -16 -16 -16 -16 -16 -15 -15 -15 -15 -15 -16 -15 -14 -14 -14 -13 -13 -13 -12 -12 -12 -11 -10 -9 -8 -8 -9 -9 -9 -8 -7 -7
-15 -15 -15 -15 -16 -16 -16 -16 -16 -16 -16 -16 -16 -16 -16 -16 -16 -16 -15 -15 -15 -15 -15 -15 -15 -15 -14 -14 -13 -13 -13 -13 -13 -13 -13 -12 -11 -10 -9 -9 -9 -9 -9 -8 -8
-15 -15 -15 -16 -15 -16 -16 -16 -16 -16 -17 -17 -16 -16 -16 -16 -16 -15 -15 -15 -15 -15 -15 -15 -15 -14 -14 -14 -14 -14 -14 -13 -13 -13 -13 -13 -12 -11 -10 -9 -10 -9 -10 -10 -9
-15 -15 -15 -16 -16 -16 -16 -16 -16 -16 -17 -17 -17 -17 -17 -17 -17 -16 -16 -16 -15 -15 -15 -15 -15 -15 -14 -14 -14 -14 -14 -14 -13 -13 -13 -13 -13 -12 -12 -11 -10 -11 -10 -10 -10

GFSSW_500_temp_093.txt.gz
Temp
-5 -5 -6 -6 -6 -6 -6 -6 -5 -6 -6 -6 -6 -6 -6 -6 -6 -6 -6 -6 -6 -6 -6 -6 -6 -5 -6 -6 -5 -5 -4 -4 -4 -4 -5 -5 -5 -5 -5 -6 -6 -5 -6 -5 -5
-5 -6 -6 -7 -7 -7 -7 -6 -6 -6 -6 -6 -6 -6 -6 -6 -6 -6 -6 -6 -6 -6 -6 -6 -6 -5 -6 -6 -5 -5 -5 -5 -4 -4 -4 -4 -4 -5 -6 -6 -6 -6 -6 -5 -5
-6 -6 -6 -7 -8 -8 -8 -7 -7 -7 -6 -6 -6 -6 -6 -6 -6 -6 -6 -6 -6 -6 -5 -5 -6 -6 -6 -6 -5 -5 -5 -4 -4 -4 -4 -4 -4 -5 -6 -6 -6 -5 -5 -5 -5
-6 -7 -7 -7 -8 -8 -8 -8 -8 -8 -7 -7 -6 -7 -7 -6 -6 -6 -6 -6 -6 -6 -6 -6 -6 -6 -7 -6 -5 -5 -5 -4 -5 -5 -4 -5 -5 -5 -6 -6 -6 -6 -5 -5 -5
-7 -7 -7 -8 -8 -8 -8 -8 -8 -8 -8 -8 -7 -7 -7 -7 -7 -7 -6 -6 -6 -6 -6 -6 -6 -6 -6 -5 -5 -4 -5 -5 -5 -4 -4 -5 -5 -5 -6 -5 -6 -5 -6 -6 -5
-7 -7 -8 -8 -8 -8 -9 -9 -9 -8 -8 -8 -8 -8 -7 -7 -7 -7 -7 -7 -6 -6 -6 -6 -6 -6 -6 -5 -4 -4 -5 -5 -5 -5 -5 -5 -4 -4 -6 -6 -6 -5 -6 -6 -5
-8 -8 -8 -8 -8 -8 -9 -9 -9 -9 -9 -9 -9 -9 -8 -8 -8 -8 -7 -7 -7 -7 -6 -6 -6 -6 -6 -5 -5 -5 -6 -6 -5 -5 -5 -5 -5 -6 -6 -6 -6 -6 -6 -6 -5
-8 -8 -8 -8 -9 -9 -9 -9 -9 -9 -9 -9 -9 -9 -9 -9 -8 -8 -8 -7 -7 -7 -7 -6 -6 -6 -6 -6 -5 -5 -6 -6 -5 -5 -6 -6 -5 -5 -6 -6 -6 -6 -6 -6 -6
-9 -8 -8 -8 -8 -9 -9 -9 -9 -10 -10 -9 -9 -9 -9 -9 -9 -8 -8 -8 -8 -7 -7 -7 -7 -6 -6 -6 -5 -6 -6 -6 -6 -6 -6 -6 -5 -5 -6 -7 -6 -6 -6 -6 -6
-9 -9 -9 -8 -9 -9 -9 -10 -9 -10 -10 -10 -10 -9 -9 -9 -9 -9 -8 -8 -8 -8 -8 -7 -7 -7 -6 -6 -6 -6 -6 -6 -6 -7 -7 -6 -6 -5 -6 -6 -6 -6 -6 -6 -6
-9 -9 -9 -9 -9 -10 -10 -10 -10 -10 -11 -11 -10 -10 -9 -9 -9 -9 -9 -8 -8 -8 -8 -8 -7 -7 -7 -7 -7 -6 -6 -7 -7 -7 -7 -7 -6 -5 -5 -5 -6 -6 -6 -6 -6
-10 -10 -10 -10 -10 -10 -11 -11 -11 -11 -11 -11 -11 -10 -10 -9 -9 -9 -9 -9 -8 -8 -8 -8 -8 -8 -7 -7 -7 -7 -7 -6 -7 -7 -7 -7 -7 -6 -6 -5 -4 -5 -6 -6 -6
-11 -11 -11 -11 -11 -12 -12 -12 -12 -12 -12 -12 -12 -11 -11 -10 -10 -9 -9 -9 -9 -8 -8 -8 -8 -8 -8 -8 -8 -7 -7 -6 -6 -6 -7 -7 -7 -7 -6 -6 -6 -6 -7 -7 -6
-11 -12 -13 -13 -13 -13 -13 -13 -13 -13 -13 -13 -12 -12 -11 -11 -10 -10 -9 -9 -9 -9 -9 -9 -8 -8 -8 -8 -8 -8 -8 -7 -6 -6 -7 -8 -8 -7 -7 -7 -7 -7 -7 -8 -7
-12 -13 -13 -13 -13 -14 -13 -13 -14 -14 -13 -13 -13 -12 -12 -11 -11 -10 -10 -9 -9 -9 -9 -9 -9 -9 -8 -8 -8 -8 -8 -8 -7 -6 -7 -8 -9 -8 -7 -7 -7 -7 -7 -7 -8
-13 -13 -14 -14 -14 -14 -13 -14 -14 -15 -14 -14 -13 -13 -13 -12 -11 -11 -10 -10 -9 -9 -9 -9 -9 -9 -9 -9 -9 -8 -9 -8 -7 -7 -7 -8 -8 -8 -8 -8 -8 -7 -7 -7 -7
-14 -14 -14 -14 -14 -14 -14 -15 -15 -15 -15 -14 -14 -14 -13 -13 -12 -12 -11 -10 -10 -10 -9 -9 -9 -9 -9 -9 -9 -9 -9 -9 -8 -7 -7 -8 -8 -8 -8 -8 -8 -8 -7 -7 -7
-14 -15 -15 -14 -14 -15 -15 -16 -16 -16 -15 -15 -15 -14 -14 -13 -13 -13 -12 -11 -11 -10 -10 -10 -9 -9 -9 -9 -9 -9 -9 -9 -8 -7 -8 -8 -8 -8 -8 -8 -8 -8 -8 -7 -7
-15 -15 -15 -15 -15 -15 -16 -16 -16 -16 -16 -15 -16 -15 -15 -14 -14 -13 -13 -13 -12 -12 -11 -11 -10 -9 -10 -9 -10 -10 -9 -9 -9 -9 -9 -9 -8 -8 -8 -8 -8 -8 -8 -8 -8
-15 -15 -15 -15 -15 -15 -16 -16 -16 -17 -17 -16 -16 -16 -15 -15 -15 -15 -14 -14 -13 -13 -12 -12 -11 -11 -10 -10 -10 -10 -10 -10 -9 -9 -9 -9 -9 -8 -8 -8 -8 -8 -8 -8 -8
-15 -15 -15 -15 -15 -16 -16 -16 -16 -17 -17 -17 -17 -17 -16 -16 -16 -16 -15 -15 -15 -14 -14 -13 -13 -12 -12 -11 -11 -11 -10 -10 -10 -10 -10 -9 -8 -8 -8 -8 -9 -8 -8 -8 -8
-14 -14 -15 -15 -16 -16 -16 -16 -16 -16 -17 -17 -17 -17 -17 -17 -16 -16 -16 -16 -16 -16 -15 -15 -14 -14 -13 -12 -12 -11 -11 -11 -11 -10 -10 -9 -9 -9 -8 -8 -8 -9 -9 -8 -8
-14 -14 -15 -15 -15 -16 -16 -16 -16 -16 -16 -16 -16 -17 -16 -16 -16 -16 -16 -16 -16 -15 -15 -15 -15 -15 -14 -13 -13 -12 -11 -11 -11 -11 -11 -10 -9 -9 -8 -8 -8 -8 -9 -9 -9
-15 -15 -15 -15 -15 -16 -16 -16 -16 -16 -16 -16 -16 -16 -16 -16 -16 -16 -16 -16 -15 -15 -15 -15 -15 -14 -14 -14 -14 -13 -13 -12 -11 -11 -11 -11 -10 -9 -9 -9 -9 -9 -9 -8 -8
-15 -15 -15 -15 -15 -16 -16 -16 -16 -16 -16 -16 -16 -16 -16 -16 -16 -16 -16 -16 -16 -15 -15 -15 -15 -14 -14 -14 -14 -13 -13 -12 -12 -12 -12 -11 -11 -10 -9 -9 -9 -9 -8 -8 -8
-15 -15 -15 -16 -16 -15 -16 -16 -16 -16 -16 -16 -16 -16 -16 -16 -16 -16 -16 -16 -16 -15 -15 -15 -15 -15 -14 -14 -14 -14 -13 -13 -13 -12 -12 -12 -11 -10 -10 -10 -9 -9 -9 -8 -8
-15 -15 -15 -15 -16 -16 -16 -16 -16 -16 -16 -16 -16 -16 -16 -16 -16 -16 -16 -16 -16 -16 -16 -15 -15 -15 -15 -15 -15 -14 -14 -13 -13 -13 -13 -13 -12 -11 -11 -11 -10 -10 -10 -9 -9

GFSSW_500_temp_096.txt.gz
Temp
-5 -5 -5 -5 -5 -6 -6 -6 -6 -6 -6 -6 -6 -6 -6 -6 -6 -7 -7 -6 -6 -6 -6 -6 -6 -5 -5 -5 -4 -4 -4 -4 -4 -4 -4 -4 -5 -5 -5 -5 -5 -5 -5 -5 -5
-5 -5 -5 -5 -5 -6 -6 -7 -7 -6 -6 -6 -6 -6 -6 -6 -6 -6 -7 -6 -6 -6 -6 -6 -6 -6 -5 -5 -5 -5 -4 -4 -4 -4 -4 -4 -5 -5 -5 -6 -6 -5 -5 -5 -4
-5 -5 -6 -6 -6 -6 -7 -7 -7 -7 -7 -7 -6 -6 -7 -6 -6 -6 -6 -6 -6 -6 -6 -6 -6 -6 -6 -5 -5 -5 -5 -4 -5 -4 -4 -5 -5 -5 -5 -6 -5 -5 -5 -6 -5
-6 -6 -6 -6 -6 -7 -7 -7 -8 -8 -7 -7 -7 -7 -7 -7 -7 -6 -6 -6 -6 -6 -6 -6 -7 -7 -6 -6 -5 -5 -5 -4 -5 -4 -4 -4 -5 -5 -6 -6 -5 -5 -5 -5 -5
-7 -7 -7 -7 -7 -7 -7 -8 -8 -8 -8 -8 -8 -7 -7 -7 -7 -6 -7 -6 -6 -6 -6 -6 -6 -6 -6 -5 -5 -5 -5 -5 -4 -4 -5 -5 -5 -5 -6 -6 -6 -5 -5 -5 -5
-7 -7 -7 -8 -8 -8 -8 -8 -8 -8 -9 -8 -8 -8 -8 -7 -7 -7 -7 -7 -6 -6 -6 -6 -6 -6 -6 -5 -4 -5 -5 -5 -5 -4 -5 -5 -5 -5 -5 -6 -5 -5 -5 -6 -5
-8 -8 -8 -8 -8 -8 -8 -8 -8 -9 -9 -9 -8 -9 -9 -8 -8 -7 -7 -7 -7 -6 -6 -6 -6 -6 -6 -5 -5 -6 -5 -5 -5 -5 -5 -5 -5 -5 -6 -6 -6 -6 -5 -6 -6
-8 -8 -8 -8 -8 -8 -8 -9 -8 -9 -9 -9 -9 -9 -9 -9 -8 -8 -8 -7 -7 -7 -7 -6 -6 -6 -6 -5 -5 -6 -6 -6 -5 -5 -5 -5 -5 -6 -6 -6 -6 -6 -6 -6 -6
-8 -8 -8 -8 -8 -8 -8 -9 -9 -9 -9 -9 -9 -9 -9 -9 -9 -9 -8 -8 -7 -7 -7 -7 -7 -6 -6 -6 -6 -6 -6 -6 -6 -5 -5 -6 -5 -6 -6 -6 -6 -6 -6 -6 -6
-9 -9 -9 -9 -9 -9 -9 -9 -9 -9 -9 -9 -10 -10 -9 -9 -9 -9 -9 -9 -8 -8 -7 -7 -7 -7 -6 -6 -6 -6 -7 -6 -6 -6 -6 -5 -6 -5 -6 -6 -6 -6 -6 -6 -6
-9 -9 -9 -9 -9 -9 -9 -10 -10 -10 -10 -10 -10 -10 -10 -10 -10 -9 -9 -9 -9 -8 -8 -8 -8 -7 -7 -7 -7 -7 -7 -7 -6 -6 -6 -6 -6 -6 -6 -6 -6 -6 -6 -6 -6
-10 -10 -10 -10 -10 -10 -10 -11 -11 -11 -11 -11 -11 -10 -10 -10 -10 -10 -9 -9 -9 -9 -8 -8 -8 -8 -7 -7 -7 -7 -7 -7 -6 -6 -7 -6 -6 -7 -6 -6 -5 -5 -6 -6 -6
-10 -11 -11 -11 -11 -11 -11 -12 -12 -12 -12 -12 -12 -11 -11 -10 -10 -10 -10 -9 -9 -9 -9 -9 -8 -8 -8 -8 -8 -7 -7 -7 -7 -7 -7 -6 -7 -7 -7 -7 -6 -6 -6 -6 -6
-11 -11 -12 -12 -12 -13 -13 -13 -13 -13 -13 -13 -13 -12 -12 -11 -10 -10 -10 -10 -9 -9 -9 -9 -9 -8 -8 -8 -8 -8 -7 -7 -7 -7 -8 -7 -7 -7 -7 -7 -7 -7 -6 -6 -6
-12 -12 -12 -13 -13 -13 -13 -13 -13 -14 -16 -14 -13 -13 -12 -12 -11 -10 -10 -10 -9 -9 -9 -9 -9 -9 -8 -9 -8 -8 -7 -7 -7 -7 -6 -7 -9 -7 -7 -7 -8 -7 -6 -6 -6
-12 -13 -13 -14 -14 -14 -13 -13 -14 -15 -15 -14 -14 -13 -13 -12 -12 -11 -11 -10 -10 -9 -10 -9 -9 -9 -9 -9 -8 -8 -8 -7 -7 -8 -7 -9 -9 -7 -7 -8 -8 -7 -7 -7 -6
-12 -13 -14 -14 -14 -14 -14 -14 -16 -16 -15 -15 -14 -14 -14 -13 -12 -12 -11 -11 -11 -10 -10 -9 -9 -9 -9 -9 -8 -8 -8 -8 -8 -8 -9 -8 -9 -7 -8 -8 -8 -8 -8 -7 -7
-13 -13 -15 -15 -15 -14 -15 -16 -17 -16 -16 -15 -15 -15 -14 -14 -13 -13 -12 -11 -11 -11 -12 -10 -10 -9 -9 -9 -9 -9 -9 -11 -10 -9 -10 -8 -9 -7 -8 -8 -8 -8 -8 -8 -8
-13 -14 -15 -15 -15 -15 -15 -16 -17 -16 -16 -16 -16 -16 -15 -14 -14 -13 -13 -12 -12 -12 -12 -12 -10 -10 -10 -9 -9 -9 -9 -11 -11 -11 -10 -9 -7 -8 -8 -8 -8 -9 -8 -8 -8
-14 -14 -14 -15 -15 -15 -16 -16 -17 -17 -16 -16 -17 -16 -16 -15 -15 -15 -14 -13 -13 -13 -12 -11 -10 -10 -10 -10 -10 -10 -10 -10 -9 -11 -10 -10 -8 -8 -8 -8 -8 -9 -8 -8 -8
-14 -14 -14 -15 -15 -16 -16 -16 -16 -17 -17 -17 -17 -17 -17 -16 -16 -16 -16 -15 -14 -13 -13 -12 -12 -12 -12 -11 -10 -10 -10 -10 -11 -11 -10 -11 -8 -7 -8 -8 -8 -8 -8 -8 -9
-14 -14 -14 -15 -15 -16 -16 -16 -16 -16 -17 -17 -17 -17 -17 -17 -17 -16 -16 -17 -15 -15 -14 -14 -14 -13 -12 -12 -11 -11 -10 -10 -10 -10 -10 -10 -9 -8 -8 -8 -9 -9 -9 -8 -8
-14 -14 -15 -15 -15 -15 -16 -16 -16 -16 -16 -17 -17 -17 -17 -17 -17 -17 -17 -16 -16 -16 -15 -15 -14 -14 -13 -13 -12 -12 -11 -11 -10 -11 -12 -12 -10 -8 -8 -8 -9 -9 -9 -9 -9
-15 -15 -14 -15 -15 -15 -15 -16 -16 -16 -16 -16 -16 -17 -17 -17 -17 -17 -17 -16 -16 -16 -16 -15 -15 -15 -15 -15 -13 -12 -12 -12 -11 -12 -13 -11 -11 -9 -9 -9 -9 -9 -9 -9 -9
-15 -15 -15 -15 -15 -15 -15 -16 -16 -16 -16 -16 -16 -16 -16 -16 -16 -16 -16 -16 -16 -16 -16 -15 -15 -15 -14 -14 -13 -12 -12 -12 -12 -12 -12 -13 -10 -9 -9 -9 -9 -9 -9 -9 -9
-15 -15 -15 -15 -15 -15 -15 -15 -16 -16 -16 -16 -16 -16 -16 -16 -16 -16 -16 -16 -15 -15 -15 -15 -15 -15 -14 -14 -14 -13 -13 -13 -12 -12 -13 -11 -10 -10 -10 -10 -10 -9 -9 -9 -9
-15 -15 -15 -15 -15 -16 -16 -15 -16 -16 -16 -16 -16 -16 -16 -16 -16 -16 -16 -16 -16 -15 -15 -15 -15 -15 -15 -14 -14 -14 -13 -13 -13 -13 -13 -12 -11 -11 -11 -10 -10 -10 -10 -9 -9

GFSSW_500_temp_099.txt.gz
Temp
-4 -4 -4 -4 -4 -4 -5 -5 -5 -5 -6 -6 -6 -6 -6 -6 -6 -7 -7 -6 -6 -6 -5 -5 -4 -4 -4 -4 -4 -4 -4 -4 -4 -4 -5 -5 -5 -6 -5 -5 -5 -5 -5 -4 -5
-5 -5 -5 -5 -5 -5 -5 -5 -5 -6 -6 -6 -6 -6 -6 -6 -6 -6 -7 -6 -6 -6 -6 -5 -5 -4 -4 -5 -4 -5 -4 -4 -4 -4 -4 -4 -5 -6 -5 -5 -5 -5 -5 -5 -5
-6 -5 -5 -5 -5 -5 -5 -5 -5 -6 -7 -6 -6 -7 -7 -6 -6 -6 -7 -7 -6 -6 -6 -6 -5 -5 -4 -5 -5 -5 -5 -4 -4 -4 -4 -4 -5 -5 -5 -5 -5 -5 -5 -5 -5
-6 -6 -6 -6 -6 -6 -6 -6 -6 -6 -7 -7 -7 -7 -7 -7 -6 -6 -6 -7 -7 -6 -6 -6 -6 -6 -5 -5 -5 -5 -5 -4 -4 -4 -4 -5 -5 -5 -5 -5 -4 -5 -5 -5 -5
-7 -6 -6 -6 -7 -6 -7 -7 -7 -7 -7 -8 -8 -7 -7 -7 -7 -6 -6 -6 -6 -6 -6 -6 -6 -6 -6 -5 -6 -5 -5 -5 -4 -4 -4 -5 -5 -5 -5 -5 -5 -5 -5 -5 -5
-8 -7 -7 -7 -7 -7 -7 -7 -7 -7 -8 -8 -8 -8 -7 -7 -7 -7 -7 -7 -6 -6 -6 -6 -6 -6 -5 -5 -6 -6 -5 -5 -4 -5 -5 -4 -4 -5 -5 -5 -5 -5 -5 -5 -5
-8 -8 -8 -8 -8 -8 -8 -8 -8 -8 -8 -8 -8 -8 -8 -7 -8 -7 -7 -7 -7 -6 -6 -6 -6 -6 -6 -5 -5 -6 -6 -5 -5 -5 -4 -5 -5 -5 -5 -6 -6 -5 -5 -6 -6
-8 -8 -8 -9 -8 -8 -8 -8 -8 -8 -8 -9 -9 -9 -8 -8 -8 -8 -7 -7 -7 -7 -6 -6 -6 -6 -6 -5 -6 -6 -6 -7 -5 -6 -5 -5 -5 -5 -5 -6 -6 -6 -5 -5 -5
-9 -9 -9 -8 -8 -8 -8 -8 -9 -9 -9 -9 -9 -9 -8 -9 -8 -8 -8 -7 -7 -7 -6 -6 -6 -6 -6 -5 -6 -6 -8 -8 -7 -5 -5 -5 -5 -5 -5 -6 -6 -5 -5 -5 -5
-9 -9 -9 -9 -8 -9 -9 -9 -9 -9 -9 -9 -9 -10 -9 -9 -9 -9 -9 -8 -8 -7 -7 -7 -7 -6 -6 -6 -6 -6 -8 -8 -8 -6 -5 -5 -5 -5 -5 -6 -6 -5 -5 -5 -5
-9 -9 -9 -9 -9 -9 -9 -9 -9 -9 -10 -10 -9 -10 -9 -9 -9 -9 -9 -9 -8 -8 -8 -7 -7 -7 -7 -6 -9 -9 -7 -8 -9 -6 -6 -5 -6 -5 -5 -6 -6 -6 -6 -6 -6
-10 -10 -10 -10 -9 -9 -9 -10 -10 -10 -10 -10 -10 -10 -10 -10 -10 -10 -10 -9 -9 -9 -8 -8 -7 -7 -7 -7 -9 -9 -8 -8 -9 -6 -6 -5 -5 -5 -5 -6 -6 -6 -6 -6 -6
-10 -10 -10 -10 -11 -11 -10 -11 -11 -11 -11 -11 -11 -11 -11 -11 -10 -10 -10 -10 -9 -9 -9 -9 -8 -8 -8 -8 -7 -9 -9 -9 -8 -7 -6 -6 -6 -6 -6 -6 -7 -6 -6 -6 -6
-11 -11 -11 -11 -12 -12 -12 -12 -13 -13 -13 -13 -12 -12 -12 -12 -11 -10 -10 -10 -10 -9 -9 -9 -9 -9 -8 -8 -8 -9 -9 -9 -10 -7 -7 -7 -6 -4 -6 -5 -6 -6 -7 -6 -6
-12 -12 -12 -12 -13 -13 -13 -13 -13 -13 -14 -15 -14 -13 -12 -12 -12 -11 -11 -10 -10 -10 -9 -9 -9 -8 -8 -8 -8 -10 -10 -10 -8 -7 -8 -7 -6 -5 -6 -6 -6 -7 -6 -6 -7
-12 -12 -12 -13 -13 -13 -13 -13 -13 -14 -15 -15 -15 -14 -13 -13 -12 -11 -11 -10 -10 -10 -10 -12 -9 -9 -9 -9 -9 -11 -11 -9 -7 -9 -9 -9 -7 -6 -6 -6 -6 -7 -7 -7 -6
-12 -13 -13 -13 -14 -14 -14 -14 -15 -15 -15 -16 -15 -15 -14 -15 -13 -12 -12 -11 -11 -10 -10 -11 -10 -10 -9 -12 -9 -10 -9 -10 -9 -9 -8 -9 -8 -8 -7 -7 -6 -6 -6 -6 -6
-13 -13 -13 -14 -15 -15 -14 -15 -16 -15 -16 -16 -16 -16 -15 -15 -15 -13 -12 -13 -12 -13 -13 -12 -11 -9 -10 -10 -11 -9 -10 -10 -10 -9 -8 -8 -8 -8 -7 -7 -7 -7 -7 -7 -7
-13 -13 -14 -14 -15 -15 -15 -15 -15 -17 -16 -16 -16 -16 -15 -16 -16 -14 -14 -14 -14 -13 -12 -13 -13 -10 -9 -10 -9 -10 -10 -10 -9 -8 -8 -9 -9 -9 -9 -8 -8 -8 -8 -8 -7
-13 -14 -14 -14 -15 -15 -16 -16 -16 -16 -16 -16 -16 -16 -16 -16 -16 -16 -15 -14 -12 -12 -12 -12 -13 -11 -10 -10 -10 -9 -11 -11 -10 -9 -8 -8 -9 -9 -7 -7 -8 -8 -8 -8 -8
-14 -14 -14 -14 -15 -16 -15 -16 -16 -16 -16 -16 -16 -16 -16 -16 -16 -16 -16 -14 -14 -14 -13 -13 -14 -11 -10 -10 -11 -11 -10 -11 -10 -9 -8 -9 -9 -8 -8 -8 -8 -8 -8 -8 -8
-14 -14 -14 -14 -15 -16 -17 -16 -16 -16 -17 -17 -17 -17 -16 -16 -16 -16 -16 -15 -14 -14 -14 -13 -14 -13 -13 -11 -10 -10 -13 -12 -11 -10 -10 -8 -9 -9 -9 -9 -8 -8 -8 -9 -8
-14 -14 -14 -14 -17 -15 -15 -16 -16 -16 -16 -17 -17 -16 -17 -17 -17 -17 -16 -17 -16 -15 -14 -14 -14 -14 -12 -11 -11 -11 -10 -10 -12 -11 -10 -10 -9 -10 -10 -9 -9 -9 -9 -8 -8
-15 -15 -15 -15 -15 -15 -15 -15 -16 -16 -16 -16 -17 -17 -17 -17 -17 -17 -17 -17 -17 -16 -15 -14 -15 -14 -14 -14 -13 -12 -11 -10 -11 -12 -11 -11 -10 -10 -10 -9 -9 -9 -9 -9 -9
-15 -15 -15 -15 -15 -15 -15 -15 -15 -16 -16 -16 -16 -16 -17 -17 -17 -17 -17 -17 -17 -17 -17 -16 -15 -15 -14 -13 -13 -12 -11 -11 -11 -11 -12 -12 -11 -11 -11 -10 -9 -9 -9 -9 -9
-15 -15 -15 -15 -15 -15 -15 -15 -15 -15 -16 -16 -16 -16 -16 -17 -17 -17 -16 -16 -16 -16 -16 -16 -16 -15 -14 -14 -14 -12 -12 -11 -11 -12 -13 -11 -11 -11 -11 -11 -10 -10 -9 -9 -9
-15 -15 -15 -15 -15 -15 -15 -16 -16 -15 -15 -15 -16 -16 -16 -16 -16 -16 -16 -16 -15 -16 -16 -15 -16 -15 -15 -15 -15 -14 -13 -13 -13 -13 -13 -11 -11 -11 -11 -11 -11 -10 -10 -9 -9

GFSSW_500_temp_102.txt.gz
Temp
-4 -4 -4 -4 -4 -4 -4 -4 -4 -5 -5 -5 -5 -5 -5 -5 -5 -5 -6 -6 -6 -5 -5 -5 -4 -4 -4 -4 -4 -3 -4 -4 -4 -4 -5 -5 -5 -6 -6 -5 -6 -5 -5 -4 -4
-5 -5 -5 -5 -4 -4 -4 -4 -5 -5 -5 -6 -5 -5 -6 -6 -5 -6 -6 -6 -6 -6 -5 -5 -4 -4 -5 -4 -4 -4 -4 -4 -4 -4 -4 -4 -5 -5 -6 -6 -5 -5 -5 -5 -4
-6 -6 -5 -5 -5 -5 -5 -5 -5 -5 -5 -6 -6 -6 -6 -6 -6 -5 -6 -7 -6 -6 -5 -5 -4 -4 -5 -5 -5 -5 -4 -6 -5 -4 -4 -4 -4 -5 -6 -6 -5 -5 -5 -5 -5
-6 -6 -6 -6 -6 -6 -6 -6 -5 -6 -6 -6 -7 -7 -6 -6 -5 -6 -6 -6 -7 -6 -6 -5 -5 -5 -5 -5 -5 -5 -5 -5 -4 -4 -4 -4 -5 -5 -5 -5 -6 -5 -5 -5 -5
-7 -7 -7 -7 -7 -7 -6 -6 -6 -6 -7 -7 -7 -7 -7 -6 -6 -7 -6 -6 -7 -7 -6 -6 -6 -6 -6 -6 -6 -5 -5 -4 -4 -4 -4 -5 -5 -5 -5 -5 -5 -5 -5 -5 -5
-8 -8 -7 -7 -7 -7 -7 -7 -7 -7 -7 -7 -8 -8 -7 -7 -6 -7 -7 -6 -7 -7 -7 -6 -6 -6 -6 -6 -6 -6 -6 -5 -4 -4 -5 -5 -5 -5 -5 -5 -5 -5 -5 -5 -5
-8 -8 -8 -8 -8 -8 -7 -7 -7 -7 -8 -8 -8 -8 -8 -7 -8 -7 -7 -7 -7 -7 -7 -6 -6 -6 -5 -5 -6 -7 -5 -6 -4 -4 -4 -4 -5 -5 -5 -5 -5 -5 -5 -5 -5
-8 -8 -8 -8 -8 -8 -8 -8 -8 -8 -8 -8 -8 -8 -8 -8 -8 -8 -7 -7 -7 -7 -6 -6 -6 -6 -6 -6 -6 -6 -7 -7 -5 -5 -5 -4 -5 -5 -5 -5 -5 -5 -5 -5 -5
-9 -9 -9 -8 -8 -8 -8 -8 -8 -8 -8 -8 -8 -8 -9 -9 -8 -8 -8 -7 -7 -7 -7 -6 -6 -6 -7 -6 -6 -6 -6 -6 -6 -6 -5 -4 -5 -5 -5 -5 -5 -6 -5 -5 -5
-9 -9 -9 -9 -9 -8 -8 -9 -9 -9 -9 -8 -9 -9 -9 -10 -9 -9 -8 -8 -8 -7 -7 -7 -7 -6 -6 -6 -6 -6 -6 -7 -7 -5 -5 -5 -5 -5 -5 -5 -5 -5 -5 -5 -5
-9 -9 -9 -9 -9 -9 -9 -9 -9 -9 -9 -9 -9 -9 -9 -9 -9 -9 -9 -9 -8 -8 -8 -7 -7 -6 -6 -6 -6 -8 -8 -6 -6 -6 -5 -6 -5 -5 -5 -5 -7 -5 -5 -5 -5
-9 -10 -10 -10 -9 -9 -9 -9 -9 -9 -9 -9 -9 -9 -9 -10 -10 -10 -9 -9 -8 -8 -8 -8 -7 -7 -6 -7 -7 -7 -7 -7 -6 -5 -5 -5 -5 -6 -5 -5 -6 -6 -5 -5 -5
-10 -10 -10 -10 -10 -10 -9 -9 -10 -10 -10 -10 -10 -10 -10 -10 -10 -10 -10 -10 -9 -9 -9 -8 -8 -8 -7 -7 -7 -7 -8 -7 -6 -6 -5 -5 -6 -5 -5 -5 -5 -7 -6 -5 -5
-10 -10 -10 -11 -11 -10 -10 -10 -11 -12 -12 -11 -11 -11 -11 -11 -11 -10 -10 -10 -10 -9 -9 -9 -9 -9 -8 -7 -7 -7 -7 -7 -7 -6 -6 -5 -6 -6 -6 -5 -4 -7 -7 -6 -6
-11 -11 -11 -11 -11 -11 -12 -12 -13 -13 -13 -14 -13 -13 -12 -12 -12 -11 -11 -10 -10 -10 -10 -9 -9 -9 -9 -8 -8 -7 -8 -8 -8 -8 -7 -5 -6 -6 -5 -5 -5 -6 -6 -6 -6
-11 -12 -12 -12 -12 -13 -13 -13 -13 -14 -14 -15 -13 -13 -13 -13 -15 -12 -11 -11 -10 -10 -10 -10 -10 -12 -9 -8 -9 -8 -9 -9 -8 -8 -9 -7 -7 -6 -6 -5 -6 -6 -6 -5 -6
-12 -12 -12 -13 -13 -13 -14 -14 -14 -15 -15 -15 -15 -14 -14 -13 -15 -13 -12 -11 -11 -10 -10 -10 -12 -11 -9 -9 -9 -10 -9 -9 -9 -9 -9 -8 -7 -7 -6 -5 -5 -6 -6 -5 -5
-12 -12 -13 -13 -14 -14 -14 -14 -15 -15 -15 -15 -15 -15 -15 -15 -14 -13 -12 -11 -11 -11 -12 -11 -12 -12 -10 -10 -11 -11 -10 -9 -9 -9 -8 -8 -8 -6 -6 -7 -6 -7 -6 -6 -6
-13 -13 -13 -13 -14 -15 -14 -14 -15 -15 -15 -16 -15 -15 -15 -15 -14 -14 -13 -14 -13 -13 -12 -12 -12 -12 -11 -11 -10 -11 -10 -9 -9 -8 -8 -8 -7 -7 -7 -7 -8 -7 -7 -6 -6
-13 -13 -13 -14 -14 -15 -15 -15 -15 -15 -15 -16 -15 -15 -15 -14 -14 -15 -14 -14 -13 -13 -12 -12 -12 -12 -11 -11 -10 -10 -11 -9 -10 -9 -7 -7 -7 -7 -7 -8 -8 -9 -7 -6 -6
-13 -13 -14 -14 -14 -15 -14 -15 -16 -15 -16 -16 -15 -16 -15 -15 -15 -15 -14 -14 -14 -13 -12 -12 -12 -13 -11 -11 -10 -10 -9 -9 -10 -9 -9 -9 -8 -8 -7 -8 -7 -8 -8 -7 -7
-14 -13 -14 -14 -15 -16 -14 -16 -16 -15 -16 -16 -15 -15 -15 -15 -15 -15 -15 -15 -14 -13 -13 -13 -12 -12 -12 -11 -11 -11 -11 -10 -10 -8 -10 -9 -8 -8 -8 -8 -8 -7 -7 -8 -7
-14 -14 -14 -14 -15 -16 -15 -15 -15 -15 -15 -16 -16 -16 -15 -15 -16 -15 -15 -15 -15 -15 -13 -12 -13 -13 -13 -11 -10 -10 -10 -11 -11 -10 -10 -10 -8 -9 -9 -9 -9 -9 -8 -8 -8
-15 -15 -15 -15 -15 -15 -15 -15 -15 -15 -15 -15 -16 -16 -16 -15 -16 -16 -16 -16 -16 -15 -14 -13 -13 -14 -12 -13 -13 -12 -11 -10 -11 -11 -11 -11 -10 -10 -10 -10 -10 -9 -8 -8 -8
-15 -15 -15 -16 -15 -15 -15 -15 -15 -15 -15 -15 -15 -16 -17 -16 -15 -16 -16 -16 -16 -15 -15 -14 -14 -14 -14 -13 -12 -12 -11 -11 -10 -9 -12 -11 -11 -11 -11 -11 -10 -10 -9 -9 -8
-15 -15 -15 -15 -15 -15 -15 -15 -15 -15 -15 -15 -16 -15 -16 -16 -15 -16 -16 -16 -17 -16 -16 -15 -14 -14 -15 -14 -14 -12 -13 -14 -11 -11 -13 -10 -9 -10 -10 -11 -11 -10 -10 -10 -9
-15 -15 -15 -15 -16 -16 -16 -15 -15 -15 -15 -15 -15 -16 -16 -15 -15 -15 -16 -16 -17 -16 -16 -16 -16 -15 -14 -14 -15 -14 -13 -12 -12 -11 -14 -11 -10 -10 -10 -11 -11 -10 -10 -10 -10

GFSSW_500_temp_105.txt.gz
Temp
-5 -5 -5 -5 -4 -4 -4 -4 -4 -4 -4 -4 -5 -5 -5 -5 -5 -4 -6 -6 -6 -5 -5 -5 -4 -4 -4 -4 -4 -4 -4 -6 -6 -5 -4 -5 -5 -5 -5 -5 -4 -4 -4 -4 -4
-6 -6 -6 -5 -5 -5 -5 -4 -4 -4 -4 -5 -5 -5 -5 -5 -5 -5 -5 -6 -6 -6 -5 -5 -5 -5 -5 -4 -4 -4 -5 -4 -5 -5 -5 -6 -5 -5 -5 -4 -5 -4 -4 -4 -4
-7 -6 -6 -6 -6 -6 -5 -5 -5 -5 -5 -5 -5 -5 -5 -6 -6 -5 -6 -6 -7 -6 -5 -5 -5 -5 -5 -5 -5 -5 -5 -5 -5 -4 -5 -4 -4 -6 -5 -4 -5 -5 -4 -4 -5
-7 -7 -7 -7 -7 -6 -6 -6 -5 -5 -5 -5 -6 -6 -6 -6 -6 -6 -6 -6 -7 -6 -6 -5 -5 -5 -5 -5 -5 -5 -5 -4 -4 -5 -4 -4 -5 -5 -5 -4 -4 -4 -4 -4 -4
-7 -7 -8 -7 -7 -7 -7 -6 -6 -6 -6 -6 -6 -6 -6 -6 -6 -6 -6 -7 -7 -7 -6 -6 -6 -6 -6 -6 -6 -5 -5 -5 -5 -5 -4 -5 -5 -5 -5 -5 -4 -4 -4 -4 -4
-8 -8 -8 -7 -7 -7 -7 -7 -7 -7 -6 -6 -6 -6 -7 -6 -7 -7 -6 -7 -7 -7 -7 -6 -6 -6 -6 -6 -6 -7 -5 -5 -5 -5 -5 -5 -5 -6 -5 -5 -3 -4 -4 -4 -4
-8 -8 -8 -8 -8 -7 -7 -7 -7 -7 -7 -7 -7 -7 -7 -7 -8 -7 -7 -7 -7 -7 -7 -7 -7 -6 -6 -6 -6 -5 -5 -5 -5 -5 -5 -4 -5 -5 -5 -5 -5 -5 -4 -3 -4
-8 -8 -8 -8 -8 -8 -8 -8 -8 -8 -8 -8 -7 -7 -7 -8 -8 -8 -7 -7 -7 -7 -7 -7 -7 -6 -6 -6 -6 -5 -5 -5 -5 -5 -5 -4 -5 -5 -4 -5 -5 -5 -5 -3 -4
-8 -8 -8 -9 -8 -9 -8 -8 -8 -8 -8 -8 -8 -8 -8 -8 -8 -8 -8 -8 -7 -7 -7 -7 -7 -6 -6 -6 -6 -5 -4 -5 -5 -5 -5 -4 -5 -5 -5 -5 -5 -4 -5 -4 -3
-8 -8 -9 -9 -9 -9 -9 -9 -8 -8 -8 -8 -8 -8 -8 -8 -9 -9 -8 -8 -8 -7 -7 -7 -7 -7 -6 -6 -6 -6 -6 -6 -6 -5 -5 -4 -5 -5 -5 -5 -4 -5 -5 -4 -3
-8 -9 -9 -9 -9 -9 -9 -9 -9 -8 -8 -8 -9 -9 -8 -9 -9 -9 -9 -9 -8 -8 -7 -7 -7 -7 -7 -6 -6 -7 -7 -7 -7 -5 -5 -5 -5 -4 -4 -5 -5 -5 -5 -5 -4
-9 -9 -9 -9 -9 -9 -10 -9 -9 -9 -8 -8 -9 -9 -9 -9 -9 -10 -9 -9 -9 -8 -8 -7 -7 -7 -7 -7 -7 -7 -7 -7 -6 -6 -5 -6 -5 -5 -5 -5 -5 -4 -4 -5 -4
-9 -9 -10 -10 -10 -10 -10 -10 -10 -9 -9 -9 -9 -9 -9 -9 -9 -10 -10 -10 -9 -9 -8 -7 -8 -7 -7 -7 -7 -7 -6 -6 -6 -7 -6 -6 -6 -5 -5 -5 -5 -5 -4 -5 -5
-10 -10 -10 -10 -10 -10 -10 -11 -11 -10 -10 -10 -10 -10 -10 -10 -10 -10 -10 -10 -10 -10 -9 -8 -9 -8 -8 -7 -7 -7 -9 -7 -9 -8 -7 -7 -7 -5 -5 -5 -5 -5 -4 -5 -5
-10 -11 -11 -11 -10 -11 -11 -11 -11 -11 -11 -11 -12 -11 -12 -11 -10 -10 -11 -10 -10 -10 -10 -9 -9 -8 -8 -8 -7 -7 -9 -9 -8 -7 -6 -7 -7 -6 -5 -6 -5 -5 -5 -5 -5
-11 -11 -12 -11 -11 -11 -11 -12 -13 -13 -14 -15 -13 -13 -12 -12 -12 -11 -11 -11 -11 -10 -10 -10 -10 -9 -8 -8 -8 -9 -10 -8 -8 -7 -7 -8 -8 -7 -6 -6 -6 -6 -6 -5 -5
-12 -12 -12 -12 -12 -12 -13 -13 -13 -13 -14 -15 -14 -13 -14 -14 -13 -14 -11 -11 -11 -10 -10 -10 -10 -10 -9 -9 -8 -8 -9 -9 -9 -6 -8 -8 -8 -6 -5 -6 -6 -6 -6 -6 -5
-12 -12 -13 -13 -13 -13 -13 -14 -13 -13 -14 -14 -15 -15 -14 -14 -14 -15 -12 -12 -11 -11 -11 -11 -10 -10 -11 -9 -8 -9 -9 -9 -8 -8 -9 -9 -7 -7 -6 -6 -7 -8 -5 -6 -6
-13 -13 -13 -13 -14 -14 -14 -14 -15 -14 -15 -15 -15 -15 -15 -15 -15 -15 -14 -13 -12 -13 -12 -12 -11 -11 -11 -10 -9 -10 -9 -9 -9 -9 -9 -8 -8 -8 -7 -7 -7 -7 -6 -6 -6
-13 -13 -13 -14 -14 -14 -14 -15 -15 -15 -14 -16 -15 -15 -15 -15 -15 -14 -15 -14 -14 -13 -13 -12 -11 -11 -12 -11 -9 -10 -9 -10 -9 -8 -9 -8 -9 -8 -8 -8 -8 -7 -8 -6 -6
-13 -13 -14 -13 -13 -15 -15 -14 -15 -15 -16 -15 -15 -15 -15 -15 -15 -14 -14 -14 -14 -13 -12 -12 -12 -11 -11 -11 -11 -10 -9 -9 -9 -9 -9 -10 -9 -8 -8 -8 -8 -8 -7 -8 -7
-14 -14 -14 -14 -15 -14 -14 -16 -16 -16 -16 -16 -15 -15 -15 -15 -15 -15 -13 -14 -14 -14 -13 -11 -12 -11 -10 -12 -11 -11 -10 -10 -9 -9 -10 -10 -10 -9 -8 -8 -8 -8 -8 -7 -7
-14 -14 -14 -14 -15 -15 -15 -15 -15 -15 -15 -16 -16 -16 -15 -16 -15 -15 -15 -15 -14 -13 -12 -13 -13 -12 -13 -12 -11 -11 -11 -10 -9 -9 -10 -11 -10 -10 -8 -9 -9 -9 -8 -7 -7
-15 -15 -15 -15 -15 -15 -15 -15 -15 -15 -15 -16 -16 -16 -16 -16 -16 -15 -15 -14 -14 -14 -14 -14 -13 -12 -12 -13 -12 -11 -11 -11 -10 -10 -11 -10 -9 -10 -10 -9 -9 -10 -9 -7 -8
-15 -14 -15 -15 -15 -15 -15 -15 -15 -15 -15 -15 -16 -16 -16 -16 -15 -16 -15 -15 -15 -14 -14 -14 -13 -13 -14 -13 -12 -11 -11 -11 -11 -10 -11 -10 -10 -11 -10 -10 -9 -9 -10 -9 -8
-15 -15 -15 -15 -15 -15 -15 -15 -15 -15 -15 -15 -15 -15 -16 -15 -15 -16 -14 -16 -16 -15 -15 -15 -14 -14 -15 -12 -12 -12 -11 -11 -12 -11 -11 -9 -10 -11 -10 -10 -10 -10 -10 -10 -9
-16 -15 -15 -15 -16 -16 -15 -14 -15 -15 -15 -15 -15 -15 -15 -15 -14 -15 -15 -15 -15 -15 -16 -15 -15 -14 -14 -13 -13 -13 -12 -12 -12 -14 -11 -9 -10 -10 -11 -11 -10 -10 -10 -10 -10

GFSSW_500_temp_108.txt.gz
Temp
-6 -6 -6 -6 -5 -5 -5 -4 -4 -4 -4 -4 -4 -5 -4 -4 -5 -4 -4 -6 -7 -6 -6 -5 -5 -5 -5 -4 -5 -5 -5 -5 -5 -5 -4 -4 -5 -6 -6 -5 -5 -4 -5 -5 -6
-6 -6 -7 -6 -6 -6 -5 -5 -4 -4 -4 -4 -4 -5 -5 -5 -5 -5 -5 -6 -7 -6 -6 -6 -5 -5 -5 -4 -5 -5 -5 -5 -5 -5 -4 -5 -4 -4 -5 -5 -5 -5 -5 -5 -5
-6 -7 -7 -7 -7 -6 -6 -6 -5 -5 -4 -4 -4 -5 -6 -6 -6 -5 -5 -6 -7 -7 -6 -6 -5 -5 -4 -5 -5 -5 -5 -5 -5 -6 -5 -5 -5 -5 -5 -4 -4 -4 -4 -5 -5
-7 -7 -7 -7 -7 -7 -7 -6 -6 -6 -5 -5 -4 -5 -5 -6 -6 -6 -6 -6 -7 -7 -7 -6 -6 -6 -5 -5 -5 -6 -5 -5 -5 -6 -5 -4 -4 -5 -5 -5 -4 -4 -5 -5 -5
-7 -7 -7 -7 -8 -7 -7 -6 -6 -6 -6 -5 -5 -5 -5 -6 -7 -6 -6 -7 -8 -8 -7 -7 -6 -7 -7 -6 -5 -5 -4 -5 -6 -5 -4 -5 -5 -5 -6 -5 -5 -4 -5 -5 -6
-7 -7 -7 -7 -8 -8 -8 -7 -6 -6 -7 -6 -6 -5 -6 -6 -7 -7 -7 -7 -8 -8 -7 -7 -7 -7 -7 -6 -5 -5 -4 -4 -5 -5 -4 -5 -5 -5 -6 -6 -5 -5 -4 -5 -6
-7 -7 -7 -7 -8 -8 -8 -8 -8 -6 -6 -7 -7 -6 -6 -7 -7 -7 -7 -7 -8 -8 -8 -7 -7 -7 -7 -7 -5 -5 -4 -5 -6 -6 -6 -5 -5 -6 -5 -6 -5 -5 -4 -4 -5
-7 -7 -7 -8 -8 -8 -8 -8 -8 -8 -7 -7 -7 -7 -6 -7 -7 -7 -8 -7 -8 -8 -8 -7 -7 -7 -7 -7 -6 -5 -5 -5 -6 -6 -6 -5 -6 -5 -6 -5 -5 -5 -4 -4 -5
-8 -8 -8 -8 -8 -8 -8 -8 -8 -8 -8 -8 -7 -8 -7 -8 -8 -7 -8 -8 -8 -8 -8 -7 -7 -7 -7 -7 -6 -5 -5 -5 -6 -6 -6 -6 -5 -5 -5 -6 -5 -5 -6 -4 -5
-8 -8 -8 -8 -9 -9 -9 -9 -9 -9 -8 -8 -8 -8 -8 -7 -8 -8 -8 -8 -8 -8 -7 -7 -7 -7 -7 -7 -6 -6 -7 -6 -7 -6 -6 -6 -5 -4 -5 -5 -6 -5 -5 -3 -5
-9 -9 -9 -9 -9 -9 -9 -9 -9 -9 -9 -9 -8 -8 -8 -8 -8 -8 -9 -8 -8 -8 -8 -7 -7 -7 -7 -7 -8 -8 -8 -7 -6 -5 -6 -6 -6 -4 -5 -5 -5 -5 -5 -4 -5
-9 -9 -9 -9 -9 -9 -9 -9 -9 -9 -9 -9 -9 -8 -8 -8 -9 -9 -9 -9 -8 -8 -8 -7 -7 -7 -7 -7 -8 -8 -8 -7 -6 -6 -6 -6 -6 -5 -5 -6 -6 -5 -5 -4 -5
-10 -10 -10 -10 -10 -10 -10 -10 -10 -10 -10 -10 -9 -9 -9 -9 -9 -9 -9 -9 -9 -9 -8 -8 -8 -7 -7 -7 -7 -8 -8 -7 -7 -6 -6 -6 -5 -6 -6 -6 -6 -5 -5 -4 -5
-10 -10 -10 -11 -11 -11 -11 -11 -11 -11 -11 -11 -10 -10 -10 -10 -10 -9 -10 -10 -9 -10 -9 -9 -8 -8 -7 -7 -8 -8 -8 -7 -7 -7 -6 -6 -7 -7 -6 -6 -6 -5 -6 -5 -4
-11 -11 -11 -11 -11 -11 -11 -11 -11 -11 -12 -13 -12 -12 -11 -11 -10 -10 -10 -10 -10 -10 -9 -9 -9 -8 -8 -7 -8 -9 -9 -9 -9 -8 -7 -7 -7 -7 -6 -6 -6 -5 -5 -6 -5
-11 -11 -12 -12 -12 -12 -12 -12 -12 -12 -12 -12 -14 -13 -12 -11 -11 -11 -11 -11 -11 -10 -10 -9 -9 -9 -9 -8 -8 -10 -9 -9 -9 -8 -7 -7 -6 -7 -7 -6 -6 -6 -6 -6 -5
-12 -12 -12 -12 -12 -12 -12 -13 -13 -13 -14 -14 -15 -14 -13 -13 -12 -12 -12 -11 -11 -10 -11 -10 -10 -9 -9 -9 -10 -10 -11 -9 -9 -8 -7 -8 -7 -7 -7 -7 -7 -6 -5 -6 -6
-12 -12 -13 -12 -12 -13 -13 -14 -14 -14 -14 -14 -14 -14 -14 -15 -14 -14 -13 -13 -12 -11 -11 -11 -10 -10 -10 -9 -10 -11 -11 -10 -8 -8 -8 -8 -7 -7 -8 -7 -6 -6 -5 -6 -6
-12 -13 -13 -13 -13 -14 -14 -14 -14 -14 -14 -15 -14 -14 -15 -15 -15 -15 -14 -14 -13 -13 -12 -11 -11 -11 -10 -10 -10 -11 -11 -10 -9 -9 -9 -8 -7 -8 -8 -8 -8 -7 -8 -7 -6
-13 -13 -13 -13 -14 -14 -14 -14 -14 -14 -15 -15 -15 -14 -15 -15 -15 -16 -15 -14 -14 -14 -12 -11 -11 -11 -11 -11 -10 -10 -10 -10 -9 -9 -9 -8 -8 -8 -8 -7 -7 -7 -7 -7 -6
-13 -13 -13 -13 -14 -14 -15 -15 -15 -15 -14 -14 -15 -15 -15 -15 -15 -16 -15 -14 -14 -14 -14 -13 -11 -11 -12 -12 -10 -10 -10 -10 -9 -9 -10 -10 -9 -8 -8 -8 -8 -8 -6 -7 -8
-14 -14 -14 -14 -14 -14 -15 -15 -15 -15 -15 -15 -15 -16 -15 -15 -15 -15 -15 -14 -14 -14 -13 -13 -12 -12 -12 -12 -11 -10 -11 -10 -10 -9 -9 -10 -9 -9 -8 -8 -8 -8 -7 -7 -8
-14 -14 -14 -14 -14 -14 -14 -15 -15 -15 -16 -15 -16 -16 -16 -16 -15 -15 -15 -15 -15 -14 -14 -13 -12 -12 -12 -12 -11 -11 -11 -11 -10 -10 -10 -10 -10 -9 -8 -8 -8 -8 -8 -8 -7
-14 -15 -15 -15 -14 -15 -14 -15 -15 -15 -15 -16 -16 -16 -16 -15 -15 -15 -15 -15 -15 -14 -14 -14 -13 -13 -12 -12 -11 -12 -12 -11 -11 -11 -10 -10 -10 -9 -8 -8 -7 -8 -8 -8 -7
-15 -15 -14 -14 -14 -15 -15 -15 -15 -15 -15 -15 -16 -17 -16 -16 -15 -15 -15 -15 -15 -16 -14 -14 -13 -13 -13 -12 -11 -11 -11 -11 -11 -11 -10 -10 -9 -9 -9 -8 -7 -9 -9 -8 -8
-15 -15 -15 -14 -15 -16 -15 -15 -15 -15 -15 -15 -15 -15 -15 -15 -15 -15 -16 -16 -15 -15 -14 -13 -14 -13 -13 -13 -12 -11 -11 -11 -12 -11 -11 -10 -10 -10 -9 -9 -10 -9 -8 -9 -8
-16 -16 -16 -16 -16 -15 -15 -15 -15 -15 -15 -15 -15 -15 -16 -15 -15 -16 -16 -16 -15 -15 -14 -13 -14 -14 -14 -13 -13 -13 -13 -13 -13 -11 -11 -10 -10 -10 -11 -10 -9 -9 -10 -9 -9

GFSSW_500_temp_111.txt.gz
Temp
-5 -5 -5 -6 -6 -6 -5 -5 -5 -4 -4 -4 -5 -5 -5 -5 -5 -5 -5 -5 -6 -6 -6 -6 -5 -5 -4 -5 -5 -5 -5 -5 -5 -5 -4 -5 -5 -6 -6 -7 -7 -6 -6 -5 -7
-5 -6 -6 -6 -6 -6 -6 -6 -5 -5 -4 -4 -4 -5 -5 -5 -5 -5 -5 -6 -7 -6 -6 -6 -6 -5 -5 -5 -5 -5 -5 -5 -5 -5 -5 -5 -5 -6 -6 -6 -7 -6 -6 -6 -6
-5 -6 -6 -6 -6 -6 -6 -6 -6 -6 -5 -5 -5 -5 -5 -6 -6 -5 -6 -6 -7 -7 -7 -6 -6 -5 -5 -5 -6 -5 -5 -5 -5 -5 -5 -5 -6 -6 -6 -6 -6 -6 -6 -6 -6
-5 -6 -6 -7 -7 -7 -7 -7 -6 -6 -6 -5 -5 -5 -5 -6 -6 -6 -6 -6 -8 -8 -7 -7 -6 -6 -6 -6 -6 -6 -6 -6 -5 -6 -5 -5 -6 -6 -5 -5 -6 -6 -6 -6 -6
-6 -6 -7 -7 -7 -7 -8 -8 -7 -6 -6 -6 -6 -6 -6 -6 -6 -6 -7 -7 -8 -9 -8 -7 -7 -7 -7 -6 -6 -6 -6 -5 -4 -4 -5 -5 -5 -5 -5 -5 -6 -6 -6 -6 -6
-6 -7 -7 -7 -7 -7 -7 -8 -8 -8 -7 -6 -6 -6 -6 -6 -6 -7 -7 -7 -8 -9 -8 -8 -8 -8 -7 -6 -6 -6 -6 -6 -5 -4 -5 -5 -5 -5 -5 -5 -5 -5 -6 -6 -5
-6 -7 -7 -7 -7 -7 -7 -8 -8 -8 -8 -7 -6 -6 -6 -6 -7 -7 -7 -8 -8 -9 -9 -8 -8 -8 -7 -6 -6 -6 -6 -6 -5 -5 -6 -5 -5 -5 -5 -5 -5 -6 -6 -6 -6
-7 -7 -7 -8 -8 -8 -8 -8 -8 -8 -8 -8 -8 -7 -6 -7 -8 -7 -7 -8 -8 -9 -9 -8 -8 -8 -8 -7 -6 -6 -6 -6 -6 -5 -5 -5 -5 -5 -6 -5 -5 -5 -6 -6 -5
-7 -7 -8 -8 -8 -8 -8 -8 -8 -8 -8 -8 -9 -8 -7 -8 -8 -7 -7 -8 -8 -9 -9 -8 -8 -8 -8 -7 -6 -6 -6 -6 -6 -6 -6 -6 -5 -5 -6 -5 -5 -5 -5 -5 -5
-8 -8 -8 -8 -8 -8 -9 -9 -9 -8 -8 -9 -8 -9 -8 -7 -7 -7 -8 -8 -8 -8 -9 -9 -8 -8 -8 -8 -7 -7 -7 -7 -7 -7 -7 -6 -6 -5 -5 -6 -5 -5 -5 -6 -5
-8 -9 -9 -9 -9 -9 -9 -9 -9 -9 -9 -9 -9 -8 -8 -8 -8 -8 -8 -8 -8 -8 -8 -8 -8 -8 -8 -8 -8 -7 -7 -7 -6 -6 -6 -6 -6 -5 -5 -6 -6 -5 -5 -6 -5
-9 -9 -9 -10 -10 -10 -10 -9 -9 -9 -9 -9 -9 -9 -9 -9 -9 -8 -8 -8 -8 -8 -8 -8 -8 -8 -8 -8 -9 -8 -7 -7 -7 -6 -7 -7 -6 -6 -6 -6 -6 -5 -6 -6 -6
-10 -10 -10 -10 -10 -10 -10 -10 -10 -10 -10 -9 -9 -9 -10 -10 -10 -10 -9 -9 -9 -9 -8 -8 -9 -8 -8 -8 -9 -9 -8 -7 -7 -7 -6 -6 -6 -6 -6 -6 -6 -6 -5 -6 -5
-11 -11 -11 -11 -11 -11 -11 -11 -11 -11 -11 -10 -10 -10 -10 -10 -10 -10 -10 -10 -9 -9 -9 -9 -9 -8 -8 -8 -9 -9 -9 -8 -8 -7 -7 -7 -7 -7 -6 -6 -6 -6 -6 -6 -6
-11 -11 -11 -11 -12 -12 -12 -12 -12 -12 -12 -12 -12 -11 -11 -10 -11 -10 -10 -10 -10 -10 -9 -9 -9 -9 -9 -9 -9 -9 -10 -9 -8 -8 -7 -7 -7 -7 -7 -7 -6 -6 -6 -6 -6
-11 -12 -12 -12 -12 -12 -12 -13 -13 -13 -13 -13 -13 -12 -12 -11 -11 -11 -11 -11 -10 -10 -10 -9 -9 -9 -9 -9 -9 -10 -10 -10 -9 -8 -7 -7 -7 -8 -7 -6 -5 -6 -6 -6 -6
-12 -12 -12 -13 -13 -13 -13 -14 -14 -14 -14 -14 -13 -12 -12 -12 -12 -11 -12 -11 -11 -10 -10 -10 -10 -9 -9 -9 -9 -9 -11 -10 -9 -9 -8 -8 -8 -8 -8 -6 -6 -6 -7 -6 -7
-13 -13 -13 -13 -13 -13 -13 -14 -15 -14 -14 -14 -14 -13 -13 -13 -13 -13 -13 -12 -12 -11 -11 -11 -10 -10 -10 -10 -10 -9 -10 -9 -9 -9 -9 -8 -7 -7 -8 -6 -6 -6 -6 -6 -7
-13 -13 -13 -13 -13 -14 -14 -15 -15 -15 -15 -14 -14 -15 -14 -13 -13 -14 -14 -13 -12 -12 -11 -11 -11 -11 -10 -10 -11 -10 -10 -10 -10 -9 -9 -9 -7 -7 -7 -7 -7 -7 -7 -6 -6
-14 -13 -13 -14 -14 -14 -15 -15 -15 -15 -15 -15 -15 -15 -14 -15 -15 -14 -14 -14 -13 -12 -12 -11 -11 -11 -11 -11 -11 -10 -11 -11 -9 -9 -9 -8 -8 -7 -8 -8 -8 -8 -7 -7 -6
-13 -14 -14 -14 -14 -15 -15 -15 -15 -14 -15 -15 -15 -15 -15 -14 -15 -15 -14 -14 -14 -13 -13 -12 -12 -12 -12 -11 -11 -11 -11 -11 -10 -10 -9 -9 -8 -8 -8 -8 -8 -8 -8 -7 -7
-14 -14 -14 -14 -14 -15 -15 -15 -15 -15 -15 -16 -16 -15 -15 -14 -15 -16 -15 -15 -15 -15 -14 -13 -12 -13 -13 -13 -12 -11 -11 -11 -11 -10 -10 -9 -8 -9 -8 -8 -8 -8 -8 -7 -7
-14 -14 -14 -14 -15 -15 -15 -15 -14 -15 -15 -15 -15 -16 -15 -15 -15 -15 -16 -15 -15 -15 -15 -14 -13 -13 -13 -13 -13 -12 -11 -11 -11 -11 -10 -9 -9 -9 -8 -8 -8 -8 -8 -7 -7
-14 -14 -15 -15 -15 -15 -14 -14 -14 -15 -15 -15 -15 -15 -16 -16 -15 -15 -15 -15 -15 -15 -15 -14 -14 -13 -13 -13 -13 -12 -11 -11 -11 -11 -10 -10 -9 -9 -9 -8 -8 -7 -7 -7 -7
-15 -15 -15 -14 -14 -14 -15 -14 -15 -15 -15 -15 -15 -15 -15 -15 -15 -15 -15 -15 -15 -14 -13 -15 -14 -14 -13 -13 -13 -13 -12 -11 -11 -12 -11 -10 -10 -10 -10 -10 -9 -8 -8 -8 -8
-15 -15 -15 -15 -15 -14 -14 -14 -15 -15 -15 -15 -15 -16 -16 -15 -15 -16 -16 -16 -15 -14 -14 -14 -14 -14 -14 -13 -13 -12 -12 -11 -11 -12 -11 -11 -10 -10 -10 -9 -9 -9 -8 -8 -10
-16 -16 -16 -16 -15 -15 -15 -15 -15 -15 -15 -15 -15 -16 -16 -16 -16 -16 -16 -16 -16 -15 -15 -16 -15 -14 -14 -14 -13 -13 -13 -12 -12 -13 -12 -12 -11 -11 -10 -10 -10 -10 -9 -8 -9

GFSSW_500_temp_114.txt.gz
Temp
-4 -4 -5 -5 -5 -5 -5 -5 -5 -5 -4 -5 -5 -5 -5 -5 -5 -5 -4 -5 -6 -6 -6 -6 -6 -5 -4 -5 -5 -5 -6 -5 -5 -5 -6 -6 -6 -5 -5 -5 -6 -6 -6 -5 -7
-4 -4 -5 -5 -5 -6 -6 -6 -6 -5 -5 -5 -5 -5 -5 -5 -5 -5 -5 -6 -7 -7 -7 -6 -6 -5 -5 -5 -5 -5 -6 -6 -5 -5 -6 -6 -7 -5 -5 -6 -5 -6 -6 -6 -6
-5 -5 -5 -6 -6 -6 -6 -6 -6 -6 -6 -5 -5 -5 -5 -5 -5 -5 -6 -6 -6 -7 -7 -7 -6 -6 -6 -5 -5 -5 -5 -5 -5 -5 -6 -6 -6 -6 -6 -6 -6 -5 -6 -6 -6
-5 -5 -5 -6 -6 -7 -7 -7 -7 -7 -6 -6 -6 -5 -6 -6 -5 -6 -6 -6 -6 -8 -8 -8 -7 -7 -7 -6 -6 -5 -5 -5 -6 -6 -5 -5 -6 -6 -6 -6 -5 -6 -5 -6 -6
-5 -5 -6 -6 -6 -7 -7 -7 -8 -7 -7 -7 -6 -6 -6 -6 -6 -6 -6 -7 -7 -8 -9 -8 -8 -7 -7 -6 -6 -6 -5 -6 -6 -5 -5 -5 -6 -6 -6 -6 -6 -6 -5 -6 -6
-5 -5 -6 -6 -7 -7 -7 -7 -8 -8 -8 -7 -7 -6 -6 -6 -6 -7 -7 -7 -7 -8 -9 -9 -8 -8 -7 -7 -6 -6 -6 -6 -6 -6 -5 -5 -5 -5 -5 -6 -6 -6 -5 -6 -6
-5 -5 -6 -6 -7 -7 -7 -7 -7 -8 -8 -8 -8 -8 -6 -6 -7 -7 -7 -8 -8 -8 -9 -9 -9 -8 -7 -7 -6 -7 -6 -6 -6 -6 -5 -6 -4 -5 -6 -6 -6 -6 -6 -6 -6
-5 -6 -7 -7 -8 -8 -8 -8 -8 -8 -8 -8 -8 -8 -8 -8 -7 -7 -7 -8 -8 -8 -9 -9 -9 -8 -8 -7 -7 -7 -6 -6 -6 -6 -6 -6 -6 -5 -6 -5 -6 -6 -6 -6 -6
-6 -6 -7 -8 -8 -9 -8 -8 -8 -9 -8 -8 -8 -8 -8 -9 -8 -7 -7 -8 -8 -8 -9 -9 -9 -9 -8 -8 -7 -7 -7 -7 -7 -7 -6 -5 -6 -5 -5 -6 -6 -5 -6 -6 -6
-6 -7 -8 -9 -9 -9 -9 -9 -9 -9 -9 -9 -9 -8 -8 -9 -8 -7 -7 -8 -8 -8 -8 -10 -9 -9 -9 -8 -7 -7 -7 -7 -7 -6 -6 -5 -5 -6 -5 -5 -6 -6 -6 -6 -6
-7 -8 -9 -10 -10 -10 -10 -9 -9 -9 -9 -9 -9 -9 -9 -9 -9 -9 -8 -8 -8 -8 -9 -9 -9 -9 -9 -8 -8 -8 -7 -8 -7 -7 -6 -6 -6 -6 -6 -5 -5 -6 -6 -6 -7
-8 -9 -10 -10 -10 -11 -10 -10 -10 -10 -10 -10 -9 -9 -10 -10 -10 -10 -9 -8 -8 -9 -9 -9 -9 -9 -9 -8 -8 -8 -8 -8 -8 -7 -7 -6 -6 -6 -7 -6 -5 -6 -6 -6 -6
-9 -10 -10 -11 -11 -11 -11 -11 -11 -11 -10 -10 -10 -10 -10 -10 -10 -10 -11 -10 -9 -9 -9 -9 -9 -9 -9 -9 -9 -8 -8 -8 -8 -7 -7 -6 -6 -6 -6 -6 -6 -6 -6 -6 -7
-9 -10 -11 -11 -12 -12 -12 -12 -11 -11 -11 -11 -11 -11 -11 -11 -11 -10 -11 -11 -10 -9 -9 -9 -9 -9 -9 -8 -8 -8 -8 -8 -8 -8 -7 -7 -6 -6 -6 -5 -6 -6 -6 -6 -6
-10 -11 -12 -12 -12 -12 -12 -12 -12 -12 -12 -12 -12 -12 -11 -11 -11 -11 -11 -11 -11 -10 -10 -10 -9 -9 -9 -9 -9 -8 -9 -8 -8 -8 -8 -7 -7 -8 -7 -7 -7 -6 -6 -6 -6
-11 -12 -12 -13 -13 -13 -13 -13 -13 -13 -13 -13 -13 -13 -12 -12 -11 -11 -11 -11 -11 -11 -11 -10 -9 -9 -9 -9 -9 -9 -10 -9 -8 -8 -8 -8 -7 -7 -7 -7 -7 -5 -5 -6 -6
-12 -13 -13 -13 -13 -13 -13 -13 -14 -14 -14 -14 -13 -13 -13 -13 -12 -12 -12 -11 -12 -11 -11 -10 -10 -10 -10 -9 -9 -9 -10 -10 -9 -9 -8 -8 -7 -7 -7 -7 -7 -6 -5 -6 -6
-12 -13 -14 -14 -13 -13 -14 -14 -14 -15 -14 -14 -14 -13 -14 -14 -13 -13 -12 -12 -12 -12 -11 -11 -11 -11 -10 -10 -9 -9 -10 -9 -9 -9 -8 -8 -8 -7 -7 -7 -6 -6 -6 -6 -6
-12 -14 -14 -14 -14 -14 -14 -15 -15 -15 -15 -15 -14 -14 -14 -14 -14 -14 -13 -12 -12 -12 -12 -11 -11 -11 -11 -11 -10 -10 -10 -11 -10 -10 -9 -9 -9 -8 -7 -6 -6 -7 -7 -6 -5
-13 -14 -14 -14 -14 -14 -15 -16 -15 -15 -15 -15 -15 -14 -14 -14 -14 -15 -14 -13 -13 -13 -12 -12 -12 -12 -12 -11 -11 -10 -11 -10 -10 -10 -9 -9 -9 -8 -7 -7 -7 -7 -7 -6 -7
-14 -14 -14 -14 -14 -15 -15 -16 -16 -16 -16 -16 -15 -15 -15 -14 -14 -14 -14 -14 -14 -13 -13 -12 -12 -12 -12 -12 -12 -11 -11 -11 -11 -10 -9 -9 -8 -8 -8 -8 -8 -7 -7 -7 -8
-14 -14 -14 -14 -15 -15 -15 -15 -15 -15 -15 -15 -16 -16 -16 -16 -15 -15 -14 -15 -15 -14 -13 -13 -12 -13 -13 -12 -12 -13 -12 -12 -11 -10 -10 -9 -8 -8 -8 -8 -8 -8 -8 -7 -7
-14 -14 -15 -14 -14 -15 -15 -15 -15 -15 -15 -15 -16 -16 -16 -16 -16 -16 -16 -15 -15 -15 -14 -14 -13 -13 -13 -13 -13 -13 -13 -12 -12 -11 -11 -10 -9 -9 -9 -8 -8 -7 -8 -8 -7
-14 -15 -15 -14 -15 -15 -15 -15 -15 -15 -15 -15 -15 -15 -15 -15 -16 -16 -16 -15 -15 -15 -15 -15 -14 -14 -14 -14 -13 -13 -13 -12 -12 -12 -11 -10 -9 -10 -9 -9 -8 -9 -9 -9 -8
-15 -15 -15 -14 -14 -15 -15 -15 -15 -15 -15 -15 -15 -15 -16 -16 -16 -16 -16 -16 -15 -15 -15 -15 -15 -14 -14 -14 -14 -14 -13 -12 -12 -12 -12 -11 -10 -10 -10 -10 -9 -9 -9 -9 -9
-15 -15 -15 -15 -15 -15 -15 -15 -15 -15 -15 -15 -15 -15 -15 -15 -16 -16 -16 -15 -15 -15 -15 -15 -15 -14 -14 -15 -14 -14 -13 -13 -12 -12 -12 -11 -10 -10 -10 -10 -10 -10 -10 -9 -9
-15 -15 -15 -15 -15 -15 -15 -15 -15 -16 -16 -15 -15 -15 -15 -15 -15 -15 -15 -16 -16 -16 -16 -16 -15 -15 -15 -15 -14 -14 -13 -13 -13 -12 -12 -12 -11 -11 -10 -10 -11 -11 -10 -10 -9

GFSSW_500_temp_117.txt.gz
Temp
-3 -3 -3 -3 -4 -4 -5 -5 -5 -5 -5 -5 -4 -4 -5 -5 -5 -5 -4 -5 -5 -6 -6 -6 -5 -5 -4 -4 -5 -6 -5 -5 -5 -5 -5 -5 -6 -6 -6 -5 -5 -6 -6 -6 -7
-3 -3 -3 -4 -4 -4 -5 -5 -6 -6 -6 -5 -5 -5 -5 -5 -5 -5 -5 -5 -6 -6 -7 -6 -6 -5 -4 -5 -5 -5 -6 -5 -5 -6 -5 -5 -6 -6 -6 -5 -5 -5 -6 -6 -7
-4 -4 -4 -4 -4 -5 -5 -6 -6 -6 -6 -6 -6 -5 -5 -5 -5 -5 -5 -5 -5 -6 -7 -7 -6 -6 -5 -5 -5 -5 -5 -5 -6 -6 -6 -5 -6 -6 -6 -6 -5 -5 -6 -6 -6
-3 -4 -4 -4 -4 -5 -5 -6 -6 -7 -7 -7 -6 -6 -6 -5 -5 -6 -5 -5 -5 -6 -7 -8 -7 -7 -6 -5 -5 -5 -5 -5 -6 -6 -5 -5 -6 -6 -6 -6 -5 -5 -5 -6 -7
-4 -4 -4 -5 -5 -6 -6 -7 -7 -7 -7 -7 -7 -7 -6 -6 -6 -6 -6 -6 -6 -6 -7 -8 -8 -8 -7 -5 -6 -5 -6 -6 -6 -6 -5 -5 -5 -5 -6 -6 -5 -5 -6 -6 -6
-4 -4 -4 -5 -5 -6 -7 -7 -7 -7 -7 -8 -8 -7 -7 -6 -6 -7 -6 -6 -6 -7 -8 -8 -8 -8 -7 -6 -6 -6 -6 -5 -6 -6 -6 -5 -5 -5 -6 -6 -5 -6 -5 -5 -5
-3 -4 -5 -5 -6 -7 -7 -7 -7 -7 -8 -8 -8 -8 -7 -7 -7 -7 -7 -7 -6 -7 -8 -9 -9 -8 -8 -7 -6 -6 -6 -6 -6 -6 -6 -6 -5 -6 -6 -5 -5 -6 -5 -5 -5
-4 -5 -5 -6 -7 -8 -8 -8 -8 -8 -8 -8 -8 -8 -8 -8 -8 -7 -8 -7 -7 -7 -8 -8 -8 -8 -8 -7 -6 -6 -6 -6 -6 -6 -6 -6 -6 -5 -6 -6 -6 -5 -5 -5 -5
-5 -5 -6 -7 -7 -8 -8 -8 -9 -9 -8 -9 -9 -9 -8 -8 -8 -8 -8 -7 -7 -7 -8 -9 -8 -8 -8 -8 -7 -7 -7 -7 -7 -7 -7 -6 -6 -6 -6 -5 -6 -6 -6 -5 -6
-5 -6 -7 -8 -8 -9 -9 -9 -9 -9 -9 -9 -9 -9 -9 -8 -8 -8 -9 -9 -8 -7 -8 -9 -9 -9 -9 -8 -8 -7 -7 -7 -7 -7 -7 -6 -6 -5 -6 -5 -5 -6 -6 -6 -6
-6 -7 -8 -8 -9 -10 -10 -10 -10 -10 -10 -9 -10 -10 -10 -9 -9 -9 -9 -9 -9 -8 -8 -9 -9 -9 -9 -9 -8 -8 -8 -8 -8 -7 -7 -7 -6 -6 -6 -6 -6 -6 -6 -5 -6
-7 -7 -8 -9 -10 -11 -11 -11 -11 -10 -10 -10 -10 -10 -10 -10 -10 -9 -9 -10 -10 -9 -9 -9 -10 -9 -9 -9 -9 -8 -8 -8 -8 -7 -7 -7 -6 -6 -6 -6 -6 -6 -5 -6 -6
-7 -8 -9 -10 -11 -12 -12 -11 -11 -11 -11 -11 -11 -11 -11 -11 -11 -11 -10 -10 -10 -10 -10 -10 -10 -10 -9 -9 -9 -8 -9 -9 -8 -8 -7 -7 -7 -7 -6 -6 -6 -6 -6 -6 -6
-8 -9 -10 -12 -12 -12 -12 -12 -12 -12 -12 -12 -12 -11 -11 -11 -11 -11 -11 -11 -10 -10 -10 -10 -10 -10 -10 -9 -9 -9 -9 -9 -9 -8 -8 -7 -7 -6 -6 -6 -6 -6 -6 -6 -6
-8 -10 -12 -12 -13 -13 -13 -13 -12 -13 -13 -13 -12 -12 -12 -12 -12 -12 -11 -11 -11 -11 -10 -10 -10 -10 -9 -9 -9 -8 -9 -9 -9 -8 -8 -8 -8 -7 -7 -7 -7 -6 -6 -5 -6
-9 -11 -13 -13 -13 -13 -13 -13 -13 -13 -13 -13 -13 -13 -12 -12 -12 -12 -12 -11 -11 -11 -11 -10 -10 -9 -9 -9 -9 -9 -9 -9 -8 -8 -8 -8 -7 -7 -7 -7 -6 -6 -6 -6 -6
-11 -13 -13 -14 -14 -13 -13 -13 -14 -14 -14 -14 -14 -13 -13 -13 -12 -12 -13 -12 -11 -11 -11 -11 -10 -10 -10 -9 -9 -9 -9 -9 -9 -8 -8 -8 -7 -8 -7 -7 -6 -6 -7 -6 -6
-13 -13 -14 -14 -14 -14 -13 -14 -14 -14 -15 -14 -14 -14 -14 -13 -13 -13 -12 -13 -12 -12 -11 -11 -11 -11 -11 -10 -10 -9 -9 -9 -9 -8 -8 -8 -8 -7 -8 -7 -6 -6 -6 -6 -6
-13 -13 -14 -14 -14 -14 -14 -14 -15 -15 -15 -15 -15 -15 -14 -14 -14 -13 -13 -13 -13 -12 -12 -12 -11 -11 -11 -11 -10 -10 -9 -10 -10 -9 -8 -8 -8 -8 -8 -8 -7 -7 -6 -6 -6
-13 -13 -14 -14 -14 -14 -14 -15 -15 -15 -16 -15 -15 -15 -15 -15 -15 -14 -14 -14 -13 -13 -12 -12 -12 -11 -11 -11 -11 -10 -10 -11 -10 -10 -9 -9 -9 -8 -8 -8 -7 -7 -7 -6 -7
-13 -13 -14 -14 -14 -14 -15 -15 -15 -15 -16 -16 -15 -15 -15 -15 -15 -15 -15 -15 -14 -14 -13 -13 -12 -12 -12 -12 -12 -11 -11 -11 -11 -10 -10 -9 -9 -9 -9 -8 -8 -8 -7 -7 -6
-13 -13 -14 -14 -14 -15 -15 -15 -15 -15 -15 -16 -16 -16 -15 -15 -15 -15 -15 -15 -15 -14 -14 -13 -13 -13 -12 -12 -12 -12 -11 -12 -11 -10 -10 -10 -9 -9 -9 -9 -8 -8 -8 -7 -7
-13 -14 -14 -14 -14 -14 -15 -15 -15 -15 -16 -15 -16 -16 -16 -15 -15 -15 -15 -15 -15 -15 -14 -14 -13 -13 -13 -12 -12 -12 -12 -12 -12 -12 -11 -10 -9 -9 -9 -9 -9 -8 -8 -8 -8
-14 -14 -14 -14 -14 -15 -15 -15 -15 -15 -15 -16 -15 -16 -16 -16 -16 -16 -16 -16 -16 -15 -15 -15 -14 -14 -14 -14 -13 -12 -12 -12 -13 -12 -12 -11 -10 -9 -10 -10 -9 -9 -9 -8 -8
-14 -14 -15 -15 -15 -15 -16 -15 -15 -15 -15 -15 -16 -15 -15 -16 -16 -16 -16 -16 -16 -16 -15 -15 -15 -14 -14 -14 -14 -13 -13 -13 -13 -13 -13 -12 -11 -10 -10 -10 -10 -9 -9 -9 -8
-14 -14 -15 -15 -15 -16 -16 -15 -15 -15 -15 -15 -15 -15 -15 -15 -15 -16 -16 -16 -16 -16 -15 -15 -15 -14 -14 -14 -14 -14 -14 -14 -13 -13 -13 -13 -12 -11 -11 -11 -11 -10 -10 -9 -10
-14 -15 -15 -15 -16 -16 -15 -15 -15 -15 -15 -15 -15 -15 -15 -15 -15 -15 -15 -15 -15 -15 -15 -15 -15 -15 -14 -14 -14 -14 -14 -14 -13 -13 -13 -13 -12 -12 -11 -11 -11 -11 -10 -10 -10